[[{"header":{"parameterUnit":"m.s-1","parameterCategory":1,"la1":31.0,"la2":29.5877,"lo1":-88.7671,"lo2":-86.6584,"dy":0.0162,"dx":0.0185,"nx":115,"ny":88,"refTime":"2025-12-10T00:00:00:Z","depth":0,"parameterNumber":2,"parameterNumberName":"U-component_of_WINDS"},"data":[0.0,0.0,0.0,0.0,0.0,0.0,0.0,0.0,0.0,0.0,0.0,0.0,0.0,0.0,0.0,0.0,0.0,0.0,0.0,0.0,0.0,0.0,0.0,0.0,0.0,0.0,0.0,0.0,0.0,0.0,0.0,0.0,0.0,0.0,0.0,0.0,0.0,0.0,0.0,0.0,0.0,0.0,0.0,0.0,0.0,0.0,0.0,0.0,0.0,0.0,0.0,0.0,0.0,0.0,0.0,0.0,0.0,0.0,0.0,0.0,0.0,0.0,0.0,0.0,0.0,0.0,0.0,0.0,0.0,0.0,0.0,0.0,0.0,0.0,0.0,0.0,0.0,0.0,0.0,0.0,0.0,0.0,0.0,0.0,0.0,0.0,0.0,0.0,0.0,0.0,0.0,0.0,0.0,0.0,0.0,0.0,0.0,0.0,0.0,0.0,0.0,0.0,0.0,0.0,0.0,0.0,0.0,0.0,0.0,0.0,0.0,0.0,0.0,0.0,0.0,0.0,0.0,0.0,0.0,0.0,0.0,0.0,0.0,0.0,0.0,0.0,0.0,0.0,0.0,0.0,0.0,0.0,0.0,0.0,0.0,0.0,0.0,0.0,0.0,0.0,0.0,0.0,0.0,0.0,0.0,0.0,0.0,0.0,0.0,0.0,0.0,0.0,0.0,0.0,0.0,0.0,0.0,0.0,0.0,0.0,0.0,0.0,0.0,0.0,0.0,0.0,0.0,0.0,0.0,0.0,0.0,0.0,0.0,0.0,0.0,0.0,0.0,0.0,0.0,0.0,0.0,0.0,0.0,0.0,0.0,0.0,0.0,0.0,0.0,0.0,0.0,0.0,0.0,0.0,0.0,0.0,0.0,0.0,0.0,0.0,0.0,0.0,0.0,0.0,0.0,0.0,0.0,0.0,0.0,0.0,0.0,0.0,0.0,0.0,0.0,0.0,0.0,0.0,0.0,0.0,0.0,0.0,0.0,0.0,0.0,0.0,0.0,0.0,0.0,0.0,0.0,0.0,0.0,0.0,0.0,0.0,0.0,0.0,0.0,0.0,0.0,0.0,0.0,0.0,0.0,0.0,0.0,0.0,0.0,0.0,0.0,0.0,0.0,0.0,0.0,0.0,0.0,0.0,0.0,0.0,0.0,0.0,0.0,0.0,0.0,0.0,0.0,0.0,0.0,0.0,0.0,0.0,0.0,0.0,0.0,0.0,0.0,0.0,0.0,0.0,0.0,0.0,0.0,0.0,0.0,0.0,0.0,0.0,0.0,0.0,0.0,0.0,0.0,0.0,0.0,0.0,0.0,0.0,0.0,0.0,0.0,0.0,0.0,0.0,0.0,0.0,0.0,0.0,0.0,0.0,0.0,0.0,0.0,0.0,0.0,0.0,0.0,0.0,0.0,0.0,0.0,0.0,0.0,0.0,0.0,0.0,0.0,0.0,0.0,0.0,0.0,0.0,0.0,0.0,0.0,0.0,0.0,0.0,0.0,0.0,0.0,0.0,0.0,0.0,0.0,0.0,0.0,0.0,0.0,0.0,0.0,0.0,0.0,0.0,0.0,0.0,0.0,0.0,0.0,0.0,0.0,0.0,0.0,0.0,0.0,0.0,0.0,0.0,0.0,0.0,0.0,0.0,0.0,0.0,0.0,0.0,0.0,0.0,0.0,0.0,0.0,0.0,0.0,0.0,0.0,0.0,0.0,0.0,0.0,0.0,0.0,0.0,0.0,0.0,0.0,0.0,0.0,0.0,0.0,0.0,0.0,0.0,0.0,0.0,0.0,0.0,0.0,0.0,0.0,0.0,0.0,0.0,0.0,0.0,0.0,0.0,0.0,0.0,0.0,0.0,0.0,0.0,0.0,0.0,0.0,0.0,0.0,0.0,0.0,0.0,0.0,0.0,0.0,0.0,0.0,0.0,0.0,0.0,0.0,0.0,0.0,0.0,0.0,0.0,0.0,0.0,0.0,0.0,0.0,0.0,0.0,0.0,0.0,0.0,0.0,0.0,0.0,0.0,0.0,0.0,0.0,0.0,0.0,0.0,0.0,0.0,0.0,0.0,0.0,0.0,0.0,0.0,0.0,0.0,0.0,0.0,0.0,0.0,0.0,0.0,0.0,0.0,0.0,0.0,0.0,0.0,0.0,0.0,0.0,0.0,0.0,0.0,0.0,0.0,0.0,0.0,0.0,0.0,0.0,0.0,0.0,0.0,0.0,0.0,0.0,0.0,0.0,0.0,0.0,0.0,0.0,0.0,0.0,0.0,0.0,0.0,0.0,0.0,0.0,0.0,0.0,0.0,0.0,0.0,0.0,0.0,0.0,0.0,0.0,0.0,0.0,0.0,0.0,0.0,0.0,0.0,0.0,0.0,0.0,0.0,0.0,0.0,0.0,0.0,0.0,0.0,0.0,0.0,0.0,0.0,0.0,0.0,0.0,0.0,0.0,0.0,0.0,0.0,0.0,0.0,0.0,0.0,0.0,0.0,0.0,0.0,0.0,0.0,0.0,0.0,0.0,0.0,0.0,0.0,0.0,0.0,0.0,0.0,0.0,0.0,0.0,0.0,0.0,0.0,0.0,0.0,0.0,0.0,0.0,0.0,0.0,0.0,0.0,0.0,0.0,0.0,0.0,0.0,0.0,0.0,0.0,0.0,0.0,0.0,0.0,0.0,0.0,0.0,0.0,0.0,0.0,0.0,0.0,0.0,0.0,0.0,0.0,0.0,0.0,0.0,0.0,0.0,0.0,0.0,0.0,0.0,0.0,0.0,0.0,0.0,0.0,0.0,0.0,0.0,0.0,0.0,0.0,0.0,0.0,0.0,0.0,0.0,0.0,0.0,0.0,0.0,0.0,0.0,0.0,0.0,0.0,0.0,0.0,0.0,0.0,0.0,0.0,0.0,0.0,0.0,0.0,0.0,0.0,0.0,0.0,0.0,0.0,0.0,0.0,0.0,0.0,0.0,0.0,0.0,0.0,0.0,0.0,0.0,0.0,0.0,0.0,0.0,0.0,0.0,0.0,0.0,0.0,0.0,0.0,0.0,0.0,0.0,0.0,0.0,0.0,0.0,0.0,0.0,0.0,0.0,0.0,0.0,0.0,0.0,0.0,0.0,0.0,0.0,0.0,0.0,0.0,0.0,0.0,0.0,0.0,0.0,0.0,0.0,0.0,0.0,0.0,0.0,0.0,0.0,0.0,0.0,0.0,0.0,0.0,0.0,0.0,0.0,0.0,0.0,0.0,0.0,0.0,0.0,0.0,0.0,0.0,0.0,0.0,0.0,0.0,0.0,0.0,0.0,0.0,0.0,0.0,0.0,0.0,0.0,0.0,0.0,0.0,0.0,0.0,0.0,0.0,0.0,0.0,0.0,0.0,0.0,0.0,0.0,0.0,0.0,0.0,0.0,0.0,0.0,0.0,0.0,0.0,0.0,0.0,0.0,0.0,0.0,0.0,0.0,0.0,0.0,0.0,0.0,0.0,0.0,0.0,0.0,0.0,0.0,0.0,0.0,0.0,0.0,0.0,0.0,0.0,0.0,0.0,0.0,0.0,0.0,0.0,0.0,0.0,0.0,0.0,0.0,0.0,0.0,0.0,0.0,0.0,0.0,0.0,0.0,0.0,0.0,0.0,0.0,0.0,0.0,0.0,0.0,0.0,0.0,0.0,0.0,0.0,0.0,0.0,0.0,0.0,0.0,0.0,0.0,0.0,0.0,0.0,0.0,0.0,0.0,0.0,0.0,0.0,0.0,0.0,0.0,0.0,0.0,0.0,0.0,0.0,0.0,0.0,0.0,0.0,0.0,0.0,0.0,0.0,0.0,0.0,0.0,0.0,0.0,0.0,0.0,0.0,0.0,0.0,0.0,0.0,0.0,0.0,0.0,0.0,0.0,0.0,0.0,0.0,0.0,0.0,0.0,0.0,0.0,0.0,0.0,0.0,0.0,0.0,0.0,0.0,0.0,0.0,0.0,0.0,0.0,0.0,0.0,0.0,0.0,0.0,0.0,0.0,0.0,0.0,0.0,0.0,0.0,0.0,0.0,0.0,0.0,0.0,0.0,0.0,0.0,0.0,0.0,0.0,0.0,0.0,0.0,0.0,0.0,0.0,0.0,0.0,0.0,0.0,0.0,0.0,0.0,0.0,0.0,0.0,0.0,0.0,0.0,0.0,0.0,0.0,0.0,0.0,0.0,0.0,0.0,0.0,0.0,0.0,0.0,0.0,0.0,0.0,0.0,0.0,0.0,0.0,0.0,0.0,0.0,-2.5684,0.0,0.0,0.0,0.0,0.0,0.0,0.0,0.0,0.0,0.0,0.0,0.0,0.0,0.0,0.0,0.0,0.0,0.0,0.0,0.0,0.0,0.0,0.0,0.0,0.0,0.0,0.0,0.0,0.0,0.0,0.0,0.0,0.0,0.0,0.0,0.0,0.0,0.0,0.0,0.0,0.0,0.0,0.0,0.0,0.0,0.0,0.0,0.0,0.0,0.0,0.0,0.0,0.0,0.0,0.0,0.0,0.0,0.0,0.0,0.0,0.0,0.0,0.0,0.0,0.0,0.0,0.0,0.0,0.0,0.0,0.0,0.0,0.0,0.0,0.0,0.0,0.0,0.0,0.0,0.0,0.0,0.0,0.0,0.0,0.0,0.0,0.0,0.0,0.0,0.0,0.0,0.0,0.0,0.0,0.0,0.0,0.0,0.0,0.0,0.0,0.0,0.0,0.0,0.0,0.0,0.0,0.0,0.0,0.0,0.0,-2.5703,-2.5703,-2.5703,-2.5703,-2.5684,0.0,0.0,0.0,0.0,0.0,0.0,0.0,0.0,0.0,0.0,0.0,0.0,0.0,0.0,0.0,0.0,0.0,0.0,0.0,0.0,0.0,0.0,0.0,0.0,0.0,0.0,0.0,0.0,0.0,0.0,0.0,0.0,0.0,0.0,0.0,0.0,0.0,0.0,0.0,0.0,0.0,0.0,0.0,0.0,0.0,0.0,0.0,0.0,0.0,0.0,0.0,0.0,0.0,0.0,0.0,0.0,0.0,0.0,0.0,0.0,0.0,0.0,0.0,0.0,0.0,0.0,0.0,0.0,0.0,0.0,0.0,0.0,0.0,0.0,0.0,0.0,0.0,0.0,0.0,0.0,0.0,0.0,0.0,0.0,0.0,0.0,0.0,0.0,0.0,0.0,0.0,0.0,0.0,0.0,0.0,0.0,0.0,0.0,0.0,0.0,0.0,0.0,0.0,0.0,0.0,0.0,0.0,0.0,0.0,0.0,0.0,0.0,-2.6289,-2.6289,-2.6269,0.0,0.0,0.0,0.0,0.0,0.0,0.0,0.0,0.0,0.0,0.0,0.0,0.0,0.0,0.0,0.0,0.0,0.0,0.0,0.0,0.0,0.0,0.0,0.0,0.0,0.0,0.0,0.0,0.0,0.0,0.0,0.0,0.0,0.0,0.0,0.0,0.0,0.0,0.0,0.0,0.0,0.0,0.0,0.0,0.0,0.0,0.0,0.0,0.0,0.0,0.0,0.0,0.0,0.0,0.0,0.0,0.0,0.0,0.0,0.0,0.0,0.0,0.0,0.0,0.0,0.0,0.0,0.0,0.0,0.0,0.0,0.0,0.0,0.0,0.0,0.0,0.0,0.0,0.0,0.0,0.0,0.0,0.0,0.0,0.0,0.0,0.0,0.0,0.0,0.0,0.0,0.0,0.0,0.0,0.0,0.0,0.0,0.0,0.0,0.0,0.0,0.0,0.0,0.0,0.0,0.0,0.0,0.0,0.0,0.0,-2.6445,-2.8008,-2.8047,0.0,-2.8027,0.0,0.0,0.0,0.0,0.0,0.0,0.0,0.0,0.0,0.0,0.0,0.0,0.0,0.0,0.0,0.0,0.0,0.0,0.0,0.0,0.0,0.0,0.0,0.0,0.0,0.0,0.0,0.0,0.0,0.0,0.0,0.0,0.0,0.0,0.0,0.0,0.0,0.0,0.0,0.0,0.0,0.0,0.0,0.0,0.0,0.0,0.0,0.0,0.0,0.0,0.0,0.0,0.0,0.0,0.0,0.0,0.0,0.0,0.0,0.0,0.0,0.0,0.0,0.0,0.0,0.0,0.0,0.0,0.0,0.0,0.0,0.0,0.0,0.0,0.0,0.0,0.0,0.0,0.0,0.0,0.0,0.0,0.0,0.0,0.0,0.0,0.0,0.0,0.0,0.0,0.0,0.0,0.0,0.0,0.0,0.0,0.0,0.0,0.0,0.0,0.0,0.0,0.0,0.0,0.0,0.0,0.0,0.0,0.0,0.0,-2.7578,-2.8281,-2.8281,-2.8047,0.0,0.0,0.0,0.0,0.0,0.0,0.0,0.0,0.0,0.0,0.0,0.0,0.0,0.0,0.0,0.0,0.0,0.0,0.0,0.0,0.0,0.0,0.0,0.0,0.0,0.0,0.0,0.0,0.0,0.0,0.0,0.0,0.0,0.0,0.0,0.0,0.0,0.0,0.0,0.0,0.0,0.0,0.0,0.0,0.0,0.0,0.0,0.0,0.0,0.0,0.0,0.0,0.0,0.0,0.0,0.0,0.0,0.0,0.0,0.0,0.0,0.0,0.0,0.0,0.0,0.0,0.0,0.0,0.0,0.0,0.0,0.0,0.0,0.0,0.0,0.0,0.0,0.0,0.0,0.0,0.0,0.0,0.0,0.0,0.0,0.0,0.0,0.0,0.0,0.0,0.0,0.0,0.0,0.0,0.0,0.0,0.0,0.0,0.0,0.0,0.0,0.0,0.0,0.0,0.0,0.0,0.0,0.0,0.0,0.0,-2.791,-2.8535,-2.8984,-2.9004,-2.8379,-2.7031,0.0,0.0,0.0,0.0,0.0,0.0,0.0,0.0,0.0,0.0,0.0,0.0,0.0,0.0,0.0,0.0,0.0,0.0,0.0,0.0,0.0,0.0,0.0,0.0,0.0,0.0,0.0,0.0,0.0,0.0,0.0,0.0,0.0,0.0,0.0,0.0,0.0,0.0,0.0,0.0,0.0,0.0,0.0,0.0,0.0,0.0,0.0,0.0,0.0,0.0,0.0,0.0,0.0,0.0,0.0,0.0,0.0,0.0,0.0,0.0,0.0,0.0,0.0,0.0,0.0,0.0,0.0,0.0,0.0,0.0,0.0,0.0,0.0,0.0,0.0,0.0,0.0,0.0,0.0,0.0,0.0,0.0,0.0,0.0,0.0,0.0,0.0,0.0,0.0,0.0,0.0,0.0,0.0,0.0,0.0,0.0,0.0,0.0,0.0,0.0,0.0,0.0,0.0,0.0,0.0,0.0,0.0,0.0,0.0,-2.9082,-2.9101,-3.0742,-3.0781,-2.959,0.0,0.0,0.0,0.0,0.0,0.0,0.0,0.0,0.0,0.0,0.0,0.0,0.0,0.0,0.0,0.0,0.0,0.0,0.0,0.0,0.0,0.0,0.0,0.0,0.0,0.0,0.0,0.0,0.0,0.0,0.0,0.0,0.0,0.0,0.0,0.0,0.0,0.0,0.0,0.0,0.0,0.0,0.0,0.0,0.0,0.0,0.0,0.0,0.0,0.0,0.0,0.0,0.0,0.0,0.0,0.0,0.0,0.0,0.0,0.0,0.0,0.0,0.0,0.0,0.0,0.0,0.0,0.0,0.0,0.0,0.0,0.0,0.0,0.0,0.0,0.0,0.0,0.0,0.0,0.0,0.0,0.0,0.0,0.0,0.0,0.0,0.0,0.0,0.0,0.0,0.0,0.0,0.0,0.0,0.0,0.0,0.0,0.0,0.0,0.0,0.0,0.0,0.0,0.0,0.0,0.0,0.0,0.0,0.0,-2.7451,-2.8007,-2.9922,-3.3066,-3.0703,-2.8789,0.0,0.0,0.0,0.0,0.0,0.0,0.0,0.0,0.0,0.0,0.0,0.0,0.0,0.0,0.0,0.0,0.0,0.0,0.0,0.0,0.0,0.0,0.0,0.0,0.0,0.0,0.0,0.0,0.0,0.0,0.0,0.0,0.0,0.0,0.0,0.0,0.0,0.0,0.0,0.0,0.0,0.0,0.0,0.0,0.0,0.0,0.0,0.0,0.0,0.0,0.0,0.0,0.0,0.0,0.0,0.0,0.0,0.0,0.0,0.0,0.0,0.0,0.0,0.0,0.0,0.0,0.0,0.0,0.0,0.0,0.0,0.0,0.0,0.0,0.0,0.0,0.0,0.0,0.0,0.0,0.0,0.0,0.0,0.0,0.0,0.0,0.0,0.0,0.0,0.0,0.0,0.0,0.0,0.0,0.0,0.0,0.0,0.0,0.0,0.0,0.0,0.0,0.0,0.0,0.0,0.0,0.0,0.0,0.0,-2.7218,0.0,-3.107,0.0,-3.0664,-2.8359,0.0,0.0,0.0,0.0,0.0,0.0,0.0,0.0,0.0,0.0,0.0,0.0,0.0,0.0,0.0,0.0,0.0,0.0,0.0,0.0,0.0,0.0,0.0,0.0,0.0,0.0,0.0,0.0,0.0,0.0,0.0,0.0,0.0,0.0,0.0,0.0,0.0,0.0,0.0,0.0,0.0,0.0,0.0,0.0,0.0,0.0,0.0,0.0,0.0,0.0,0.0,0.0,0.0,0.0,0.0,0.0,0.0,0.0,0.0,0.0,0.0,0.0,0.0,0.0,0.0,0.0,0.0,0.0,0.0,0.0,0.0,0.0,0.0,0.0,0.0,0.0,0.0,0.0,0.0,0.0,0.0,0.0,0.0,0.0,0.0,0.0,0.0,0.0,0.0,0.0,0.0,0.0,0.0,0.0,0.0,0.0,0.0,0.0,0.0,0.0,0.0,0.0,0.0,0.0,0.0,0.0,0.0,0.0,-2.7126,-3.0411,-3.2186,-3.2305,-3.0838,-3.0776,-2.8437,0.0,0.0,0.0,0.0,0.0,0.0,0.0,0.0,0.0,0.0,0.0,0.0,0.0,0.0,0.0,0.0,0.0,0.0,0.0,0.0,0.0,0.0,0.0,0.0,0.0,0.0,0.0,0.0,0.0,0.0,0.0,0.0,0.0,0.0,0.0,0.0,0.0,0.0,0.0,0.0,0.0,0.0,0.0,0.0,0.0,0.0,0.0,0.0,0.0,0.0,0.0,0.0,0.0,0.0,0.0,0.0,0.0,0.0,0.0,0.0,0.0,0.0,0.0,0.0,0.0,0.0,0.0,0.0,0.0,0.0,0.0,0.0,0.0,0.0,0.0,0.0,0.0,0.0,0.0,0.0,0.0,0.0,0.0,0.0,0.0,0.0,0.0,0.0,0.0,0.0,0.0,0.0,0.0,0.0,0.0,0.0,0.0,0.0,0.0,0.0,0.0,0.0,0.0,0.0,0.0,0.0,0.0,0.0,0.0,-2.968,-3.0242,-3.1466,-3.3163,-2.9959,-2.7982,0.0,0.0,0.0,0.0,0.0,0.0,0.0,0.0,0.0,0.0,0.0,0.0,0.0,0.0,0.0,0.0,0.0,0.0,0.0,0.0,0.0,0.0,0.0,0.0,0.0,0.0,0.0,0.0,0.0,0.0,0.0,0.0,0.0,0.0,0.0,0.0,0.0,0.0,0.0,0.0,0.0,0.0,0.0,0.0,0.0,0.0,0.0,0.0,0.0,0.0,0.0,0.0,0.0,0.0,0.0,0.0,0.0,0.0,0.0,0.0,0.0,0.0,0.0,0.0,0.0,0.0,0.0,0.0,0.0,0.0,0.0,0.0,0.0,0.0,0.0,0.0,0.0,0.0,0.0,0.0,0.0,0.0,0.0,0.0,0.0,0.0,0.0,0.0,0.0,0.0,0.0,0.0,0.0,0.0,0.0,0.0,0.0,0.0,0.0,0.0,0.0,0.0,0.0,0.0,0.0,0.0,0.0,0.0,0.0,-3.0244,-3.1154,-3.2236,-3.3526,-3.0139,-2.824,-2.8062,0.0,0.0,0.0,0.0,0.0,0.0,0.0,0.0,0.0,0.0,0.0,0.0,0.0,0.0,0.0,0.0,0.0,0.0,0.0,0.0,0.0,0.0,0.0,0.0,0.0,0.0,0.0,0.0,0.0,0.0,0.0,0.0,0.0,0.0,0.0,0.0,0.0,0.0,0.0,0.0,0.0,0.0,0.0,0.0,0.0,0.0,0.0,0.0,0.0,0.0,0.0,0.0,0.0,0.0,0.0,0.0,0.0,0.0,0.0,0.0,0.0,0.0,0.0,0.0,0.0,0.0,0.0,0.0,0.0,0.0,0.0,0.0,0.0,0.0,0.0,0.0,0.0,0.0,0.0,0.0,0.0,0.0,0.0,0.0,0.0,0.0,0.0,0.0,0.0,0.0,0.0,0.0,0.0,0.0,0.0,0.0,0.0,0.0,0.0,0.0,0.0,0.0,0.0,0.0,0.0,0.0,0.0,0.0,-3.1698,-3.4138,-3.4293,-3.2053,-3.1017,-2.9058,0.0,0.0,0.0,0.0,0.0,0.0,0.0,0.0,0.0,0.0,0.0,0.0,0.0,0.0,0.0,0.0,0.0,0.0,0.0,0.0,0.0,0.0,0.0,0.0,0.0,0.0,0.0,0.0,0.0,0.0,0.0,0.0,0.0,0.0,0.0,0.0,0.0,0.0,0.0,0.0,0.0,0.0,0.0,0.0,0.0,0.0,0.0,0.0,0.0,0.0,0.0,0.0,0.0,0.0,0.0,0.0,0.0,0.0,0.0,0.0,0.0,0.0,0.0,0.0,0.0,0.0,0.0,0.0,0.0,0.0,0.0,0.0,0.0,0.0,0.0,0.0,0.0,0.0,0.0,0.0,0.0,0.0,0.0,0.0,0.0,0.0,0.0,0.0,0.0,0.0,0.0,0.0,0.0,0.0,0.0,0.0,0.0,0.0,0.0,0.0,0.0,0.0,0.0,0.0,0.0,0.0,0.0,0.0,0.0,-3.166,-3.2954,-3.3608,-3.3568,-3.0444,-2.8629,0.0,0.0,0.0,0.0,0.0,0.0,0.0,0.0,0.0,0.0,0.0,0.0,0.0,0.0,0.0,0.0,0.0,0.0,0.0,0.0,0.0,0.0,0.0,0.0,0.0,0.0,0.0,0.0,0.0,0.0,0.0,0.0,0.0,0.0,0.0,0.0,0.0,0.0,0.0,0.0,0.0,0.0,0.0,0.0,0.0,0.0,0.0,0.0,0.0,0.0,0.0,0.0,0.0,0.0,0.0,0.0,0.0,0.0,0.0,0.0,0.0,0.0,0.0,0.0,0.0,0.0,0.0,0.0,0.0,0.0,0.0,0.0,0.0,0.0,0.0,0.0,0.0,0.0,0.0,0.0,0.0,0.0,0.0,0.0,0.0,0.0,0.0,0.0,0.0,0.0,0.0,0.0,0.0,0.0,0.0,0.0,0.0,0.0,0.0,0.0,0.0,0.0,0.0,0.0,0.0,0.0,0.0,0.0,-2.9948,-3.1654,-3.2141,-3.2651,-3.3205,-3.0516,-2.8974,0.0,0.0,0.0,0.0,0.0,0.0,0.0,0.0,0.0,0.0,0.0,0.0,0.0,0.0,0.0,0.0,0.0,0.0,0.0,0.0,0.0,0.0,0.0,0.0,0.0,0.0,0.0,0.0,0.0,0.0,0.0,0.0,0.0,0.0,0.0,0.0,0.0,0.0,0.0,0.0,0.0,0.0,0.0,0.0,0.0,0.0,0.0,0.0,0.0,0.0,0.0,0.0,0.0,0.0,0.0,0.0,0.0,0.0,0.0,0.0,0.0,0.0,0.0,0.0,0.0,0.0,0.0,0.0,0.0,0.0,0.0,0.0,0.0,0.0,0.0,0.0,0.0,0.0,0.0,0.0,0.0,0.0,0.0,0.0,0.0,0.0,0.0,0.0,0.0,0.0,0.0,0.0,0.0,0.0,0.0,0.0,0.0,0.0,0.0,0.0,0.0,0.0,0.0,0.0,0.0,0.0,0.0,0.0,-2.9833,-3.1391,-3.1525,-3.1525,-3.141,-3.0635,-2.9538,0.0,0.0,0.0,0.0,0.0,0.0,0.0,0.0,0.0,0.0,0.0,0.0,0.0,0.0,0.0,0.0,0.0,0.0,0.0,0.0,0.0,0.0,0.0,0.0,0.0,0.0,0.0,0.0,0.0,0.0,0.0,0.0,0.0,0.0,0.0,0.0,0.0,0.0,0.0,0.0,0.0,0.0,0.0,0.0,0.0,0.0,0.0,0.0,0.0,0.0,0.0,0.0,0.0,0.0,0.0,0.0,0.0,0.0,0.0,0.0,0.0,0.0,0.0,0.0,0.0,0.0,0.0,0.0,0.0,0.0,0.0,0.0,0.0,0.0,0.0,0.0,0.0,0.0,0.0,0.0,0.0,0.0,0.0,0.0,0.0,0.0,0.0,0.0,0.0,0.0,0.0,0.0,0.0,0.0,0.0,0.0,0.0,0.0,0.0,0.0,0.0,0.0,0.0,0.0,0.0,0.0,0.0,0.0,-2.9261,-2.9646,-3.0333,-3.0352,-2.9684,-2.886,-2.8324,0.0,0.0,0.0,0.0,0.0,0.0,0.0,0.0,0.0,0.0,0.0,0.0,0.0,0.0,0.0,0.0,0.0,0.0,0.0,0.0,0.0,0.0,0.0,0.0,0.0,0.0,0.0,0.0,0.0,0.0,0.0,0.0,0.0,0.0,0.0,0.0,0.0,0.0,0.0,0.0,0.0,0.0,0.0,0.0,0.0,0.0,0.0,0.0,-2.5843,0.0,0.0,0.0,0.0,0.0,0.0,0.0,0.0,0.0,0.0,0.0,0.0,0.0,0.0,0.0,0.0,0.0,0.0,0.0,0.0,0.0,0.0,0.0,0.0,0.0,0.0,0.0,0.0,0.0,0.0,0.0,0.0,0.0,0.0,0.0,0.0,0.0,0.0,0.0,0.0,0.0,0.0,0.0,0.0,0.0,0.0,0.0,0.0,0.0,0.0,0.0,0.0,0.0,0.0,0.0,0.0,0.0,0.0,0.0,-2.8591,-2.9088,-2.9179,-2.9179,-2.9069,-2.8319,-2.7927,0.0,0.0,0.0,0.0,0.0,0.0,0.0,0.0,0.0,0.0,0.0,0.0,0.0,0.0,0.0,0.0,0.0,0.0,0.0,0.0,0.0,0.0,0.0,0.0,0.0,0.0,0.0,0.0,0.0,0.0,0.0,0.0,0.0,0.0,0.0,0.0,0.0,0.0,0.0,0.0,0.0,0.0,0.0,0.0,0.0,0.0,0.0,0.0,0.0,0.0,0.0,0.0,0.0,0.0,0.0,0.0,0.0,0.0,0.0,0.0,0.0,0.0,0.0,0.0,0.0,0.0,0.0,0.0,0.0,0.0,0.0,0.0,0.0,0.0,0.0,0.0,0.0,0.0,0.0,0.0,0.0,0.0,0.0,0.0,0.0,0.0,0.0,0.0,0.0,0.0,0.0,0.0,0.0,0.0,0.0,0.0,0.0,0.0,0.0,0.0,0.0,0.0,0.0,0.0,0.0,0.0,0.0,-2.7593,-2.7905,-2.8626,-2.8173,-2.8217,-2.8876,-2.8126,-2.778,-2.7876,0.0,0.0,0.0,0.0,0.0,0.0,0.0,0.0,0.0,0.0,0.0,0.0,0.0,0.0,0.0,0.0,0.0,0.0,0.0,0.0,0.0,0.0,0.0,0.0,0.0,0.0,0.0,0.0,0.0,0.0,0.0,0.0,0.0,0.0,0.0,0.0,0.0,0.0,-2.4538,-2.5264,0.0,0.0,0.0,0.0,0.0,0.0,0.0,0.0,-2.6477,0.0,0.0,0.0,0.0,0.0,0.0,0.0,0.0,0.0,0.0,0.0,0.0,0.0,0.0,0.0,0.0,0.0,0.0,0.0,0.0,0.0,0.0,0.0,0.0,0.0,0.0,0.0,0.0,0.0,0.0,0.0,0.0,0.0,0.0,0.0,0.0,0.0,0.0,0.0,0.0,0.0,0.0,0.0,0.0,0.0,0.0,0.0,0.0,0.0,0.0,0.0,0.0,0.0,0.0,0.0,0.0,-2.7046,-2.7409,-2.7332,-2.6784,-2.7508,-2.7953,-2.8088,-2.7274,-2.7159,-2.7818,0.0,0.0,0.0,0.0,0.0,0.0,0.0,0.0,0.0,0.0,0.0,0.0,0.0,0.0,0.0,0.0,0.0,0.0,0.0,0.0,0.0,0.0,0.0,0.0,0.0,0.0,0.0,0.0,0.0,0.0,0.0,0.0,0.0,0.0,0.0,0.0,0.0,0.0,0.0,-2.6888,-2.7412,0.0,0.0,0.0,0.0,0.0,0.0,0.0,0.0,-2.6599,0.0,0.0,0.0,0.0,0.0,0.0,0.0,0.0,0.0,0.0,0.0,0.0,0.0,0.0,0.0,0.0,0.0,0.0,0.0,0.0,0.0,0.0,0.0,0.0,0.0,0.0,0.0,0.0,0.0,0.0,0.0,0.0,0.0,0.0,0.0,0.0,0.0,0.0,0.0,0.0,0.0,0.0,0.0,0.0,0.0,0.0,0.0,0.0,0.0,0.0,0.0,0.0,0.0,0.0,0.0,-2.6426,-2.6553,-2.6446,-2.6169,-2.6244,-2.6683,-2.749,-2.6727,-2.6727,0.0,0.0,0.0,0.0,0.0,0.0,0.0,0.0,0.0,0.0,0.0,0.0,0.0,0.0,0.0,0.0,0.0,0.0,0.0,0.0,0.0,0.0,0.0,0.0,0.0,0.0,0.0,0.0,0.0,0.0,0.0,0.0,0.0,0.0,0.0,0.0,0.0,0.0,0.0,0.0,-2.6949,-2.7604,-2.8046,0.0,0.0,0.0,0.0,0.0,0.0,-2.7286,-2.7046,0.0,0.0,0.0,0.0,0.0,0.0,0.0,0.0,0.0,0.0,0.0,0.0,0.0,0.0,0.0,0.0,0.0,0.0,0.0,0.0,0.0,0.0,0.0,0.0,0.0,0.0,0.0,0.0,0.0,0.0,0.0,0.0,0.0,0.0,0.0,0.0,0.0,0.0,0.0,0.0,0.0,0.0,0.0,0.0,0.0,0.0,0.0,0.0,0.0,0.0,0.0,0.0,0.0,0.0,0.0,-2.5635,-2.5524,-2.5522,-2.5661,-2.5103,-2.5495,-2.6884,-2.6182,-2.6211,0.0,0.0,0.0,0.0,0.0,0.0,0.0,0.0,0.0,0.0,0.0,0.0,0.0,0.0,0.0,0.0,0.0,0.0,0.0,0.0,0.0,0.0,0.0,0.0,0.0,0.0,0.0,0.0,0.0,0.0,0.0,0.0,0.0,0.0,0.0,0.0,0.0,0.0,0.0,0.0,0.0,-2.7957,-2.8249,-2.7885,0.0,0.0,0.0,0.0,-2.8221,-2.8136,0.0,0.0,0.0,0.0,0.0,0.0,0.0,0.0,0.0,0.0,0.0,0.0,0.0,0.0,0.0,0.0,0.0,0.0,0.0,0.0,0.0,0.0,0.0,0.0,0.0,0.0,0.0,0.0,0.0,0.0,0.0,0.0,0.0,0.0,0.0,0.0,0.0,0.0,0.0,0.0,0.0,0.0,0.0,0.0,0.0,0.0,0.0,0.0,0.0,0.0,0.0,0.0,0.0,0.0,0.0,0.0,-2.4423,-2.4558,-2.4661,-2.4657,-2.4764,-2.5231,-2.6088,-2.5351,-2.5321,0.0,0.0,0.0,0.0,0.0,0.0,0.0,0.0,0.0,0.0,0.0,0.0,0.0,0.0,0.0,0.0,0.0,0.0,0.0,0.0,0.0,0.0,0.0,0.0,0.0,0.0,0.0,0.0,0.0,0.0,0.0,0.0,0.0,0.0,0.0,0.0,0.0,0.0,0.0,0.0,0.0,-2.9803,-2.8187,-2.8734,-2.9197,0.0,0.0,-2.8618,-2.9668,-2.9237,0.0,0.0,0.0,0.0,0.0,0.0,0.0,0.0,0.0,0.0,0.0,0.0,0.0,0.0,0.0,0.0,0.0,0.0,0.0,0.0,0.0,0.0,0.0,0.0,0.0,0.0,0.0,0.0,0.0,0.0,0.0,0.0,0.0,0.0,0.0,0.0,0.0,0.0,0.0,0.0,0.0,0.0,0.0,0.0,0.0,0.0,0.0,0.0,0.0,0.0,0.0,0.0,0.0,0.0,0.0,-2.3917,-2.3917,-2.3803,-2.3775,-2.3757,-2.4033,-2.457,-2.5345,-2.4772,-2.4903,0.0,0.0,0.0,0.0,0.0,0.0,0.0,0.0,0.0,0.0,0.0,0.0,0.0,0.0,0.0,0.0,0.0,0.0,0.0,0.0,0.0,0.0,0.0,0.0,0.0,0.0,0.0,0.0,0.0,0.0,0.0,0.0,0.0,0.0,0.0,0.0,0.0,0.0,0.0,0.0,0.0,0.0,-2.8835,-2.8877,0.0,0.0,0.0,-2.9512,-3.0015,0.0,0.0,0.0,0.0,0.0,0.0,0.0,0.0,0.0,0.0,0.0,0.0,0.0,0.0,0.0,0.0,0.0,0.0,0.0,0.0,0.0,0.0,0.0,0.0,0.0,0.0,0.0,0.0,0.0,0.0,0.0,0.0,0.0,0.0,0.0,0.0,0.0,0.0,0.0,0.0,0.0,0.0,0.0,0.0,0.0,0.0,0.0,0.0,0.0,0.0,0.0,0.0,0.0,0.0,0.0,0.0,0.0,-2.3577,-2.3335,-2.3189,-2.32,-2.3437,-2.3882,-2.444,-2.4124,0.0,0.0,0.0,0.0,0.0,0.0,0.0,0.0,0.0,0.0,0.0,0.0,0.0,0.0,0.0,0.0,0.0,0.0,0.0,0.0,0.0,0.0,0.0,0.0,0.0,0.0,0.0,-2.3099,0.0,0.0,0.0,0.0,0.0,0.0,0.0,0.0,0.0,0.0,0.0,0.0,0.0,0.0,-2.7969,-2.9265,-2.9127,-2.9452,0.0,0.0,-3.0267,-3.0362,-3.0381,-2.9595,0.0,0.0,0.0,0.0,0.0,0.0,0.0,0.0,0.0,0.0,0.0,0.0,0.0,0.0,0.0,0.0,0.0,0.0,0.0,0.0,0.0,0.0,0.0,0.0,0.0,0.0,0.0,0.0,0.0,0.0,0.0,0.0,0.0,0.0,0.0,0.0,0.0,0.0,0.0,0.0,0.0,0.0,0.0,0.0,0.0,0.0,0.0,0.0,0.0,0.0,0.0,0.0,0.0,0.0,0.0,-2.3224,-2.32,-2.3189,-2.3189,-2.3212,-2.3242,-2.3295,-2.3294,-2.3444,0.0,0.0,0.0,0.0,0.0,0.0,0.0,0.0,0.0,0.0,0.0,0.0,0.0,0.0,0.0,0.0,0.0,0.0,0.0,0.0,0.0,0.0,0.0,0.0,0.0,0.0,0.0,0.0,0.0,0.0,0.0,0.0,0.0,0.0,0.0,0.0,0.0,0.0,0.0,0.0,0.0,-2.8491,-2.8983,-2.9831,-3.0643,0.0,0.0,-3.0678,-3.1057,-3.1101,-3.0372,-2.8081,0.0,0.0,0.0,0.0,0.0,0.0,0.0,0.0,0.0,0.0,0.0,0.0,0.0,0.0,0.0,0.0,0.0,0.0,0.0,0.0,0.0,0.0,0.0,0.0,0.0,0.0,0.0,0.0,0.0,0.0,0.0,0.0,0.0,0.0,0.0,0.0,0.0,0.0,0.0,0.0,0.0,0.0,0.0,0.0,0.0,0.0,0.0,0.0,0.0,0.0,0.0,0.0,0.0,-2.2898,-2.2898,-2.2734,-2.2647,-2.2647,-2.2819,-2.288,-2.2885,-2.3076,-2.3259,0.0,0.0,0.0,0.0,0.0,0.0,0.0,0.0,0.0,0.0,0.0,0.0,0.0,0.0,0.0,0.0,0.0,0.0,0.0,0.0,0.0,0.0,0.0,0.0,0.0,0.0,0.0,0.0,-2.2768,-2.2786,-2.2347,0.0,0.0,0.0,0.0,0.0,0.0,0.0,0.0,0.0,0.0,-2.8423,-2.9517,-3.0037,0.0,0.0,-3.1074,-3.1011,-3.1179,-3.0818,-2.9905,-2.8094,-2.7046,0.0,0.0,0.0,0.0,0.0,0.0,0.0,0.0,0.0,0.0,0.0,0.0,0.0,0.0,0.0,0.0,0.0,0.0,0.0,0.0,0.0,0.0,0.0,0.0,0.0,0.0,0.0,0.0,0.0,0.0,0.0,0.0,0.0,0.0,0.0,0.0,0.0,0.0,0.0,0.0,0.0,0.0,0.0,0.0,0.0,0.0,0.0,0.0,0.0,0.0,0.0,0.0,-2.2573,-2.2573,-2.2402,-2.2313,-2.2313,-2.249,-2.2573,-2.2603,-2.2807,-2.2965,0.0,0.0,0.0,0.0,0.0,0.0,0.0,0.0,0.0,0.0,0.0,0.0,0.0,0.0,0.0,0.0,0.0,0.0,0.0,0.0,0.0,0.0,0.0,0.0,0.0,0.0,0.0,0.0,-2.2753,-2.2868,-2.2347,0.0,0.0,0.0,0.0,0.0,0.0,0.0,0.0,0.0,0.0,-2.8173,-2.9673,-3.0028,-3.0365,-3.0868,-3.1075,-3.119,-3.119,-3.0751,-2.9933,-2.8451,0.0,0.0,0.0,0.0,0.0,0.0,0.0,0.0,0.0,0.0,0.0,0.0,0.0,0.0,0.0,0.0,0.0,0.0,0.0,0.0,0.0,0.0,0.0,0.0,0.0,0.0,0.0,-2.1643,0.0,0.0,-2.1673,0.0,0.0,0.0,0.0,0.0,0.0,0.0,0.0,0.0,0.0,0.0,0.0,0.0,0.0,0.0,0.0,0.0,0.0,0.0,0.0,0.0,0.0,-2.231,-2.231,-2.2299,-2.2299,-2.2282,-2.231,-2.231,-2.231,-2.2324,-2.2436,-2.2695,0.0,0.0,0.0,0.0,0.0,0.0,0.0,0.0,0.0,0.0,0.0,0.0,0.0,0.0,0.0,0.0,0.0,0.0,0.0,0.0,0.0,0.0,0.0,0.0,0.0,0.0,-2.2369,-2.2313,-2.2333,0.0,0.0,0.0,0.0,0.0,0.0,0.0,0.0,0.0,0.0,-2.6785,-2.7742,-2.9211,-2.9903,-3.0281,-3.0314,-3.0797,-3.1188,-3.1185,-3.1154,-3.0746,0.0,0.0,0.0,0.0,0.0,0.0,0.0,0.0,0.0,0.0,0.0,0.0,0.0,0.0,0.0,0.0,0.0,0.0,0.0,0.0,0.0,0.0,0.0,0.0,0.0,0.0,0.0,-2.4011,-2.3126,0.0,0.0,0.0,0.0,0.0,0.0,0.0,0.0,0.0,0.0,0.0,-2.5651,-2.6184,0.0,0.0,0.0,0.0,0.0,0.0,0.0,0.0,0.0,0.0,0.0,0.0,-2.2275,-2.1858,-2.1998,-2.1873,-2.1463,-2.169,-2.1838,-2.184,-2.2135,-2.2335,-2.2409,0.0,0.0,0.0,0.0,0.0,0.0,0.0,0.0,0.0,0.0,0.0,0.0,0.0,0.0,0.0,0.0,0.0,0.0,0.0,0.0,0.0,0.0,0.0,0.0,0.0,-2.2725,0.0,0.0,0.0,0.0,0.0,0.0,0.0,0.0,0.0,0.0,0.0,-2.589,-2.6764,-2.7482,-2.8291,-2.9256,-2.9579,-2.9695,0.0,0.0,0.0,0.0,0.0,0.0,0.0,0.0,0.0,0.0,0.0,0.0,0.0,0.0,-3.0227,-2.77,-2.6828,-2.6506,-2.6541,0.0,0.0,0.0,0.0,0.0,0.0,0.0,0.0,0.0,0.0,0.0,0.0,0.0,0.0,-2.5116,0.0,-2.3771,0.0,0.0,0.0,0.0,0.0,0.0,0.0,0.0,-2.6879,-2.7072,-2.6576,-2.7088,-2.6795,0.0,-2.5576,-2.5083,0.0,0.0,0.0,0.0,0.0,0.0,0.0,0.0,-2.2053,-2.1465,-2.1794,-2.1677,-2.1055,-2.126,-2.1384,-2.1384,-2.1922,-2.2076,-2.1829,-2.1525,-2.1509,0.0,0.0,0.0,0.0,0.0,0.0,0.0,0.0,0.0,0.0,0.0,0.0,0.0,0.0,0.0,0.0,0.0,0.0,0.0,0.0,0.0,0.0,0.0,-2.2427,0.0,0.0,0.0,0.0,0.0,0.0,0.0,0.0,0.0,-2.4457,-2.5612,-2.6706,-2.725,-2.7741,-2.824,-2.8717,0.0,0.0,0.0,0.0,0.0,0.0,0.0,-3.0092,-3.0282,-2.9706,-2.9305,-2.9485,-3.057,-3.1367,-3.1083,0.0,0.0,-2.9286,-2.8459,-2.8101,-2.8138,-2.8708,-2.9053,-2.8645,-2.894,-2.8991,0.0,0.0,0.0,0.0,0.0,0.0,0.0,0.0,-2.6591,-2.6025,0.0,-2.4782,0.0,0.0,0.0,0.0,0.0,-2.592,0.0,0.0,-2.7521,-2.7585,-2.758,-2.758,-2.7537,-2.7427,-2.8022,-2.7531,-2.5964,-2.4017,0.0,0.0,0.0,0.0,0.0,0.0,-2.1693,-2.1054,-2.1627,-2.1627,-2.0958,-2.0975,-2.0975,-2.1023,-2.163,-2.1629,-2.1037,-2.2197,-2.2325,-2.1069,-2.1596,0.0,0.0,0.0,0.0,0.0,0.0,0.0,0.0,0.0,0.0,0.0,0.0,0.0,0.0,0.0,0.0,0.0,0.0,0.0,0.0,-2.2214,0.0,0.0,0.0,0.0,0.0,0.0,0.0,0.0,0.0,0.0,-2.5468,-2.6563,-2.7454,-2.7625,0.0,0.0,0.0,0.0,-2.8695,-2.933,-2.995,-3.0545,-3.1174,-3.1269,-3.1049,-3.0535,0.0,0.0,-3.0371,-3.0928,-3.1199,-3.0455,-3.1016,-3.1695,-3.2283,-3.1158,-3.0341,-3.0433,-2.9898,-2.949,-2.9606,-2.9669,-2.9435,-2.7328,0.0,0.0,0.0,0.0,-2.6663,-2.7358,-2.8135,-2.7645,-2.7131,-2.6602,-2.5766,0.0,0.0,0.0,0.0,0.0,0.0,-2.6609,-2.6868,-2.7345,-2.7585,-2.7585,-2.7585,-2.7595,-2.7548,-2.7285,-2.6879,-2.6359,-2.4876,-2.3719,-2.2897,0.0,0.0,0.0,0.0,-2.1884,-2.1262,-2.1114,-2.0752,-2.01,-2.0347,-2.0649,-2.0991,-2.1183,-2.1406,-2.166,-2.1749,-2.198,-2.2355,-2.1827,0.0,0.0,0.0,0.0,0.0,0.0,0.0,0.0,0.0,0.0,0.0,0.0,0.0,0.0,0.0,0.0,0.0,0.0,0.0,-2.1645,-2.1912,-2.2267,0.0,0.0,0.0,0.0,0.0,0.0,0.0,0.0,0.0,-2.761,-2.7584,-2.773,0.0,0.0,-2.7585,-2.7585,-2.776,-2.7936,-2.8102,-2.8693,0.0,-2.9358,-2.9388,-2.952,-2.9796,-2.9996,-3.0056,-2.9848,-3.0348,-3.07,-3.0473,-3.1011,-3.1447,-3.1149,-3.1192,-3.114,-3.1179,-3.1024,-3.0885,-3.0924,-3.0597,-3.0043,-2.7201,-2.678,-2.6109,-2.6051,-2.6397,-2.6567,-2.7187,-2.8037,-2.74,-2.6965,-2.6689,-2.5868,-2.4916,-2.396,-2.4327,0.0,0.0,0.0,-2.6126,-2.6126,-2.6858,-2.7178,-2.7188,-2.7458,-2.7585,-2.757,-2.6926,-2.6602,-2.6581,-2.5247,-2.4124,-2.3247,0.0,0.0,-2.2128,-2.2093,-2.1744,-2.1088,-2.0824,-2.0393,-1.9723,-1.9945,-2.0208,-2.0481,-2.0746,-2.1087,-2.1475,-2.1729,-2.2045,-2.2462,-2.2079,-2.1756,0.0,0.0,0.0,0.0,0.0,0.0,0.0,0.0,0.0,0.0,0.0,-2.1753,0.0,0.0,0.0,0.0,-2.1613,-2.1998,-2.2194,-2.2736,0.0,0.0,0.0,0.0,0.0,0.0,0.0,-2.7814,-2.7979,-2.8259,-2.8876,-2.8199,-2.7854,-2.8502,-2.8034,-2.7585,-2.7585,0.0,-2.7705,-2.7959,-2.8323,-2.8682,-2.8936,-2.8996,-2.9131,-2.952,-2.9621,-2.9621,-2.9621,-2.9909,-3.0133,-3.0193,-3.0492,-3.0627,-3.0208,-3.0492,-3.0733,-3.0761,-3.0761,-3.0733,-3.0746,-3.0417,-2.9953,-2.6879,-2.7512,-2.7049,-2.6862,-2.6906,-2.7072,-2.6772,-2.6205,-2.6352,-2.6034,-2.5467,-2.5425,-2.5053,-2.4474,-2.4474,0.0,-2.4488,-2.5122,-2.5412,-2.5439,-2.6095,-2.6388,-2.6385,-2.7023,-2.7329,-2.7269,-2.6659,-2.6376,-2.6292,-2.5063,-2.4127,-2.3539,-2.2914,-2.2526,-2.2306,-2.1927,-2.1425,-2.0887,-2.0722,-2.0318,-1.9723,-1.9723,-1.9723,-1.9723,-2.0303,-2.0647,-2.0718,-2.1894,-2.2313,-2.1814,-2.2313,-2.2089,-2.0961,0.0,0.0,0.0,0.0,0.0,0.0,0.0,0.0,0.0,0.0,0.0,0.0,0.0,0.0,0.0,-2.2582,0.0,-2.3668,-2.4231,0.0,0.0,0.0,-2.5113,-2.5854,-2.6956,-2.7887,-2.8513,0.0,0.0,-2.928,-2.8282,-2.7716,-2.8271,-2.7912,-2.7585,-2.7585,-2.7585,-2.7824,-2.8353,-2.8502,-2.8712,-2.9157,-2.925,-2.925,-2.9322,-2.9457,-2.9382,-2.9382,-2.9502,-2.9517,-2.949,-2.9577,-2.9579,-2.9562,-2.9562,-2.9517,-2.9472,-2.9562,-2.9651,-2.9669,-2.9621,-2.9325,-2.6337,-2.6095,-2.5966,-2.5961,-2.5942,-2.6241,-2.6253,-2.6153,-2.6329,-2.6298,-2.6146,-2.5633,-2.5315,-2.5136,-2.5149,-2.5149,-2.5191,-2.5343,-2.5398,-2.5398,-2.5591,-2.5422,-2.4974,-2.5145,-2.5036,-2.4648,-2.4467,-2.4396,-2.434,-2.353,-2.3068,-2.2884,-2.2254,-2.2162,-2.2571,-2.1994,-2.1894,-2.2203,-2.0726,-1.9854,-1.9723,-1.9723,-1.9723,-1.9723,-1.9857,-2.0183,-2.0673,-2.0987,-2.1575,-2.2403,-2.2149,-2.2029,-2.2188,-2.1261,0.0,0.0,0.0,0.0,0.0,0.0,0.0,0.0,0.0,-2.207,-2.0937,0.0,-2.2495,0.0,-2.3079,-2.3747,-2.4328,-2.4515,0.0,0.0,-2.6896,-2.736,-2.8502,-2.8353,-2.8216,-2.843,-2.7911,-2.7427,-2.7202,-2.6876,-2.6552,-2.6228,-2.6992,-2.7585,-2.7585,-2.7585,-2.7645,-2.7784,-2.7818,-2.7899,-2.8053,-2.8064,-2.8068,-2.8064,-2.8068,-2.8079,-2.8079,-2.8513,-2.8846,-2.8876,-2.9265,-2.9355,-2.8895,-2.8831,-2.8622,-2.8289,-2.8873,-2.9621,-2.9606,-2.9217,-2.8786,-2.4614,-2.4636,-2.4423,-2.4533,-2.4903,-2.5101,-2.5159,-2.5138,-2.5005,-2.4946,-2.492,-2.4514,-2.4381,-2.4381,-2.4381,-2.4381,-2.4381,-2.4381,-2.4381,-2.4381,-2.4753,-2.4597,-2.4028,-2.4352,-2.4206,-2.3701,-2.3398,-2.3247,-2.3206,-2.2574,-2.2259,-2.2246,-2.1876,-2.1894,-2.2213,-2.1621,-2.1619,-2.2245,-2.0611,-1.9742,-1.9742,-1.9488,-1.9445,-1.9673,-1.9479,-1.9527,-1.9891,-2.019,-2.0691,-2.1388,-2.1374,-2.1471,-2.1774,-2.1107,-2.0571,0.0,0.0,0.0,0.0,0.0,0.0,0.0,0.0,0.0,0.0,0.0,-2.2421,-2.2885,-2.3487,-2.422,-2.5153,-2.5483,-2.6124,-2.7214,-2.7589,-2.7963,-2.8467,-2.8354,-2.8164,-2.7925,-2.7295,-2.674,-2.6423,-2.6146,-2.5813,-2.5467,-2.6094,-2.6628,-2.6613,-2.6628,-2.6613,-2.6613,-2.689,-2.7126,-2.7111,-2.7126,-2.6982,-2.6692,-2.6628,-2.6733,-2.7034,-2.7394,-2.7659,-2.7715,-2.8218,-2.8352,-2.7411,-2.7459,-2.7433,-2.6939,-2.7205,-2.7927,-2.8562,-2.8423,-2.8092,-2.2604,-2.3193,-2.271,-2.2915,-2.3554,-2.3554,-2.3692,-2.3866,-2.3333,-2.3095,-2.3095,-2.3095,-2.3095,-2.3095,-2.3095,-2.3095,-2.3095,-2.3095,-2.3095,-2.3155,-2.3748,-2.3743,-2.3193,-2.3717,-2.3709,-2.3171,-2.2599,-2.2341,-2.23,-2.1732,-2.1459,-2.1448,-2.1459,-2.1496,-2.1564,-2.0967,-2.0941,-2.1433,-2.0456,-1.9894,-1.979,-1.9277,-1.919,-1.9561,-1.9141,-1.8884,-1.8812,-1.9414,-1.9815,-1.9936,-2.053,-2.0868,-2.0826,-2.0769,-2.0472,0.0,-1.9899,0.0,0.0,0.0,0.0,0.0,0.0,0.0,0.0,-2.1924,-2.2451,-2.3387,-2.4136,-2.5011,-2.6051,-2.6726,-2.7127,-2.7141,-2.7682,-2.7823,-2.7414,-2.7688,-2.7715,-2.711,-2.6483,-2.608,-2.5886,-2.5462,-2.5091,-2.5007,-2.5021,-2.5091,-2.5147,-2.5342,-2.5508,-2.5398,-2.5919,-2.6377,-2.6377,-2.6377,-2.6149,-2.5563,-2.5494,-2.5632,-2.627,-2.6392,-2.6392,-2.6445,-2.6884,-2.6896,-2.5618,-2.5974,-2.6177,-2.5632,-2.5591,-2.5976,-2.6992,-2.7277,-2.7082,-2.2026,-2.1786,-2.1695,-2.1487,-2.125,-2.125,-2.2008,-2.3258,-2.3158,-2.3095,-2.3095,-2.3095,-2.3095,-2.3095,-2.3095,-2.3095,-2.3095,-2.3095,-2.3095,-2.3095,-2.2808,-2.2388,-2.1843,-2.1537,-2.1118,-2.0553,-2.0386,-2.0348,-2.0348,-2.0246,-2.0156,-2.0156,-2.0181,-2.0434,-2.0906,0.0,0.0,0.0,-2.0436,-2.035,-1.9817,-1.9716,-1.9443,-1.9059,-1.8955,0.0,-1.8285,-1.8808,-1.9343,-1.9872,-2.0498,0.0,0.0,0.0,0.0,0.0,0.0,0.0,0.0,0.0,0.0,0.0,-2.141,-2.1621,-2.2212,-2.3627,-2.4614,-2.4819,-2.5835,-2.6548,-2.6795,-2.7402,-2.7803,-2.7834,-2.8022,-2.8111,-2.8,-2.7121,-2.6266,-2.5664,-2.4931,-2.4269,-2.3893,-2.3611,-2.356,-2.3607,-2.3531,-2.3531,-2.359,-2.4624,-2.5342,-2.5425,-2.5467,-2.5591,-2.5591,-2.5577,-2.5522,-2.5425,-2.5398,-2.5425,-2.5577,-2.5605,-2.5591,-2.5591,-2.5742,-2.5796,-2.5356,-2.5536,-2.548,-2.5412,-2.5342,-2.5481,-2.5755,-2.5796,-2.5614,-2.0227,0.0,-2.0379,-2.0456,0.0,-2.059,-2.1069,-2.1865,-2.1865,-2.1865,-2.1896,-2.231,-2.2506,-2.2506,-2.2914,-2.3095,-2.3095,-2.3095,-2.3095,-2.307,-2.2543,-2.202,-2.1468,-2.0943,-2.039,-1.9811,-1.9798,-1.9798,-1.9798,-1.9798,-1.9798,-1.9798,-1.9798,-1.9978,-2.027,-1.9978,-1.9825,-1.9806,-2.014,-2.0154,-1.9793,-1.9554,-1.938,-1.9333,-1.9096,0.0,0.0,0.0,0.0,0.0,0.0,0.0,0.0,0.0,0.0,-2.1114,-2.1066,-2.104,-2.1053,-2.1289,-2.1602,-2.1875,-2.2142,-2.2319,-2.2349,-2.3743,-2.4731,-2.499,-2.5809,-2.6427,-2.673,-2.7051,-2.715,-2.6873,-2.6884,-2.6749,-2.6162,-2.5506,-2.4839,-2.4266,-2.3814,-2.3421,-2.3145,-2.3095,-2.3095,-2.3095,-2.3095,-2.3095,-2.3155,-2.3767,-2.4288,-2.439,-2.442,-2.442,-2.442,-2.442,-2.4374,-2.4317,-2.4266,-2.4452,-2.4794,-2.4838,-2.4785,-2.4529,-2.4682,-2.4723,-2.3697,-2.374,-2.3905,-2.3575,-2.3477,-2.3464,-2.3533,-2.4258,-2.4654,-1.8438,-1.9077,-1.9077,-1.9497,-2.0139,-2.0139,-2.0139,-2.0171,0.0,0.0,0.0,-2.1365,-2.1647,-2.1721,-2.2537,-2.2884,-2.2927,-2.3035,-2.3095,-2.307,-2.2431,-2.1933,-2.1468,-2.0842,-2.0289,-1.9811,-1.9798,-1.9798,-1.9798,-1.9798,-1.9798,-1.9798,-1.9798,-1.9798,-1.9798,-1.9798,-1.9798,-1.9798,-1.9798,-1.9798,-1.9786,-1.9359,-1.9306,-1.964,-1.9233,-1.8956,-1.8865,-1.8956,-1.9021,-1.8998,-1.918,-1.9701,-2.0575,-2.0706,-2.0977,-2.1461,-2.1581,-2.1631,-2.1631,-2.1719,-2.197,-2.2393,-2.2844,-2.2907,-2.2456,-2.3489,-2.4299,-2.475,-2.5372,-2.5933,-2.6311,-2.6336,-2.6109,-2.5523,-2.5372,-2.4965,-2.4174,-2.3891,-2.3696,-2.3195,-2.315,-2.3108,-2.3108,-2.3095,-2.3095,-2.3095,-2.3095,-2.3045,-2.2982,-2.2997,-2.3047,-2.3061,-2.3083,-2.307,-2.307,-2.307,-2.2998,-2.2866,-2.2833,-2.3073,-2.3586,-2.3817,-2.3607,-2.3162,-2.358,-2.3203,-2.1944,-2.2085,-2.2199,-2.1633,-2.1481,-2.1483,-2.1504,-2.2654,-2.3366,-1.8076,-1.8168,-1.8168,-1.8236,-1.8361,-1.8371,-1.8361,-1.8496,-1.9955,-2.059,-2.0623,-2.0719,-2.0782,-2.0814,-2.169,-2.2075,-2.2106,-2.2793,-2.3095,-2.3045,-2.2071,-2.1597,-2.1443,-2.0413,-1.9874,-1.9811,-1.9798,-1.9798,-1.9798,-1.9798,-1.9798,-1.9798,-1.9798,-1.9798,-1.9798,-1.9798,-1.9798,-1.9798,-1.9798,-1.9798,-1.9798,-1.9736,-1.9497,-1.9144,-1.9056,-1.8778,-1.8347,-1.8753,-1.9005,-1.903,-1.9927,-2.0547,-2.0672,-2.1127,-2.1413,-2.1521,-2.1933,-2.2196,-2.2209,-2.2606,-2.2907,-2.2982,-2.307,-2.307,-2.3032,-2.4023,-2.4713,-2.4825,-2.5737,-2.6197,-2.5799,-2.5737,-2.5536,-2.4983,-2.4506,-2.4142,-2.3966,-2.3565,-2.3233,-2.312,-2.3095,-2.3095,-2.3095,-2.3095,-2.3095,-2.3095,-2.3045,-2.2907,-2.2485,-2.2422,-2.2225,-2.1885,-2.1762,-2.1789,-2.1845,-2.1789,-2.1837,-2.175,-2.1782,-2.1901,-2.2084,-2.2127,-2.2064,-2.1815,-2.1999,-2.1824,-2.143,-2.1564,-2.1534,-2.1355,-2.1343,-2.1295,-2.0893,-2.1189,-2.1282,-1.8008,-1.8008,-1.8008,-1.8008,-1.8008,-1.8008,-1.8008,-1.8076,-1.8854,-1.9199,-1.9243,-1.9683,-1.989,-1.9977,-2.0814,-2.1207,-2.1207,-2.1573,-2.1741,-2.1646,-2.0665,-2.0423,-2.0669,-1.9714,-1.9397,-1.9773,-1.9798,-1.9798,-1.9798,-1.9798,-1.9798,-1.9798,-1.9798,-1.9798,-1.9798,-1.9798,-1.9798,-1.9798,-1.9798,-1.9798,-1.9798,-1.9798,-1.9698,-1.9421,-1.9421,-1.9334,-1.9095,-1.9284,-1.9597,-1.9911,-2.0415,-2.0968,-2.1518,-2.1794,-2.2083,-2.233,-2.2594,-2.2732,-2.2732,-2.2957,-2.3095,-2.3095,-2.3095,-2.3246,-2.359,-2.4343,-2.4913,-2.5234,-2.6034,-2.6248,-2.5661,-2.5586,-2.5272,-2.4456,-2.4142,-2.3879,-2.3565,-2.3296,-2.3108,-2.3095,-2.3095,-2.3095,-2.3095,-2.3095,-2.3095,-2.3083,-2.2882,-2.2355,-2.1581,-2.1418,-2.1343,-2.1131,-2.1069,-2.1069,-2.1069,-2.1069,-2.1194,-2.143,-2.1481,-2.1481,-2.1481,-2.1481,-2.1355,-2.1131,-2.1041,-2.093,-2.069,-2.0564,-2.0564,-2.0564,-2.0577,-2.0439,-2.025,-2.0226,-2.0226,-1.8008,-1.8008,-1.8008,-1.8008,-1.8008,-1.8008,-1.8008,-1.8008,-1.8008,-1.8008,-1.811,-1.8721,-1.9011,-1.911,-1.9922,-2.0301,-2.0333,-2.0526,-2.0623,-2.049,-1.9571,-1.9408,-1.979,-1.8916,-1.8753,-1.9254,-1.9307,-1.9281,-1.9307,-1.9307,-1.9385,-1.9527,-1.9553,-1.9643,-1.9798,-1.9631,-1.9553,-1.9553,-1.9397,-1.9475,-1.9798,-1.9798,-1.9798,-1.9798,-1.9798,-1.9721,-1.9553,-1.9553,-1.9673,-1.9998,-2.0392,-2.1008,-2.1815,-2.2272,-2.2669,-2.3045,-2.3095,-2.3095,-2.3095,-2.3095,-2.3095,-2.3095,-2.3095,-2.3358,-2.3941,-2.4381,-2.4876,-2.5523,-2.6009,-2.6047,-2.5511,-2.541,-2.4983,-2.3966,-2.3816,-2.3597,-2.3195,-2.3095,-2.3095,-2.3095,-2.3095,-2.3095,-2.3095,-2.3095,-2.3032,-2.2857,-2.2472,-2.1732,-2.0918,-2.0603,-2.0503,-2.0503,-2.0503,-2.049,-2.0503,-2.049,-2.0666,-2.1066,-2.1066,-2.1004,-2.1016,-2.1066,-2.0993,-2.0578,-2.049,-2.0352,-1.9911,-1.9836,-1.9874,-1.9924,-1.9936,-1.9823,-1.9673,-1.9635,-1.971,-1.8008,-1.8008,-1.8008,-1.8008,-1.8008,-1.8008,-1.8008,-1.8008,-1.8008,-1.8008,-1.8042,-1.8076,-1.8134,-1.8236,-1.9044,-1.9431,-1.9464,-2.0236,-2.0558,-2.0415,-1.9571,-1.9141,-1.9093,-1.8188,-1.7743,-1.7852,-1.7879,-1.7922,-1.7934,-1.7879,-1.8178,-1.8715,-1.8794,-1.9123,-1.9605,-1.9123,-1.8794,-1.8794,-1.8151,-1.8447,-1.9721,-1.9798,-1.9798,-1.9798,-1.9773,-1.9475,-1.8821,-1.8794,-1.8513,-1.8087,-1.9528,-2.0485,-2.0706,-2.2103,-2.3015,-2.3065,-2.3065,-2.3095,-2.3065,-2.3095,-2.3035,-2.3095,-2.303,-2.328,-2.386,-2.3992,-2.4519,-2.5327,-2.5615,-2.5448,-2.4938,-2.4895,-2.4412,-2.3421,-2.3246,-2.3158,-2.312,-2.3095,-2.3095,-2.3095,-2.3095,-2.3095,-2.3095,-2.3058,-2.2857,-2.2393,-2.1907,-2.133,-2.0717,-2.0251,-1.9974,-1.9924,-1.9899,-1.9924,-1.9936,-1.9886,-2.0012,-2.0049,-1.9999,-2.0087,-2.015,-2.0112,-1.9936,-2.0125,-1.9949,-1.9899,-1.9861,-1.9798,-1.9798,-1.9798,-1.9773,-1.9673,-1.9233,-1.9133,-1.9284,-1.8008,-1.8008,-1.8008,-1.8008,-1.8008,-1.8008,-1.8008,-1.8008,-1.8008,-1.8008,-1.8008,-1.8008,-1.8008,-1.8052,-1.8371,-1.8529,-1.8563,-1.8921,-1.9077,-1.9015,-1.8382,-1.8186,-1.8246,-1.7675,-1.7429,-1.7589,-1.7605,-1.7605,-1.7605,-1.7605,-1.777,-1.8004,-1.8043,-1.8205,-1.8474,-1.8205,-1.8031,-1.8031,-1.777,-1.7907,-1.8421,-1.8501,-1.8489,-1.8501,-1.8501,-1.8382,-1.8097,-1.8058,-1.8071,-1.8177,-1.9102,-1.9782,-2.0093,-2.1082,-2.1616,-2.1604,-2.1604,-2.1616,-2.1604,-2.1604,-2.1604,-2.1635,-2.1855,-2.221,-2.2744,-2.2556,-2.3013,-2.449,-2.4979,-2.5034,-2.4788,-2.4544,-2.3985,-2.3271,-2.3095,-2.3095,-2.3095,-2.3095,-2.3095,-2.3095,-2.3095,-2.3095,-2.3045,-2.2819,-2.2435,-2.1895,-2.1383,-2.0855,-2.0277,-1.9936,-1.9836,-1.9798,-1.9798,-1.9798,-1.9798,-1.9798,-1.9798,-1.9798,-1.9798,-1.9798,-1.9798,-1.9798,-1.9811,-1.9798,-1.9798,-1.9798,-1.9811,-1.9798,-1.9798,-1.9798,-1.9798,-1.9723,-1.9522,-1.9221,-1.9271,-1.8008,-1.8008,-1.8008,-1.8008,-1.8008,-1.8008,-1.8008,-1.8008,-1.8008,-1.8008,-1.8008,-1.8008,-1.8008,-1.8008,-1.8008,-1.8008,-1.8008,-1.8008,-1.8008,-1.7959,-1.7578,-1.7429,-1.7461,-1.7092,-1.6932,-1.6976,-1.6957,-1.7006,-1.6996,-1.6985,-1.7107,-1.7246,-1.7302,-1.7413,-1.7578,-1.744,-1.7302,-1.7274,-1.7107,-1.6985,-1.6985,-1.6996,-1.7191,-1.755,-1.7605,-1.7523,-1.7302,-1.7302,-1.7383,-1.7658,-1.8364,-1.8967,-1.9362,-2.0148,-2.059,-2.059,-2.059,-2.059,-2.059,-2.059,-2.059,-2.0613,-2.0894,-2.1252,-2.1599,-2.153,-2.2258,-2.3937,-2.4292,-2.4381,-2.4544,-2.423,-2.3766,-2.3195,-2.3095,-2.3095,-2.3095,-2.3095,-2.3095,-2.3095,-2.3095,-2.3095,-2.3032,-2.2656,-2.2146,-2.1594,-2.1056,-2.0478,-1.9949,-1.9811,-1.9798,-1.9798,-1.9798,-1.9798,-1.9798,-1.9798,-1.9798,-1.9798,-1.9798,-1.9798,-1.9798,-1.9798,-1.9798,-1.9798,-1.9798,-1.9798,-1.9798,-1.9798,-1.9798,-1.9798,-1.9798,-1.9736,-1.9484,-1.9208,-1.9196,-1.8008,-1.8008,-1.8008,-1.8008,-1.8008,-1.8008,-1.8008,-1.8008,-1.8008,-1.8008,-1.8008,-1.8008,-1.8008,-1.8008,-1.8008,-1.8008,-1.8008,-1.8008,-1.8008,-1.7969,-1.7607,-1.7158,-1.6719,-1.6331,-1.5979,-1.583,-1.5849,-1.5741,-1.5614,-1.5604,-1.5864,-1.651,-1.6539,-1.6866,-1.7302,-1.6838,-1.6549,-1.6482,-1.5979,-1.5584,-1.5546,-1.5555,-1.6255,-1.7363,-1.755,-1.7191,-1.6652,-1.6549,-1.6285,-1.5595,-1.7182,-1.8068,-1.8224,-1.9635,-2.0494,-2.0494,-2.0526,-2.0558,-2.0494,-2.0462,-2.0462,-2.0505,-2.0498,-2.0773,-2.103,-2.1423,-2.2259,-2.3962,-2.3345,-2.3269,-2.3791,-2.3873,-2.3672,-2.3183,-2.3095,-2.3095,-2.3095,-2.3095,-2.3095,-2.3095,-2.3095,-2.3095,-2.3083,-2.2631,-2.2108,-2.1556,-2.1031,-2.0478,-1.9987,-1.9798,-1.9798,-1.9798,-1.9798,-1.9798,-1.9798,-1.9798,-1.9798,-1.9798,-1.9798,-1.9798,-1.9798,-1.9798,-1.9798,-1.9798,-1.9798,-1.9798,-1.9798,-1.9798,-1.9798,-1.9798,-1.9798,-1.9698,-1.951,-1.9171,-1.9146,-1.7467,-1.8008,-1.8008,-1.8008,-1.8008,-1.8008,-1.8008,-1.8008,-1.8008,-1.8008,-1.8008,-1.8008,-1.8008,-1.8008,-1.8008,-1.8008,-1.8008,-1.8008,-1.8008,-1.7988,-1.7852,-1.7559,-1.7168,-1.7005,-1.668,-1.6278,-1.6219,-1.6103,-1.588,-1.586,-1.5822,-1.5778,-1.5777,-1.595,-1.6112,-1.595,-1.5806,-1.5787,-1.5497,-1.542,-1.5439,-1.542,-1.581,-1.6559,-1.6341,-1.6073,-1.5806,-1.5806,-1.5661,-1.542,-1.6556,-1.718,-1.7261,-1.8298,-1.8954,-1.8954,-1.8944,-1.8944,-1.8944,-1.8944,-1.8944,-1.8952,-1.9466,-1.9741,-1.9692,-2.0209,-2.0998,-2.164,-2.143,-2.1415,-2.2174,-2.2914,-2.3346,-2.3158,-2.3095,-2.3065,-2.3095,-2.3095,-2.3095,-2.3095,-2.3095,-2.3095,-2.3007,-2.2619,-2.2108,-2.1556,-2.1043,-2.0464,-1.9974,-1.9811,-1.981,-1.9811,-1.9798,-1.9798,-1.9798,-1.9798,-1.9798,-1.9798,-1.9798,-1.9798,-1.9798,-1.9798,-1.9798,-1.9798,-1.9798,-1.9798,-1.9798,-1.9798,-1.9798,-1.9798,-1.9798,-1.9736,-1.956,-1.9309,-1.9296,-1.6715,-1.7467,-1.7545,-1.7716,-1.8008,-1.8008,-1.8008,-1.8008,-1.8008,-1.8008,-1.8008,-1.8008,-1.8008,-1.8008,-1.8008,-1.8008,-1.8008,-1.8008,-1.8008,-1.8008,-1.8008,-1.7783,-1.7432,-1.7416,-1.7158,-1.6746,-1.6697,-1.6531,-1.6289,-1.6163,-1.5938,-1.5684,-1.5615,-1.5615,-1.5625,-1.5625,-1.5674,-1.5751,-1.5703,-1.5684,-1.5781,-1.584,-1.5967,-1.6222,-1.5986,-1.581,-1.581,-1.58,-1.581,-1.5898,-1.6553,-1.7002,-1.7155,-1.7686,-1.8008,-1.8008,-1.8008,-1.8008,-1.8008,-1.8008,-1.8066,-1.8213,-1.8711,-1.9004,-1.9043,-1.971,-2.0382,-2.0787,-2.0772,-2.0832,-2.1386,-2.2092,-2.243,-2.2389,-2.2537,-2.2567,-2.2329,-2.2267,-2.2402,-2.2628,-2.2944,-2.3078,-2.3002,-2.2315,-2.1765,-2.1358,-2.0563,-1.9855,-1.9937,-1.9807,-1.9807,-1.9943,-2.0254,-2.0225,-2.0135,-2.0085,-1.9922,-1.9886,-1.9798,-1.9798,-1.9798,-1.9798,-1.9798,-1.9798,-1.9798,-1.9798,-1.9798,-1.9798,-1.9773,-1.9773,-1.9798,-1.9761,-1.9635,-1.9509,-1.9509,-1.572,-1.6532,-1.6602,-1.7104,-1.7725,-1.794,-1.8008,-1.7896,-1.7974,-1.8008,-1.8008,-1.8008,-1.8008,-1.8008,-1.8008,-1.8008,-1.8008,-1.8008,-1.8008,-1.8008,-1.8008,-1.7812,-1.7451,-1.7451,-1.7266,-1.6853,-1.6755,-1.6736,-1.6687,-1.6418,-1.6183,-1.6114,-1.6095,-1.6105,-1.6105,-1.6105,-1.6269,-1.6465,-1.624,-1.629,-1.6629,-1.659,-1.6619,-1.6697,-1.6668,-1.6668,-1.6687,-1.6648,-1.658,-1.6658,-1.709,-1.7559,-1.7842,-1.7988,-1.8008,-1.8008,-1.8008,-1.8008,-1.8008,-1.8008,-1.8184,-1.8471,-1.8627,-1.9053,-1.9632,-2.0212,-2.0819,-2.1386,-2.1578,-2.1713,-2.1636,-2.1498,-2.1204,-2.082,-2.1447,-2.1553,-2.0974,-2.0675,-2.0942,-2.1772,-2.2384,-2.2987,-2.2754,-2.1892,-2.111,-2.0665,-1.975,-1.9063,-1.9724,-1.9669,-1.9773,-2.0103,-2.0278,-2.0217,-2.0313,-2.0388,-2.0174,-1.9974,-1.9861,-1.9798,-1.9798,-1.9798,-1.9798,-1.9798,-1.9501,-1.9501,-1.9397,-1.9371,-1.9423,-1.9423,-1.9579,-1.9721,-1.9723,-1.966,-1.9698,-1.4736,-1.5693,-1.6349,-1.6358,-1.6298,-1.7442,-1.7647,-1.7148,-1.7681,-1.8008,-1.8008,-1.8008,-1.8008,-1.8008,-1.8008,-1.8008,-1.8008,-1.8008,-1.8008,-1.8008,-1.8008,-1.7949,-1.7832,-1.7803,-1.7744,-1.7603,-1.7574,-1.7451,-1.7197,-1.7063,-1.6868,-1.6582,-1.6523,-1.6523,-1.6523,-1.6533,-1.6621,-1.6658,-1.657,-1.6611,-1.6687,-1.6707,-1.6843,-1.7148,-1.7187,-1.7305,-1.7568,-1.7019,-1.6716,-1.6726,-1.7148,-1.7578,-1.792,-1.8008,-1.8008,-1.8008,-1.8008,-1.8008,-1.8008,-1.8018,-1.8193,-1.8559,-1.8906,-1.917,-1.9512,-2.0212,-2.0569,-2.0649,-2.0532,-2.0527,-2.0565,-2.0726,-2.0698,-2.0616,-2.0846,-2.0933,-2.0526,-2.0558,-2.0707,-2.091,-2.1227,-2.1353,-2.1373,-2.082,-2.0543,-2.0185,-1.9537,-1.9369,-1.9283,-1.927,-1.9152,-1.9374,-1.9668,-2.0029,-2.0008,-2.0041,-1.9966,-1.9956,-1.9924,-1.9811,-1.9798,-1.9798,-1.9798,-1.9605,-1.9333,-1.9097,-1.898,-1.8874,-1.8859,-1.8939,-1.8965,-1.9254,-1.9669,-1.9669,-1.9449,-1.3738,-1.4665,-1.5261,-1.5438,-1.5305,-1.6515,-1.6645,-1.6254,-1.707,-1.7467,-1.751,-1.7862,-1.8008,-1.8008,-1.8008,-1.8008,-1.8008,-1.8008,-1.8008,-1.8008,-1.8008,-1.8008,-1.8008,-1.8008,-1.8008,-1.8008,-1.8008,-1.7881,-1.7617,-1.7484,-1.7236,-1.7012,-1.6941,-1.6973,-1.6941,-1.6973,-1.7031,-1.7126,-1.707,-1.7019,-1.7145,-1.7174,-1.7344,-1.7568,-1.7607,-1.7744,-1.7949,-1.7438,-1.7174,-1.7213,-1.748,-1.7754,-1.7988,-1.8008,-1.8008,-1.8008,-1.8008,-1.8008,-1.8008,-1.8008,-1.8281,-1.8754,-1.9131,-1.9463,-1.9783,-2.038,-2.0391,-2.0225,-2.0194,-2.0088,-2.0015,-2.0159,-2.0271,-2.0145,-2.0257,-2.0106,-1.9846,-1.9911,-2.0107,-2.0171,-2.0419,-2.0547,-2.059,-2.0225,-1.9997,-1.9595,-1.9178,-1.9188,-1.8907,-1.8933,-1.8901,-1.9002,-1.9454,-1.964,-1.9581,-1.9634,-1.973,-1.9855,-1.9987,-1.9874,-1.9798,-1.9798,-1.9773,-1.9319,-1.8992,-1.8608,-1.8447,-1.8124,-1.7988,-1.8151,-1.8286,-1.8447,-1.8688,-1.8741,-1.8661,-1.2842,-1.36,-1.3709,-1.4235,-1.4914,-1.5234,-1.5305,-1.5269,-1.6254,-1.6706,-1.6853,-1.7613,-1.8008,-1.8008,-1.8008,-1.8008,-1.8008,-1.8008,-1.8008,-1.8008,-1.8008,-1.8008,-1.8008,-1.8008,-1.8008,-1.8008,-1.8008,-1.7998,-1.791,-1.7637,-1.7412,-1.7422,-1.7422,-1.7422,-1.7412,-1.7412,-1.7578,-1.7793,-1.7578,-1.7598,-1.791,-1.7939,-1.7959,-1.7969,-1.7969,-1.7978,-1.7978,-1.791,-1.793,-1.7988,-1.7939,-1.7959,-1.8008,-1.8008,-1.8008,-1.8008,-1.8008,-1.8057,-1.8047,-1.8115,-1.8457,-1.9209,-1.9385,-1.9695,-2.037,-2.0527,-2.0586,-2.0537,-2.0546,-2.0352,-2.0019,-1.9938,-1.9767,-1.9393,-1.9573,-1.9295,-1.8344,-1.8828,-1.9177,-1.9375,-1.9911,-2.0398,-2.0171,-1.9595,-1.9288,-1.9017,-1.8342,-1.8344,-1.8668,-1.876,-1.8782,-1.8902,-1.8955,-1.8908,-1.8732,-1.871,-1.8797,-1.9009,-1.9259,-1.9373,-1.9404,-1.9443,-1.9149,-1.8744,-1.8412,-1.8089,-1.7743,-1.7357,-1.7274,-1.7468,-1.755,-1.755,-1.7743,-1.795,-1.8085,-1.2445,-1.2732,-1.3419,-1.3455,-1.3339,-1.4522,-1.4736,-1.4378,-1.5895,-1.6489,-1.6775,-1.7613,-1.7974,-1.8008,-1.8008,-1.8008,-1.8008,-1.8008,-1.8008,-1.8008,-1.8008,-1.8008,-1.8008,-1.8008,-1.8008,-1.8008,-1.8008,-1.8008,-1.7998,-1.7871,-1.7822,-1.7842,-1.7812,-1.7822,-1.7842,-1.7822,-1.7891,-1.7988,-1.792,-1.7871,-1.7969,-1.8008,-1.8008,-1.8008,-1.8008,-1.8008,-1.8008,-1.8008,-1.8008,-1.8008,-1.8008,-1.8008,-1.8008,-1.8008,-1.8008,-1.8008,-1.8018,-1.813,-1.8364,-1.8422,-1.8822,-1.9619,-1.9707,-1.999,-2.0537,-2.0615,-2.0615,-2.0615,-2.0605,-2.0381,-2.001,-1.9893,-1.9533,-1.8945,-1.8993,-1.8834,-1.8503,-1.8355,-1.8327,-1.8405,-1.862,-1.8787,-1.8787,-1.8654,-1.8428,-1.8341,-1.8146,-1.7899,-1.8338,-1.8415,-1.8361,-1.7938,-1.7849,-1.7864,-1.7827,-1.7768,-1.7838,-1.8001,-1.8224,-1.8472,-1.8566,-1.8678,-1.8156,-1.7574,-1.7375,-1.7093,-1.6746,-1.6358,-1.6528,-1.6729,-1.6782,-1.6838,-1.7357,-1.7677,-1.7638,-1.2305,-1.2335,-1.2879,-1.2806,-1.2445,-1.352,-1.3629,-1.3484,-1.4692,-1.5649,-1.6114,-1.701,-1.7647,-1.7974,-1.8008,-1.8008,-1.8008,-1.8008,-1.8008,-1.8008,-1.8008,-1.8008,-1.8008,-1.8008,-1.8008,-1.8008,-1.8008,-1.8008,-1.8008,-1.8008,-1.8008,-1.7988,-1.8008,-1.8008,-1.7988,-1.8008,-1.8008,-1.8008,-1.8008,-1.8008,-1.8008,-1.8008,-1.8008,-1.8008,-1.8008,-1.8008,-1.8008,-1.8008,-1.8008,-1.8008,-1.8008,-1.8008,-1.8008,-1.8008,-1.8008,-1.8008,-1.8008,-1.8159,-1.85,-1.8598,-1.9007,-1.9707,-1.9912,-2.0146,-2.0498,-2.0615,-2.0615,-2.0615,-2.0449,-2.0176,-1.9961,-1.9775,-1.9443,-1.9033,-1.875,-1.8539,-1.8373,-1.8144,-1.8027,-1.8008,-1.8008,-1.8008,-1.8008,-1.8008,-1.8008,-1.8042,-1.8066,-1.7978,-1.8066,-1.7978,-1.7842,-1.749,-1.7174,-1.7233,-1.7234,-1.7147,-1.7248,-1.7401,-1.7307,-1.7534,-1.7614,-1.7756,-1.7375,-1.6822,-1.6492,-1.6178,-1.5963,-1.5717,-1.5693,-1.5835,-1.5965,-1.6159,-1.6571,-1.6742,-1.6775,-1.2305,-1.2305,-1.2305,-1.2305,-1.2305,-1.2305,-1.2482,-1.2519,-1.3448,-1.4422,-1.534,-1.621,-1.7217,-1.8008,-1.8008,-1.8008,-1.8008,-1.8008,-1.8008,-1.8008,-1.8008,-1.8008,-1.8008,-1.8008,-1.8008,-1.8008,-1.8008,-1.8008,-1.8008,-1.8008,-1.8008,-1.8008,-1.8008,-1.8008,-1.8008,-1.8008,-1.8008,-1.8008,-1.8008,-1.8008,-1.8008,-1.8008,-1.8008,-1.8008,-1.8008,-1.8008,-1.8008,-1.8008,-1.8008,-1.8008,-1.8008,-1.8008,-1.8008,-1.8008,-1.8008,-1.8008,-1.8037,-1.8178,-1.8598,-1.8754,-1.9102,-1.9834,-1.9971,-2.0059,-2.0352,-2.043,-2.0391,-2.0312,-2.0098,-1.9902,-1.9619,-1.9375,-1.9102,-1.8887,-1.8701,-1.8364,-1.8115,-1.8008,-1.8008,-1.8008,-1.8008,-1.8008,-1.8008,-1.8008,-1.8008,-1.8008,-1.8008,-1.8008,-1.7939,-1.7842,-1.7617,-1.7266,-1.6971,-1.6713,-1.6657,-1.6601,-1.6753,-1.6873,-1.6614,-1.6645,-1.6634,-1.666,-1.6521,-1.6236,-1.5917,-1.5729,-1.5573,-1.536,-1.5243,-1.5252,-1.5551,-1.5476,-1.5408,-1.5394,-1.5396,-1.2305,-1.2305,-1.2305,-1.2305,-1.2305,-1.2305,-1.2305,-1.2378,-1.328,-1.4207,-1.5234,-1.6175,-1.7104,-1.8008,-1.8008,-1.8008,-1.8008,-1.8008,-1.8008,-1.8008,-1.8008,-1.8008,-1.8008,-1.8008,-1.8008,-1.8008,-1.8008,-1.8008,-1.8008,-1.8008,-1.8008,-1.8008,-1.8008,-1.8008,-1.8008,-1.8008,-1.8008,-1.8008,-1.8008,-1.8008,-1.8008,-1.8008,-1.8008,-1.8008,-1.8008,-1.8008,-1.8008,-1.8008,-1.8008,-1.8008,-1.8008,-1.8008,-1.8008,-1.8008,-1.8008,-1.8008,-1.8027,-1.834,-1.8945,-1.9121,-1.9482,-2.0165,-2.0019,-1.9941,-2.001,-2.0049,-1.9893,-1.9717,-1.9736,-1.9524,-1.8987,-1.8545,-1.8408,-1.8369,-1.8271,-1.8144,-1.8037,-1.8008,-1.8008,-1.8008,-1.8008,-1.8008,-1.8008,-1.8008,-1.8008,-1.8008,-1.7988,-1.7998,-1.7861,-1.7686,-1.7314,-1.6934,-1.6684,-1.6404,-1.6118,-1.6062,-1.6165,-1.6301,-1.6107,-1.5945,-1.5932,-1.5894,-1.5873,-1.5688,-1.5383,-1.5283,-1.5342,-1.5322,-1.5244,-1.5215,-1.5146,-1.5039,-1.4873,-1.4531,-1.4375,-1.2305,-1.2305,-1.2305,-1.2305,-1.2305,-1.2305,-1.2305,-1.2378,-1.2806,-1.3846,-1.5092,-1.5755,-1.6715,-1.794,-1.8008,-1.8008,-1.8008,-1.8008,-1.8008,-1.8008,-1.8008,-1.8008,-1.8008,-1.8008,-1.8008,-1.8008,-1.8008,-1.8008,-1.8008,-1.8008,-1.8008,-1.8008,-1.8008,-1.8008,-1.8008,-1.8008,-1.8008,-1.8008,-1.8008,-1.8008,-1.8008,-1.8008,-1.8008,-1.8008,-1.8008,-1.8008,-1.8008,-1.8008,-1.8008,-1.8008,-1.8008,-1.8008,-1.8008,-1.8008,-1.8008,-1.8008,-1.8018,-1.8291,-1.8809,-1.9014,-1.9238,-1.995,-1.9746,-1.9668,-1.9619,-1.9619,-1.9531,-1.9346,-1.9258,-1.8987,-1.8393,-1.8203,-1.8027,-1.8008,-1.8008,-1.8008,-1.8008,-1.8008,-1.8008,-1.8008,-1.8008,-1.8008,-1.8008,-1.7959,-1.7959,-1.793,-1.7646,-1.7637,-1.7539,-1.7324,-1.6894,-1.6533,-1.632,-1.6037,-1.5654,-1.5527,-1.5595,-1.569,-1.5679,-1.559,-1.5548,-1.5477,-1.5425,-1.5249,-1.5146,-1.5224,-1.5273,-1.5254,-1.5166,-1.5039,-1.4893,-1.4707,-1.4473,-1.4153,-1.4094,-1.2305,-1.2305,-1.2305,-1.2305,-1.2305,-1.2305,-1.2305,-1.2305,-1.2439,-1.3665,-1.5013,-1.5305,-1.6576,-1.7725,-1.8008,-1.8008,-1.8008,-1.8008,-1.8008,-1.8008,-1.8008,-1.8008,-1.8008,-1.8008,-1.8008,-1.8008,-1.8008,-1.8008,-1.8008,-1.8008,-1.8008,-1.8008,-1.8008,-1.8008,-1.8008,-1.8008,-1.8008,-1.8008,-1.8008,-1.8008,-1.8008,-1.8008,-1.8008,-1.8008,-1.8008,-1.8008,-1.8008,-1.8008,-1.8008,-1.8008,-1.8008,-1.8008,-1.8008,-1.8008,-1.8008,-1.8008,-1.8008,-1.8252,-1.8549,-1.8676,-1.8831,-1.9228,-1.9199,-1.9189,-1.9189,-1.917,-1.9092,-1.8945,-1.876,-1.8432,-1.8066,-1.8018,-1.8018,-1.8008,-1.8008,-1.8008,-1.8008,-1.8008,-1.8008,-1.8008,-1.7988,-1.7978,-1.7891,-1.7812,-1.7842,-1.7783,-1.748,-1.7256,-1.7158,-1.6943,-1.6514,-1.6221,-1.6026,-1.586,-1.5508,-1.542,-1.542,-1.542,-1.542,-1.5391,-1.5332,-1.5351,-1.5347,-1.5134,-1.5078,-1.5195,-1.5195,-1.5088,-1.498,-1.4824,-1.4648,-1.4473,-1.4153,-1.3812,-1.3909,-1.2305,-1.2305,-1.2305,-1.2305,-1.2305,-1.2305,-1.2305,-1.2452,-1.3025,-1.4091,-1.5128,-1.5965,-1.6749,-1.7681,-1.7974,-1.8008,-1.7974,-1.8008,-1.8008,-1.8018,-1.8037,-1.8057,-1.8018,-1.8076,-1.8047,-1.8008,-1.8037,-1.8057,-1.8008,-1.8008,-1.8047,-1.8018,-1.8037,-1.8047,-1.8018,-1.8008,-1.8008,-1.8008,-1.8008,-1.8008,-1.8008,-1.8008,-1.8008,-1.8018,-1.8047,-1.8066,-1.8037,-1.8018,-1.8008,-1.8008,-1.8008,-1.8008,-1.8008,-1.8008,-1.8008,-1.8008,-1.8008,-1.8184,-1.8451,-1.8568,-1.8812,-1.9082,-1.8945,-1.8724,-1.8715,-1.8695,-1.8633,-1.8389,-1.8252,-1.8096,-1.8027,-1.8008,-1.8008,-1.8008,-1.8008,-1.8008,-1.8008,-1.8008,-1.8008,-1.8008,-1.7978,-1.7832,-1.7627,-1.7461,-1.7402,-1.7275,-1.7012,-1.6855,-1.6787,-1.6533,-1.6202,-1.5958,-1.5772,-1.5596,-1.542,-1.542,-1.542,-1.542,-1.542,-1.542,-1.54,-1.54,-1.5322,-1.5205,-1.5195,-1.5312,-1.5225,-1.5049,-1.4902,-1.4852,-1.4551,-1.4241,-1.4075,-1.3929,-1.3968,-1.2305,-1.2305,-1.2305,-1.2305,-1.2305,-1.2305,-1.2305,-1.2372,-1.2813,-1.352,-1.4307,-1.4942,-1.5649,-1.6472,-1.7148,-1.751,-1.7906,-1.8008,-1.8008,-1.8037,-1.8178,-1.8193,-1.8096,-1.8169,-1.8286,-1.834,-1.833,-1.8193,-1.8022,-1.8217,-1.8213,-1.8052,-1.8159,-1.8198,-1.8057,-1.8008,-1.8027,-1.8027,-1.8018,-1.8008,-1.8008,-1.8008,-1.8008,-1.8047,-1.8188,-1.8286,-1.8295,-1.8295,-1.834,-1.8301,-1.8135,-1.8037,-1.8008,-1.8008,-1.8008,-1.8008,-1.8018,-1.8076,-1.8237,-1.8286,-1.8408,-1.8535,-1.8418,-1.833,-1.832,-1.8301,-1.8232,-1.8086,-1.8008,-1.8008,-1.8008,-1.8008,-1.8008,-1.8008,-1.8008,-1.8008,-1.8008,-1.8008,-1.7988,-1.7949,-1.7773,-1.7519,-1.7139,-1.7002,-1.6934,-1.6726,-1.6502,-1.6436,-1.6387,-1.6133,-1.585,-1.5752,-1.5576,-1.5518,-1.542,-1.542,-1.542,-1.542,-1.542,-1.542,-1.542,-1.542,-1.542,-1.5361,-1.541,-1.542,-1.5371,-1.5225,-1.5029,-1.4862,-1.4668,-1.4473,-1.4221,-1.4104,-1.4202,-1.2305,-1.2305,-1.2305,-1.2305,-1.2305,-1.2305,-1.2305,-1.2342,-1.2556,-1.3098,-1.3637,-1.4034,-1.4593,-1.5305,-1.6254,-1.7104,-1.794,-1.8008,-1.8008,-1.8096,-1.8364,-1.8408,-1.8223,-1.8354,-1.8559,-1.851,-1.8383,-1.8403,-1.8467,-1.8633,-1.8545,-1.8516,-1.8627,-1.8598,-1.8398,-1.8271,-1.8193,-1.8213,-1.8047,-1.8008,-1.8008,-1.8008,-1.8008,-1.8047,-1.8373,-1.8539,-1.8383,-1.85,-1.8451,-1.8334,-1.8149,-1.8008,-1.8008,-1.8008,-1.8008,-1.8008,-1.8008,-1.8008,-1.8018,-1.8037,-1.8096,-1.8154,-1.8047,-1.8027,-1.8037,-1.8076,-1.8027,-1.8008,-1.8008,-1.8008,-1.8008,-1.8008,-1.8008,-1.8008,-1.8008,-1.8008,-1.8008,-1.7978,-1.791,-1.7783,-1.7549,-1.7353,-1.7129,-1.6755,-1.6736,-1.6396,-1.6172,-1.5986,-1.5918,-1.5762,-1.5547,-1.5508,-1.5449,-1.5449,-1.542,-1.542,-1.542,-1.542,-1.542,-1.542,-1.542,-1.542,-1.542,-1.542,-1.542,-1.541,-1.54,-1.5312,-1.5019,-1.4862,-1.4833,-1.4697,-1.4492,-1.4504,-1.465,-1.2305,-1.2305,-1.2305,-1.2305,-1.2305,-1.2305,-1.2305,-1.2372,-1.3062,-1.3564,-1.3637,-1.4486,-1.4879,-1.5305,-1.6079,-1.707,-1.7745,-1.8008,-1.8037,-1.811,-1.8422,-1.8383,-1.8125,-1.8412,-1.8568,-1.8559,-1.8286,-1.8555,-1.8857,-1.9092,-1.915,-1.9072,-1.9092,-1.9141,-1.8965,-1.8588,-1.8734,-1.8896,-1.8369,-1.8008,-1.8008,-1.8008,-1.8008,-1.8115,-1.8334,-1.8481,-1.8286,-1.8432,-1.8471,-1.8193,-1.8076,-1.8008,-1.8008,-1.8008,-1.8008,-1.8008,-1.8008,-1.8008,-1.8008,-1.8008,-1.8008,-1.8008,-1.8008,-1.8008,-1.8008,-1.8008,-1.8008,-1.8008,-1.8008,-1.8008,-1.8008,-1.8008,-1.8008,-1.8008,-1.8008,-1.8008,-1.8008,-1.8008,-1.792,-1.7793,-1.7617,-1.7519,-1.7363,-1.6963,-1.656,-1.6172,-1.583,-1.5684,-1.5527,-1.5459,-1.542,-1.542,-1.542,-1.542,-1.542,-1.542,-1.542,-1.542,-1.542,-1.542,-1.542,-1.542,-1.542,-1.542,-1.542,-1.541,-1.54,-1.5244,-1.4951,-1.4893,-1.4951,-1.4883,-1.4756,-1.4893,-1.503,-1.2305,-1.2305,-1.2305,-1.2305,-1.2305,-1.2305,-1.2305,-1.2378,-1.2696,-1.2915,-1.2989,-1.3302,-1.381,-1.4557,-1.5367,-1.6431,-1.7399,-1.7865,-1.8164,-1.8276,-1.8461,-1.8373,-1.8159,-1.8373,-1.8588,-1.8549,-1.849,-1.873,-1.9131,-1.9277,-1.9277,-1.9336,-1.9502,-1.9482,-1.9326,-1.8822,-1.8734,-1.8646,-1.835,-1.8027,-1.8008,-1.8008,-1.8008,-1.8027,-1.8393,-1.8442,-1.8403,-1.8451,-1.8529,-1.8286,-1.8149,-1.8008,-1.8008,-1.8008,-1.8008,-1.8008,-1.8008,-1.8008,-1.8008,-1.8008,-1.8008,-1.8008,-1.8008,-1.8008,-1.8008,-1.8008,-1.8008,-1.8008,-1.8008,-1.8008,-1.8008,-1.8008,-1.8008,-1.8008,-1.8008,-1.8008,-1.8008,-1.8008,-1.7959,-1.7822,-1.7715,-1.7676,-1.7559,-1.7187,-1.6768,-1.6348,-1.6056,-1.586,-1.5625,-1.5439,-1.542,-1.542,-1.542,-1.542,-1.542,-1.542,-1.542,-1.542,-1.542,-1.542,-1.542,-1.542,-1.542,-1.541,-1.5439,-1.541,-1.54,-1.5322,-1.5166,-1.5146,-1.5146,-1.5088,-1.5049,-1.5127,-1.5273,-1.2305,-1.2305,-1.2305,-1.2305,-1.2305,-1.2305,-1.2305,-1.2305,-1.2342,-1.2305,-1.2305,-1.2409,-1.2981,-1.4019,-1.4994,-1.6104,-1.7407,-1.7825,-1.8154,-1.8373,-1.849,-1.8354,-1.8217,-1.8373,-1.8598,-1.8578,-1.8393,-1.874,-1.9082,-1.9199,-1.918,-1.9443,-1.9893,-1.9814,-1.9443,-1.9053,-1.8809,-1.8447,-1.8467,-1.8281,-1.8066,-1.8008,-1.8008,-1.8135,-1.8334,-1.8549,-1.8471,-1.8568,-1.8588,-1.8334,-1.8139,-1.8008,-1.8008,-1.8008,-1.8008,-1.8008,-1.8008,-1.8008,-1.8008,-1.8008,-1.8008,-1.8008,-1.8008,-1.8008,-1.8008,-1.8008,-1.8008,-1.8008,-1.8008,-1.8008,-1.8008,-1.8008,-1.8008,-1.8008,-1.8008,-1.8008,-1.8008,-1.8008,-1.8008,-1.7939,-1.7881,-1.792,-1.7744,-1.7393,-1.6992,-1.6574,-1.6271,-1.6046,-1.5781,-1.5566,-1.5449,-1.5449,-1.542,-1.542,-1.542,-1.542,-1.542,-1.5439,-1.5439,-1.542,-1.542,-1.542,-1.542,-1.541,-1.5555,-1.5748,-1.5911,-1.5661,-1.541,-1.5332,-1.5283,-1.5342,-1.5371,-1.5468,-1.5439,-1.2305,-1.2305,-1.2305,-1.2305,-1.2305,-1.2305,-1.2305,-1.2305,-1.2305,-1.2305,-1.2305,-1.2378,-1.3266,-1.4593,-1.51,-1.6132,-1.7812,-1.7959,-1.8071,-1.8217,-1.8344,-1.8276,-1.8208,-1.8315,-1.8529,-1.8481,-1.8295,-1.8584,-1.8994,-1.8877,-1.9219,-1.9795,-1.9971,-2.0059,-1.9795,-1.9268,-1.8691,-1.8428,-1.8535,-1.8525,-1.8184,-1.8008,-1.8008,-1.8096,-1.8315,-1.8432,-1.8081,-1.8344,-1.8412,-1.8154,-1.8066,-1.8018,-1.8008,-1.8008,-1.8008,-1.8008,-1.8096,-1.8105,-1.8115,-1.8047,-1.8008,-1.8008,-1.8008,-1.8008,-1.8008,-1.8008,-1.8008,-1.8008,-1.8008,-1.8008,-1.8008,-1.8008,-1.8008,-1.8008,-1.8008,-1.8008,-1.8008,-1.8008,-1.8008,-1.8008,-1.8008,-1.8008,-1.8008,-1.7676,-1.7383,-1.6985,-1.6572,-1.6338,-1.6055,-1.582,-1.5586,-1.5488,-1.543,-1.542,-1.542,-1.542,-1.542,-1.5526,-1.5584,-1.5497,-1.542,-1.5439,-1.5911,-1.5806,-1.5997,-1.6226,-1.6397,-1.6226,-1.5997,-1.5584,-1.5526,-1.5921,-1.5968,-1.6016,-1.5825,-1.2305,-1.2305,-1.2305,-1.2305,-1.2305,-1.2305,-1.2305,-1.2305,-1.2305,-1.2305,-1.2305,-1.2342,-1.2696,-1.3593,-1.4824,-1.5688,-1.6723,-1.7699,-1.8002,-1.8217,-1.8276,-1.813,-1.8071,-1.812,-1.8242,-1.8232,-1.8086,-1.8076,-1.8398,-1.851,-1.8734,-1.9189,-1.96,-1.9834,-1.9648,-1.9238,-1.8603,-1.8271,-1.8311,-1.8271,-1.8164,-1.8008,-1.8008,-1.8037,-1.8096,-1.8149,-1.8066,-1.812,-1.8125,-1.8057,-1.8018,-1.8008,-1.8008,-1.8008,-1.8027,-1.8076,-1.8198,-1.8325,-1.834,-1.8193,-1.8008,-1.8008,-1.8008,-1.8027,-1.8076,-1.8027,-1.8018,-1.8008,-1.8057,-1.8125,-1.8037,-1.8018,-1.8008,-1.8008,-1.8008,-1.8008,-1.8008,-1.8008,-1.8008,-1.8008,-1.8008,-1.8008,-1.8008,-1.7969,-1.7695,-1.7383,-1.698,-1.6629,-1.6375,-1.6113,-1.5879,-1.5664,-1.5596,-1.5449,-1.543,-1.542,-1.542,-1.5613,-1.5777,-1.5806,-1.5864,-1.6602,-1.6912,-1.6687,-1.6585,-1.6978,-1.7118,-1.6912,-1.6715,-1.65,-1.6585,-1.6866,-1.6828,-1.6602,-1.6376,-1.2305,-1.2305,-1.2305,-1.2305,-1.2305,-1.2305,-1.2305,-1.2305,-1.2305,-1.2305,-1.2305,-1.2305,-1.2696,-1.3448,-1.4458,-1.5831,-1.6705,-1.7549,-1.8041,-1.8188,-1.8154,-1.8018,-1.8008,-1.8027,-1.8066,-1.8008,-1.8008,-1.8047,-1.8105,-1.833,-1.85,-1.8666,-1.8809,-1.9102,-1.9277,-1.8958,-1.8393,-1.8081,-1.811,-1.8086,-1.8057,-1.8008,-1.8008,-1.8008,-1.8037,-1.8037,-1.8018,-1.8057,-1.8047,-1.8018,-1.8008,-1.8008,-1.8008,-1.8027,-1.8042,-1.8217,-1.8422,-1.8646,-1.8711,-1.8603,-1.8398,-1.8506,-1.8477,-1.8398,-1.8217,-1.8281,-1.8477,-1.8262,-1.8311,-1.8369,-1.834,-1.8369,-1.8291,-1.8266,-1.8047,-1.8008,-1.8008,-1.8008,-1.8008,-1.8008,-1.8008,-1.8008,-1.8008,-1.8008,-1.791,-1.7627,-1.7314,-1.7019,-1.6894,-1.6572,-1.6242,-1.6026,-1.584,-1.5625,-1.5449,-1.5508,-1.5643,-1.5979,-1.6169,-1.633,-1.6602,-1.7346,-1.7594,-1.7208,-1.7291,-1.777,-1.7988,-1.8004,-1.7786,-1.755,-1.7578,-1.7523,-1.733,-1.7135,-1.7107,-1.2305,-1.2305,-1.2305,-1.2305,-1.2305,-1.2305,-1.2305,-1.2305,-1.2305,-1.2305,-1.2305,-1.2372,-1.331,-1.4557,-1.5084,-1.6132,-1.7222,-1.7798,-1.8057,-1.8057,-1.8066,-1.8008,-1.8008,-1.8008,-1.8008,-1.8008,-1.8008,-1.8008,-1.8008,-1.8096,-1.8291,-1.8354,-1.8354,-1.8398,-1.8627,-1.8627,-1.8373,-1.8091,-1.8344,-1.8227,-1.8096,-1.8008,-1.8008,-1.8008,-1.8008,-1.8008,-1.8008,-1.8008,-1.8008,-1.8008,-1.8096,-1.8125,-1.8081,-1.8174,-1.833,-1.8588,-1.8656,-1.889,-1.9228,-1.9248,-1.9219,-1.9092,-1.8955,-1.8916,-1.8789,-1.8887,-1.8984,-1.8672,-1.8867,-1.9092,-1.9053,-1.8851,-1.8676,-1.8539,-1.834,-1.8262,-1.8291,-1.8154,-1.8184,-1.8144,-1.8057,-1.8008,-1.8008,-1.8008,-1.8008,-1.7832,-1.7578,-1.7402,-1.7305,-1.7031,-1.6682,-1.66,-1.6414,-1.6247,-1.6097,-1.5791,-1.5866,-1.6257,-1.6641,-1.694,-1.7263,-1.7813,-1.7868,-1.7688,-1.8058,-1.8608,-1.8939,-1.9202,-1.8794,-1.8394,-1.8043,-1.7907,-1.7743,-1.777,-1.7852,-1.2305,-1.2305,-1.2305,-1.2305,-1.2305,-1.2305,-1.2305,-1.2305,-1.2305,-1.2305,-1.2445,-1.2879,-1.3455,-1.4378,-1.5579,-1.6498,-1.706,-1.7862,-1.8008,-1.8008,-1.8008,-1.8008,-1.8008,-1.8008,-1.8008,-1.8008,-1.8008,-1.8008,-1.8008,-1.8008,-1.8047,-1.8091,-1.8135,-1.8071,-1.8159,-1.8178,-1.8105,-1.8013,-1.811,-1.8135,-1.8027,-1.8008,-1.8008,-1.8008,-1.8008,-1.8008,-1.8008,-1.8008,-1.8008,-1.8057,-1.8139,-1.8334,-1.8412,-1.8545,-1.8877,-1.9131,-1.9258,-1.9687,-2.001,-2.0136,-1.9871,-1.9551,-1.9346,-1.9307,-1.9121,-1.918,-1.916,-1.9141,-1.9268,-1.9375,-1.9189,-1.916,-1.9072,-1.9072,-1.8955,-1.8936,-1.8896,-1.8603,-1.8422,-1.8325,-1.8237,-1.8154,-1.812,-1.8303,-1.8361,-1.8428,-1.8255,-1.7888,-1.7729,-1.7465,-1.7142,-1.725,-1.72,-1.7012,-1.6835,-1.6775,-1.6898,-1.7368,-1.7656,-1.7841,-1.8167,-1.865,-1.8669,-1.8736,-1.9074,-1.9449,-1.9675,-1.9788,-1.9563,-1.9228,-1.8883,-1.8738,-1.8794,-1.8821,-1.8912,-1.2305,-1.2305,-1.2305,-1.2305,-1.2305,-1.2305,-1.2305,-1.2378,-1.2629,-1.2769,-1.2989,-1.3774,-1.4478,-1.5048,-1.5895,-1.6932,-1.7104,-1.7647,-1.8008,-1.8008,-1.8008,-1.8008,-1.8008,-1.8008,-1.8008,-1.8008,-1.8008,-1.8008,-1.8008,-1.8008,-1.8027,-1.8037,-1.8008,-1.8027,-1.8037,-1.8037,-1.8037,-1.8018,-1.8057,-1.8047,-1.8008,-1.8008,-1.8008,-1.8008,-1.8008,-1.8008,-1.8008,-1.8008,-1.8018,-1.811,-1.8344,-1.8598,-1.8744,-1.9014,-1.9346,-1.9551,-1.9902,-2.0244,-2.0478,-2.0546,-2.0233,-1.9883,-1.9774,-1.9648,-1.9609,-1.9707,-1.9648,-1.9619,-1.9629,-1.9687,-1.9697,-1.9705,-1.9502,-1.9512,-1.9385,-1.9365,-1.9347,-1.9017,-1.8891,-1.8748,-1.8621,-1.8493,-1.8448,-1.8563,-1.8777,-1.8877,-1.8957,-1.8586,-1.8269,-1.8112,-1.7953,-1.8041,-1.8238,-1.8304,-1.8156,-1.8006,-1.8197,-1.8525,-1.8704,-1.8849,-1.954,-2.0052,-1.9912,-1.9817,-2.0167,-2.0391,-2.0346,-2.031,-2.0145,-1.9944,-1.9716,-1.9705,-1.9823,-1.9695,-1.9527,-1.2305,-1.2305,-1.2305,-1.2305,-1.2305,-1.2415,-1.2415,-1.2482,-1.3346,-1.3745,-1.381,-1.4807,-1.5544,-1.6358,-1.6671,-1.7139,-1.7725,-1.794,-1.8008,-1.8008,-1.8008,-1.8008,-1.8008,-1.8008,-1.8008,-1.8008,-1.8008,-1.8008,-1.8008,-1.8008,-1.8008,-1.8008,-1.8008,-1.8008,-1.8008,-1.8008,-1.8008,-1.8008,-1.8008,-1.8008,-1.8008,-1.8008,-1.8008,-1.8008,-1.8008,-1.8066,-1.8096,-1.8125,-1.8144,-1.8291,-1.851,-1.8637,-1.8822,-1.9121,-1.9512,-2.0015,-2.0514,-2.0873,-2.0991,-2.1088,-2.1029,-2.0913,-2.0746,-2.0417,-2.0146,-2.0166,-2.0155,-2.0136,-2.0165,-2.0361,-2.0488,-2.0185,-1.9941,-1.9814,-1.9639,-1.9671,-1.9693,-1.9578,-1.9461,-1.9343,-1.9209,-1.9144,-1.9293,-1.9387,-1.9497,-1.965,-1.9716,-1.9431,-1.9177,-1.9243,-1.9091,-1.902,-1.9281,-1.9641,-1.9531,-1.9372,-1.9522,-1.9865,-1.9801,-1.9979,-2.0733,-2.1141,-2.0834,-2.0784,-2.1197,-2.1292,-2.1004,-2.0855,-2.0727,-2.0578,-2.0426,-2.0024,-1.9974,-1.9836,-1.9721,-1.2305,-1.2305,-1.2305,-1.2305,-1.2415,-1.3025,-1.3317,-1.3419,-1.4307,-1.4772,-1.4843,-1.5755,-1.6393,-1.6636,-1.7285,-1.7716,-1.7896,-1.8008,-1.8008,-1.8008,-1.8008,-1.8008,-1.8008,-1.8008,-1.8008,-1.8008,-1.8008,-1.8008,-1.8008,-1.8008,-1.8008,-1.8008,-1.8008,-1.8008,-1.8008,-1.8008,-1.8018,-1.8027,-1.8037,-1.8037,-1.8027,-1.8027,-1.8047,-1.8096,-1.8086,-1.8193,-1.8398,-1.8422,-1.8555,-1.8896,-1.9297,-1.9485,-1.9543,-1.9979,-2.0494,-2.1394,-2.2087,-2.2675,-2.2553,-2.1962,-2.1773,-2.2113,-2.1962,-2.1163,-2.0748,-2.0661,-2.0739,-2.0699,-2.0833,-2.1076,-2.1165,-2.0956,-2.0777,-2.0705,-2.0622,-2.0731,-2.0788,-2.0844,-2.0757,-2.0797,-2.0649,-2.016,-2.0293,-2.0236,-2.0333,-2.0526,-2.0526,-2.0333,-2.0139,-2.0215,-2.016,-2.0077,-2.0481,-2.0895,-2.0967,-2.0871,-2.1014,-2.1156,-2.1004,-2.0915,-2.1297,-2.155,-2.1503,-2.1606,-2.1794,-2.1681,-2.1418,-2.1305,-2.1282,-2.127,-2.1104,-2.0564,-2.0125,-2.0037,-1.9874,-1.2305,-1.2305,-1.2305,-1.2421,-1.2819,-1.4033,-1.4555,-1.4719,-1.5441,-1.5755,-1.5869,-1.674,-1.7139,-1.7251,-1.7716,-1.7974,-1.7974,-1.8008,-1.8008,-1.8008,-1.8008,-1.8008,-1.8008,-1.8008,-1.8008,-1.8008,-1.8008,-1.8008,-1.8008,-1.8008,-1.8008,-1.8008,-1.8008,-1.8008,-1.8008,-1.8027,-1.81,-1.812,-1.8154,-1.8135,-1.8154,-1.8154,-1.8184,-1.8354,-1.8359,-1.8471,-1.8809,-1.8841,-1.9062,-1.9326,-1.9687,-1.9893,-2.0074,-2.0607,-2.16,-2.2371,-2.2467,-2.2962,-2.2999,-2.244,-2.2739,-2.3073,-2.2999,-2.2478,-2.2103,-2.2006,-2.1697,-2.142,-2.1659,-2.1821,-2.1783,-2.1783,-2.1773,-2.179,-2.1903,-2.2054,-2.2142,-2.2289,-2.2404,-2.251,-2.2172,-2.1552,-2.1329,-2.1209,-2.1302,-2.171,-2.1896,-2.1791,-2.1479,-2.127,-2.1175,-2.106,-2.1642,-2.2177,-2.2181,-2.2019,-2.1981,-2.1927,-2.1843,-2.1818,-2.2008,-2.2146,-2.2272,-2.223,-2.2217,-2.2117,-2.2083,-2.1895,-2.182,-2.1807,-2.171,-2.1207,-2.0742,-2.0478,-2.0264,-1.2305,-1.2298,-1.2352,-1.2748,-1.3414,-1.5044,-1.5865,-1.6093,-1.6508,-1.6706,-1.6897,-1.7579,-1.7906,-1.7828,-1.7974,-1.8008,-1.8008,-1.8008,-1.8008,-1.8008,-1.8008,-1.8008,-1.8008,-1.8008,-1.8008,-1.8008,-1.8008,-1.8008,-1.8008,-1.8008,-1.8008,-1.8008,-1.8008,-1.8008,-1.8008,-1.8008,-1.8164,-1.8393,-1.8325,-1.8266,-1.8471,-1.8467,-1.8428,-1.8936,-1.8926,-1.8867,-1.917,-1.9307,-1.9355,-1.9531,-1.9717,-1.999,-2.0619,-2.1663,-2.2748,-2.3283,-2.3368,-2.3697,-2.3843,-2.3331,-2.3368,-2.3588,-2.3672,-2.3562,-2.3379,-2.2962,-2.2526,-2.2339,-2.2515,-2.2664,-2.2713,-2.2675,-2.2713,-2.2702,-2.2776,-2.3084,-2.3385,-2.3614,-2.3896,-2.3897,-2.3451,-2.289,-2.2721,-2.2647,-2.2399,-2.2887,-2.2823,-2.2793,-2.2598,-2.2218,-2.2063,-2.1908,-2.2329,-2.2743,-2.2747,-2.2621,-2.2655,-2.2619,-2.2498,-2.2535,-2.2569,-2.2782,-2.3045,-2.2857,-2.2631,-2.2819,-2.2807,-2.2573,-2.2359,-2.2363,-2.2204,-2.1842,-2.1504,-2.1243,-2.0871,-1.2305,-1.2358,-1.2741,-1.3389,-1.4283,-1.5391,-1.6348,-1.7063,-1.7475,-1.7604,-1.7716,-1.7862,-1.8008,-1.8008,-1.8008,-1.8008,-1.8008,-1.8008,-1.8008,-1.8008,-1.8008,-1.8008,-1.8008,-1.8008,-1.8008,-1.8008,-1.8008,-1.8008,-1.8008,-1.8008,-1.8008,-1.8008,-1.8008,-1.8008,-1.8018,-1.8027,-1.8237,-1.8637,-1.8666,-1.8744,-1.9092,-1.9053,-1.9053,-1.9072,-1.889,-1.917,-1.9443,-1.9639,-1.9922,-2.0234,-2.037,-2.0813,-2.1487,-2.325,-2.4217,-2.4636,-2.4874,-2.5063,-2.5016,-2.4624,-2.4552,-2.4957,-2.5111,-2.4779,-2.4409,-2.3854,-2.3514,-2.3368,-2.3404,-2.3551,-2.3661,-2.3661,-2.3697,-2.3661,-2.3697,-2.4156,-2.46,-2.4944,-2.5302,-2.5018,-2.4637,-2.4357,-2.4131,-2.3901,-2.3729,-2.3479,-2.3185,-2.3017,-2.2975,-2.275,-2.2689,-2.2598,-2.272,-2.301,-2.3045,-2.302,-2.2945,-2.2945,-2.2832,-2.2945,-2.3083,-2.3095,-2.3108,-2.3108,-2.3045,-2.3245,-2.3305,-2.308,-2.2916,-2.2993,-2.3067,-2.2853,-2.266,-2.2433,-2.1931,-1.2915,-1.3048,-1.3976,-1.4519,-1.4999,-1.5851,-1.6565,-1.7103,-1.7549,-1.7842,-1.7988,-1.8008,-1.8008,-1.8008,-1.8008,-1.8008,-1.8008,-1.8008,-1.8008,-1.8008,-1.8008,-1.8008,-1.8008,-1.8008,-1.8008,-1.8008,-1.8008,-1.8008,-1.8008,-1.8008,-1.8008,-1.8008,-1.8008,-1.8008,-1.8037,-1.8139,-1.8442,-1.8916,-1.9007,-1.9385,-1.9678,-1.9512,-1.9531,-1.9424,-1.9531,-1.9687,-1.993,-2.0098,-2.0312,-2.072,-2.0971,-2.2205,-2.3077,-2.4289,-2.5111,-2.5476,-2.5734,-2.6037,-2.606,-2.5873,-2.5546,-2.5886,-2.6129,-2.5616,-2.5652,-2.5122,-2.4731,-2.4612,-2.4981,-2.517,-2.5205,-2.5205,-2.5205,-2.5205,-2.5205,-2.5429,-2.5652,-2.5812,-2.598,-2.5856,-2.548,-2.5108,-2.4758,-2.4159,-2.3967,-2.3741,-2.3446,-2.3145,-2.312,-2.3095,-2.3095,-2.3095,-2.3095,-2.3095,-2.3083,-2.307,-2.3058,-2.3083,-2.3125,-2.3155,-2.3203,-2.3168,-2.3138,-2.3442,-2.3679,-2.3708,-2.3679,-2.3619,-2.3619,-2.3696,-2.3829,-2.3935,-2.378,-2.357,-2.3165,-1.386,-1.4019,-1.5232,-1.5567,-1.5391,-1.6287,-1.6685,-1.6804,-1.7266,-1.7686,-1.7978,-1.8008,-1.8008,-1.8008,-1.8008,-1.8008,-1.8008,-1.8008,-1.8008,-1.8008,-1.8008,-1.8008,-1.8008,-1.8008,-1.8008,-1.8008,-1.8008,-1.8008,-1.8008,-1.8008,-1.8008,-1.8008,-1.8008,-1.8008,-1.81,-1.8383,-1.8754,-1.9199,-1.9531,-2.0039,-2.0039,-1.9901,-1.9951,-2.0107,-2.0234,-2.0205,-2.0429,-2.0576,-2.0576,-2.1336,-2.1962,-2.3231,-2.4228,-2.5111,-2.5664,-2.606,-2.5838,-2.606,-2.6129,-2.5886,-2.5955,-2.6211,-2.6418,-2.6452,-2.6418,-2.6198,-2.5756,-2.5826,-2.6198,-2.6302,-2.6314,-2.6349,-2.6314,-2.6302,-2.6336,-2.6336,-2.6418,-2.6452,-2.6461,-2.6436,-2.616,-2.5737,-2.5322,-2.4695,-2.4293,-2.4042,-2.3715,-2.3358,-2.3133,-2.3108,-2.3095,-2.3095,-2.3095,-2.3095,-2.3095,-2.3155,-2.3185,-2.3245,-2.3275,-2.3292,-2.3442,-2.3813,-2.4105,-2.4279,-2.441,-2.441,-2.441,-2.441,-2.4423,-2.4423,-2.4824,-2.4994,-2.47,-2.4482,-2.4334,-1.4709,-1.4409,-1.5129,-1.5213,-1.5079,-1.6154,-1.6697,-1.6824,-1.7539,-1.7949,-1.7988,-1.8008,-1.8008,-1.8008,-1.8008,-1.8008,-1.8008,-1.8008,-1.8008,-1.8008,-1.8008,-1.8008,-1.8008,-1.8008,-1.8008,-1.8008,-1.8008,-1.8008,-1.8008,-1.8008,-1.8008,-1.8008,-1.8008,-1.8037,-1.8071,-1.8432,-1.888,-1.9365,-1.9775,-2.0185,-2.0478,-2.0351,-2.0176,-2.0292,-2.0351,-2.0195,-2.0225,-2.0439,-2.1018,-2.2,-2.3294,-2.4337,-2.5063,-2.5687,-2.6164,-2.6314,-2.6094,-2.6198,-2.6233,-2.6164,-2.6349,-2.6349,-2.6487,-2.6487,-2.6452,-2.6452,-2.6198,-2.6198,-2.6418,-2.6418,-2.6418,-2.6418,-2.6418,-2.6418,-2.6452,-2.6452,-2.6452,-2.6487,-2.6474,-2.6474,-2.6386,-2.621,-2.6135,-2.5511,-2.4996,-2.4657,-2.418,-2.381,-2.3446,-2.3296,-2.3195,-2.3246,-2.3296,-2.3095,-2.3095,-2.3245,-2.3305,-2.3365,-2.3619,-2.3975,-2.441,-2.4922,-2.5147,-2.5175,-2.5175,-2.5203,-2.5203,-2.5175,-2.5175,-2.5287,-2.5851,-2.6068,-2.5673,-2.5384,-2.5217]},{"header":{"parameterUnit":"m.s-1","parameterCategory":1,"la1":31.0,"la2":29.5877,"lo1":-88.7671,"lo2":-86.6584,"dy":0.0162,"dx":0.0185,"nx":115,"ny":88,"refTime":"2025-12-10T00:00:00:Z","depth":0,"parameterNumber":3,"parameterNumberName":"V-component_of_WINDS"},"data":[0.0,0.0,0.0,0.0,0.0,0.0,0.0,0.0,0.0,0.0,0.0,0.0,0.0,0.0,0.0,0.0,0.0,0.0,0.0,0.0,0.0,0.0,0.0,0.0,0.0,0.0,0.0,0.0,0.0,0.0,0.0,0.0,0.0,0.0,0.0,0.0,0.0,0.0,0.0,0.0,0.0,0.0,0.0,0.0,0.0,0.0,0.0,0.0,0.0,0.0,0.0,0.0,0.0,0.0,0.0,0.0,0.0,0.0,0.0,0.0,0.0,0.0,0.0,0.0,0.0,0.0,0.0,0.0,0.0,0.0,0.0,0.0,0.0,0.0,0.0,0.0,0.0,0.0,0.0,0.0,0.0,0.0,0.0,0.0,0.0,0.0,0.0,0.0,0.0,0.0,0.0,0.0,0.0,0.0,0.0,0.0,0.0,0.0,0.0,0.0,0.0,0.0,0.0,0.0,0.0,0.0,0.0,0.0,0.0,0.0,0.0,0.0,0.0,0.0,0.0,0.0,0.0,0.0,0.0,0.0,0.0,0.0,0.0,0.0,0.0,0.0,0.0,0.0,0.0,0.0,0.0,0.0,0.0,0.0,0.0,0.0,0.0,0.0,0.0,0.0,0.0,0.0,0.0,0.0,0.0,0.0,0.0,0.0,0.0,0.0,0.0,0.0,0.0,0.0,0.0,0.0,0.0,0.0,0.0,0.0,0.0,0.0,0.0,0.0,0.0,0.0,0.0,0.0,0.0,0.0,0.0,0.0,0.0,0.0,0.0,0.0,0.0,0.0,0.0,0.0,0.0,0.0,0.0,0.0,0.0,0.0,0.0,0.0,0.0,0.0,0.0,0.0,0.0,0.0,0.0,0.0,0.0,0.0,0.0,0.0,0.0,0.0,0.0,0.0,0.0,0.0,0.0,0.0,0.0,0.0,0.0,0.0,0.0,0.0,0.0,0.0,0.0,0.0,0.0,0.0,0.0,0.0,0.0,0.0,0.0,0.0,0.0,0.0,0.0,0.0,0.0,0.0,0.0,0.0,0.0,0.0,0.0,0.0,0.0,0.0,0.0,0.0,0.0,0.0,0.0,0.0,0.0,0.0,0.0,0.0,0.0,0.0,0.0,0.0,0.0,0.0,0.0,0.0,0.0,0.0,0.0,0.0,0.0,0.0,0.0,0.0,0.0,0.0,0.0,0.0,0.0,0.0,0.0,0.0,0.0,0.0,0.0,0.0,0.0,0.0,0.0,0.0,0.0,0.0,0.0,0.0,0.0,0.0,0.0,0.0,0.0,0.0,0.0,0.0,0.0,0.0,0.0,0.0,0.0,0.0,0.0,0.0,0.0,0.0,0.0,0.0,0.0,0.0,0.0,0.0,0.0,0.0,0.0,0.0,0.0,0.0,0.0,0.0,0.0,0.0,0.0,0.0,0.0,0.0,0.0,0.0,0.0,0.0,0.0,0.0,0.0,0.0,0.0,0.0,0.0,0.0,0.0,0.0,0.0,0.0,0.0,0.0,0.0,0.0,0.0,0.0,0.0,0.0,0.0,0.0,0.0,0.0,0.0,0.0,0.0,0.0,0.0,0.0,0.0,0.0,0.0,0.0,0.0,0.0,0.0,0.0,0.0,0.0,0.0,0.0,0.0,0.0,0.0,0.0,0.0,0.0,0.0,0.0,0.0,0.0,0.0,0.0,0.0,0.0,0.0,0.0,0.0,0.0,0.0,0.0,0.0,0.0,0.0,0.0,0.0,0.0,0.0,0.0,0.0,0.0,0.0,0.0,0.0,0.0,0.0,0.0,0.0,0.0,0.0,0.0,0.0,0.0,0.0,0.0,0.0,0.0,0.0,0.0,0.0,0.0,0.0,0.0,0.0,0.0,0.0,0.0,0.0,0.0,0.0,0.0,0.0,0.0,0.0,0.0,0.0,0.0,0.0,0.0,0.0,0.0,0.0,0.0,0.0,0.0,0.0,0.0,0.0,0.0,0.0,0.0,0.0,0.0,0.0,0.0,0.0,0.0,0.0,0.0,0.0,0.0,0.0,0.0,0.0,0.0,0.0,0.0,0.0,0.0,0.0,0.0,0.0,0.0,0.0,0.0,0.0,0.0,0.0,0.0,0.0,0.0,0.0,0.0,0.0,0.0,0.0,0.0,0.0,0.0,0.0,0.0,0.0,0.0,0.0,0.0,0.0,0.0,0.0,0.0,0.0,0.0,0.0,0.0,0.0,0.0,0.0,0.0,0.0,0.0,0.0,0.0,0.0,0.0,0.0,0.0,0.0,0.0,0.0,0.0,0.0,0.0,0.0,0.0,0.0,0.0,0.0,0.0,0.0,0.0,0.0,0.0,0.0,0.0,0.0,0.0,0.0,0.0,0.0,0.0,0.0,0.0,0.0,0.0,0.0,0.0,0.0,0.0,0.0,0.0,0.0,0.0,0.0,0.0,0.0,0.0,0.0,0.0,0.0,0.0,0.0,0.0,0.0,0.0,0.0,0.0,0.0,0.0,0.0,0.0,0.0,0.0,0.0,0.0,0.0,0.0,0.0,0.0,0.0,0.0,0.0,0.0,0.0,0.0,0.0,0.0,0.0,0.0,0.0,0.0,0.0,0.0,0.0,0.0,0.0,0.0,0.0,0.0,0.0,0.0,0.0,0.0,0.0,0.0,0.0,0.0,0.0,0.0,0.0,0.0,0.0,0.0,0.0,0.0,0.0,0.0,0.0,0.0,0.0,0.0,0.0,0.0,0.0,0.0,0.0,0.0,0.0,0.0,0.0,0.0,0.0,0.0,0.0,0.0,0.0,0.0,0.0,0.0,0.0,0.0,0.0,0.0,0.0,0.0,0.0,0.0,0.0,0.0,0.0,0.0,0.0,0.0,0.0,0.0,0.0,0.0,0.0,0.0,0.0,0.0,0.0,0.0,0.0,0.0,0.0,0.0,0.0,0.0,0.0,0.0,0.0,0.0,0.0,0.0,0.0,0.0,0.0,0.0,0.0,0.0,0.0,0.0,0.0,0.0,0.0,0.0,0.0,0.0,0.0,0.0,0.0,0.0,0.0,0.0,0.0,0.0,0.0,0.0,0.0,0.0,0.0,0.0,0.0,0.0,0.0,0.0,0.0,0.0,0.0,0.0,0.0,0.0,0.0,0.0,0.0,0.0,0.0,0.0,0.0,0.0,0.0,0.0,0.0,0.0,0.0,0.0,0.0,0.0,0.0,0.0,0.0,0.0,0.0,0.0,0.0,0.0,0.0,0.0,0.0,0.0,0.0,0.0,0.0,0.0,0.0,0.0,0.0,0.0,0.0,0.0,0.0,0.0,0.0,0.0,0.0,0.0,0.0,0.0,0.0,0.0,0.0,0.0,0.0,0.0,0.0,0.0,0.0,0.0,0.0,0.0,0.0,0.0,0.0,0.0,0.0,0.0,0.0,0.0,0.0,0.0,0.0,0.0,0.0,0.0,0.0,0.0,0.0,0.0,0.0,0.0,0.0,0.0,0.0,0.0,0.0,0.0,0.0,0.0,0.0,0.0,0.0,0.0,0.0,0.0,0.0,0.0,0.0,0.0,0.0,0.0,0.0,0.0,0.0,0.0,0.0,0.0,0.0,0.0,0.0,0.0,0.0,0.0,0.0,0.0,0.0,0.0,0.0,0.0,0.0,0.0,0.0,0.0,0.0,0.0,0.0,0.0,0.0,0.0,0.0,0.0,0.0,0.0,0.0,0.0,0.0,0.0,0.0,0.0,0.0,0.0,0.0,0.0,0.0,0.0,0.0,0.0,0.0,0.0,0.0,0.0,0.0,0.0,0.0,0.0,0.0,0.0,0.0,0.0,0.0,0.0,0.0,0.0,0.0,0.0,0.0,0.0,0.0,0.0,0.0,0.0,0.0,0.0,0.0,0.0,0.0,0.0,0.0,0.0,0.0,0.0,0.0,0.0,0.0,0.0,0.0,0.0,0.0,0.0,0.0,0.0,0.0,0.0,0.0,0.0,0.0,0.0,0.0,0.0,0.0,0.0,0.0,0.0,0.0,0.0,0.0,0.0,0.0,0.0,0.0,0.0,0.0,0.0,0.0,0.0,0.0,0.0,0.0,0.0,0.0,0.0,0.0,0.0,0.0,0.0,0.0,0.0,0.0,0.0,0.0,0.0,0.0,0.0,0.0,0.0,0.0,0.0,0.0,0.0,0.0,0.0,0.0,0.0,0.0,0.0,0.0,0.0,0.0,0.0,0.0,0.0,0.0,0.0,0.0,0.0,0.0,0.0,0.0,0.0,0.0,0.0,0.0,0.0,0.0,0.0,0.0,0.0,0.0,0.0,0.0,0.0,0.0,0.0,0.0,0.0,0.0,0.0,0.0,0.0,0.0,0.0,0.0,0.0,0.0,0.0,0.0,0.0,0.0,0.0,0.0,0.0,0.0,0.0,0.0,0.0,0.0,0.0,0.0,0.0,0.0,0.0,0.0,0.0,0.0,0.0,0.0,0.0,0.0,0.0,0.0,0.0,0.0,0.0,0.0,0.0,0.0,0.0,0.0,0.0,0.0,0.0,0.0,0.0,0.0,0.0,0.0,0.0,0.0,0.0,0.0,0.0,0.0,0.0,0.0,0.0,0.0,0.0,0.0,0.0,0.0,0.0,0.0,0.0,0.0,0.0,0.0,0.0,0.0,0.0,0.0,0.0,0.0,0.0,0.0,0.0,0.0,0.0,0.0,0.0,0.0,0.0,0.0,0.0,0.0,0.0,0.0,0.0,0.0,0.0,0.0,0.0,0.0,0.0,0.0,0.0,0.0,0.0,0.0,0.0,0.0,0.0,0.0,0.0,0.0,0.0,0.0,0.0,0.0,0.0,0.0,0.0,0.0,0.0,0.0,0.0,0.0,0.0,0.0,0.0,0.0,0.0,0.0,0.0,0.0,0.0,0.0,0.0,0.0,0.0,0.0,0.0,0.0,0.0,0.0,0.0,0.0,0.0,0.0,0.0,0.0,0.0,0.0,0.0,0.0,0.0,0.0,0.0,0.0,0.0,0.0,0.0,0.0,0.0,0.0,0.0,0.0,0.0,0.0,0.0,0.0,0.0,0.0,0.0,0.0,0.0,0.0,0.0,0.0,0.0,0.0,0.0,0.0,0.0,0.0,0.0,0.0,0.0,0.0,0.0,0.0,0.0,0.0,0.0,0.0,0.0,0.0,0.0,0.0,0.0,0.0,0.0,0.0,0.0,0.0,0.0,0.0,0.0,0.0,0.0,0.0,0.0,0.0,0.0,0.0,0.0,0.0,0.0,0.0,0.0,0.0,0.0,0.0,0.0,0.0,0.0,0.0,0.0,0.0,0.0,0.0,0.0,0.0,0.0,0.0,0.0,0.0,0.0,0.0,0.0,0.0,0.0,0.0,0.0,0.0,0.0,0.0,0.0,0.0,0.0,0.0,0.0,0.0,0.0,0.0,0.0,0.0,0.0,0.0,0.0,0.0,0.0,0.0,0.0,0.0,0.0,0.0,0.0,0.0,0.0,0.0,0.0,0.0,0.0,0.0,0.0,0.0,0.0,0.0,0.0,0.0,0.0,0.0,0.0,0.0,0.0,0.0,0.0,0.0,0.0,0.0,0.0,0.0,0.0,0.0,0.0,0.0,0.0,0.0,0.0,0.0,0.0,0.0,0.0,0.0,0.0,0.0,0.0,0.0,0.0,0.0,0.0,0.0,0.0,0.0,0.0,0.0,0.0,0.0,0.0,0.0,0.0,0.0,0.0,0.0,0.0,0.0,0.0,0.0,0.0,0.0,0.0,0.0,0.0,0.0,0.0,0.0,0.0,0.0,0.0,0.0,0.0,0.0,0.0,0.0,0.0,0.0,0.0,0.0,0.0,0.0,0.0,0.0,0.0,0.0,0.0,0.0,0.0,0.0,0.0,0.0,0.0,0.0,0.0,0.0,0.0,0.0,0.0,0.0,0.0,0.0,0.0,0.0,0.0,0.0,0.0,0.0,0.0,0.0,0.0,0.0,0.0,0.0,0.0,0.0,0.0,0.0,0.0,0.0,0.0,0.0,0.0,0.0,0.0,0.0,0.0,0.0,0.0,0.0,0.0,0.0,0.0,0.0,0.0,0.0,0.0,0.0,0.0,0.0,0.0,0.0,0.0,0.0,0.0,0.0,0.0,0.0,0.0,0.0,0.0,0.0,0.0,0.0,0.0,0.0,0.0,0.0,0.0,0.0,0.0,0.0,0.0,0.0,0.0,0.0,0.0,0.0,0.0,0.0,0.0,0.0,0.0,0.0,0.0,0.0,0.0,0.0,0.0,0.0,0.0,0.0,0.0,0.0,0.0,0.0,0.0,0.0,0.0,0.0,0.0,0.0,0.0,0.0,0.0,0.0,0.0,0.0,0.0,0.0,0.0,0.0,0.0,0.0,0.0,0.0,0.0,0.0,0.0,0.0,0.0,0.0,0.0,0.0,0.0,0.0,0.0,0.0,0.0,0.0,0.0,0.0,0.0,0.0,0.0,0.0,0.0,0.0,0.0,0.0,0.0,0.0,0.0,0.0,0.0,0.0,0.0,0.0,0.0,0.0,0.0,0.0,0.0,0.0,0.0,0.0,0.0,0.0,0.0,0.0,0.0,0.0,0.0,0.0,0.0,0.0,0.0,0.0,0.0,0.0,0.0,0.0,0.0,0.0,0.0,0.0,0.0,0.0,0.0,0.0,0.0,0.0,0.0,0.0,0.0,0.0,0.0,0.0,0.0,0.0,0.0,0.0,0.0,0.0,0.0,0.0,0.0,0.0,0.0,0.0,0.0,0.0,0.0,0.0,0.0,0.0,0.0,0.0,0.0,0.0,0.0,0.0,0.0,0.0,0.0,0.0,0.0,0.0,0.0,0.0,0.0,0.0,0.0,0.0,0.0,0.0,0.0,0.0,0.0,0.0,0.0,0.0,0.0,0.0,0.0,0.0,0.0,0.0,0.0,0.0,0.0,0.0,0.0,0.0,0.0,0.0,0.0,0.0,0.0,0.0,0.0,0.0,0.0,0.0,0.0,0.0,0.0,0.0,0.0,0.0,0.0,0.0,0.0,0.0,0.0,0.0,0.0,0.0,0.0,0.0,0.0,0.0,0.0,0.0,0.0,0.0,0.0,0.0,0.0,0.0,0.0,0.0,0.0,0.0,0.0,0.0,0.0,0.0,0.0,0.0,0.0,0.0,0.0,0.0,0.0,0.0,0.0,0.0,0.0,0.0,0.0,0.0,0.0,0.0,0.0,0.0,0.0,0.0,0.0,0.0,0.0,0.0,0.0,0.0,0.0,0.0,0.0,0.0,0.0,0.0,0.0,0.0,0.0,0.0,0.0,0.0,0.0,0.0,0.0,0.0,0.0,0.0,0.0,0.0,0.0,0.0,0.0,0.0,0.0,0.0,0.0,0.0,0.0,0.0,0.0,0.0,0.0,0.0,0.0,0.0,0.0,0.0,0.0,0.0,0.0,0.0,0.0,0.0,0.0,0.0,0.0,0.0,0.0,0.0,0.0,0.0,0.0,0.0,0.0,0.0,0.0,0.0,0.0,0.0,0.0,0.0,0.0,0.0,0.0,0.0,0.0,0.0,0.0,0.0,0.0,0.0,0.0,0.0,0.0,0.0,0.0,0.0,0.0,0.0,0.0,0.0,0.0,0.0,0.0,0.0,0.0,0.0,0.0,0.0,0.0,0.0,0.0,0.0,0.0,0.0,0.0,0.0,0.0,0.0,0.0,0.0,0.0,0.0,0.0,0.0,0.0,0.0,0.0,0.0,0.0,0.0,0.0,0.0,0.0,0.0,0.0719,0.0244,0.0,0.0,0.0,0.0,0.0,0.0,0.0,0.0,0.0,0.0,0.0,0.0,0.0,0.0,0.0,0.0,0.0,0.0,0.0,0.0,0.0,0.0,0.0,0.0,0.0,0.0,0.0,0.0,0.0,0.0,0.0,0.0,0.0,0.0,0.0,0.0,0.0,0.0,0.0,0.0,0.0,0.0,0.0,0.0,0.0,0.0,0.0,0.0,0.0,0.0,0.0,0.0,0.0,0.0,0.0,0.0,0.0,0.0,0.0,0.0,0.0,0.0,0.0,0.0,0.0,0.0,0.0,0.0,0.0,0.0,0.0,0.0,0.0,0.0,0.0,0.0,0.0,0.0,0.0,0.0,0.0,0.0,0.0,0.0,0.0,0.0,0.0,0.0,0.0,0.0,0.0,0.0,0.0,0.0,0.0,0.0,0.0,0.0,0.0,0.0,0.0,0.0,0.0,0.0,0.0,0.0,0.0,0.0,0.0,0.0,0.0,0.0,0.0,0.1605,0.0,0.0508,0.0,0.0167,0.0,0.0,0.0,0.0,0.0,0.0,0.0,0.0,0.0,0.0,0.0,0.0,0.0,0.0,0.0,0.0,0.0,0.0,0.0,0.0,0.0,0.0,0.0,0.0,0.0,0.0,0.0,0.0,0.0,0.0,0.0,0.0,0.0,0.0,0.0,0.0,0.0,0.0,0.0,0.0,0.0,0.0,0.0,0.0,0.0,0.0,0.0,0.0,0.0,0.0,0.0,0.0,0.0,0.0,0.0,0.0,0.0,0.0,0.0,0.0,0.0,0.0,0.0,0.0,0.0,0.0,0.0,0.0,0.0,0.0,0.0,0.0,0.0,0.0,0.0,0.0,0.0,0.0,0.0,0.0,0.0,0.0,0.0,0.0,0.0,0.0,0.0,0.0,0.0,0.0,0.0,0.0,0.0,0.0,0.0,0.0,0.0,0.0,0.0,0.0,0.0,0.0,0.0,0.0,0.0,0.0,0.0,0.0,0.0,0.3121,0.2661,0.1969,0.1587,0.1582,0.0571,0.0,0.0,0.0,0.0,0.0,0.0,0.0,0.0,0.0,0.0,0.0,0.0,0.0,0.0,0.0,0.0,0.0,0.0,0.0,0.0,0.0,0.0,0.0,0.0,0.0,0.0,0.0,0.0,0.0,0.0,0.0,0.0,0.0,0.0,0.0,0.0,0.0,0.0,0.0,0.0,0.0,0.0,0.0,0.0,0.0,0.0,0.0,0.0,0.0,0.0,0.0,0.0,0.0,0.0,0.0,0.0,0.0,0.0,0.0,0.0,0.0,0.0,0.0,0.0,0.0,0.0,0.0,0.0,0.0,0.0,0.0,0.0,0.0,0.0,0.0,0.0,0.0,0.0,0.0,0.0,0.0,0.0,0.0,0.0,0.0,0.0,0.0,0.0,0.0,0.0,0.0,0.0,0.0,0.0,0.0,0.0,0.0,0.0,0.0,0.0,0.0,0.0,0.0,0.0,0.0,0.0,0.0,0.0,0.0,0.0,0.2727,0.2579,0.22,0.1629,0.1144,0.0611,0.0,0.0,0.0,0.0,0.0,0.0,0.0,0.0,0.0,0.0,0.0,0.0,0.0,0.0,0.0,0.0,0.0,0.0,0.0,0.0,0.0,0.0,0.0,0.0,0.0,0.0,0.0,0.0,0.0,0.0,0.0,0.0,0.0,0.0,0.0,0.0,0.0,0.0,0.0,0.0,0.0,0.0,0.0,0.0,0.0,0.0,0.0,0.0,0.0,0.0,0.0,0.0,0.0,0.0,0.0,0.0,0.0,0.0,0.0,0.0,0.0,0.0,0.0,0.0,0.0,0.0,0.0,0.0,0.0,0.0,0.0,0.0,0.0,0.0,0.0,0.0,0.0,0.0,0.0,0.0,0.0,0.0,0.0,0.0,0.0,0.0,0.0,0.0,0.0,0.0,0.0,0.0,0.0,0.0,0.0,0.0,0.0,0.0,0.0,0.0,0.0,0.0,0.0,0.0,0.0,0.0,0.0,0.0,0.0,0.3848,0.3653,0.3281,0.2675,0.1843,0.111,0.049,0.0,0.0,0.0,0.0,0.0,0.0,0.0,0.0,0.0,0.0,0.0,0.0,0.0,0.0,0.0,0.0,0.0,0.0,0.0,0.0,0.0,0.0,0.0,0.0,0.0,0.0,0.0,0.0,0.0,0.0,0.0,0.0,0.0,0.0,0.0,0.0,0.0,0.0,0.0,0.0,0.0,0.0,0.0,0.0,0.0,0.0,0.0,0.0,0.0,0.0,0.0,0.0,0.0,0.0,0.0,0.0,0.0,0.0,0.0,0.0,0.0,0.0,0.0,0.0,0.0,0.0,0.0,0.0,0.0,0.0,0.0,0.0,0.0,0.0,0.0,0.0,0.0,0.0,0.0,0.0,0.0,0.0,0.0,0.0,0.0,0.0,0.0,0.0,0.0,0.0,0.0,0.0,0.0,0.0,0.0,0.0,0.0,0.0,0.0,0.0,0.0,0.0,0.0,0.0,0.0,0.0,0.0,0.0,0.5589,0.5064,0.4667,0.4469,0.268,0.1586,0.0,0.0,0.0,0.0,0.0,0.0,0.0,0.0,0.0,0.0,0.0,0.0,0.0,0.0,0.0,0.0,0.0,0.0,0.0,0.0,0.0,0.0,0.0,0.0,0.0,0.0,0.0,0.0,0.0,0.0,0.0,0.0,0.0,0.0,0.0,0.0,0.0,0.0,0.0,0.0,0.0,0.0,0.0,0.0,0.0,0.0,0.0,0.0,0.0,0.0,0.0,0.0,0.0,0.0,0.0,0.0,0.0,0.0,0.0,0.0,0.0,0.0,0.0,0.0,0.0,0.0,0.0,0.0,0.0,0.0,0.0,0.0,0.0,0.0,0.0,0.0,0.0,0.0,0.0,0.0,0.0,0.0,0.0,0.0,0.0,0.0,0.0,0.0,0.0,0.0,0.0,0.0,0.0,0.0,0.0,0.0,0.0,0.0,0.0,0.0,0.0,0.0,0.0,0.0,0.0,0.0,0.0,0.0,0.0,0.5583,0.5551,0.5173,0.4494,0.3671,0.2631,0.0,0.0,0.0,0.0,0.0,0.0,0.0,0.0,0.0,0.0,0.0,0.0,0.0,0.0,0.0,0.0,0.0,0.0,0.0,0.0,0.0,0.0,0.0,0.0,0.0,0.0,0.0,0.0,0.0,0.0,0.0,0.0,0.0,0.0,0.0,0.0,0.0,0.0,0.0,0.0,0.0,0.0,0.0,0.0,0.0,0.0,0.0,0.0,0.0,0.0,0.0,0.0,0.0,0.0,0.0,0.0,0.0,0.0,0.0,0.0,0.0,0.0,0.0,0.0,0.0,0.0,0.0,0.0,0.0,0.0,0.0,0.0,0.0,0.0,0.0,0.0,0.0,0.0,0.0,0.0,0.0,0.0,0.0,0.0,0.0,0.0,0.0,0.0,0.0,0.0,0.0,0.0,0.0,0.0,0.0,0.0,0.0,0.0,0.0,0.0,0.0,0.0,0.0,0.0,0.0,0.0,0.0,0.0,0.5281,0.5617,0.5667,0.5464,0.4963,0.4323,0.3461,0.0,0.0,0.0,0.0,0.0,0.0,0.0,0.0,0.0,0.0,0.0,0.0,0.0,0.0,0.0,0.0,0.0,0.0,0.0,0.0,0.0,0.0,0.0,0.0,0.0,0.0,0.0,0.0,0.0,0.0,0.0,0.0,0.0,0.0,0.0,0.0,0.0,0.0,0.0,0.0,0.0,0.0,0.0,0.0,0.0,0.0,0.0,0.0,0.0,0.0,0.0,0.0,0.0,0.0,0.0,0.0,0.0,0.0,0.0,0.0,0.0,0.0,0.0,0.0,0.0,0.0,0.0,0.0,0.0,0.0,0.0,0.0,0.0,0.0,0.0,0.0,0.0,0.0,0.0,0.0,0.0,0.0,0.0,0.0,0.0,0.0,0.0,0.0,0.0,0.0,0.0,0.0,0.0,0.0,0.0,0.0,0.0,0.0,0.0,0.0,0.0,0.0,0.0,0.0,0.0,0.0,0.0,0.0,0.526,0.5535,0.5559,0.5559,0.5538,0.4715,0.4119,0.0,0.0,0.0,0.0,0.0,0.0,0.0,0.0,0.0,0.0,0.0,0.0,0.0,0.0,0.0,0.0,0.0,0.0,0.0,0.0,0.0,0.0,0.0,0.0,0.0,0.0,0.0,0.0,0.0,0.0,0.0,0.0,0.0,0.0,0.0,0.0,0.0,0.0,0.0,0.0,0.0,0.0,0.0,0.0,0.0,0.0,0.0,0.0,0.0,0.0,0.0,0.0,0.0,0.0,0.0,0.0,0.0,0.0,0.0,0.0,0.0,0.0,0.0,0.0,0.0,0.0,0.0,0.0,0.0,0.0,0.0,0.0,0.0,0.0,0.0,0.0,0.0,0.0,0.0,0.0,0.0,0.0,0.0,0.0,0.0,0.0,0.0,0.0,0.0,0.0,0.0,0.0,0.0,0.0,0.0,0.0,0.0,0.0,0.0,0.0,0.0,0.0,0.0,0.0,0.0,0.0,0.0,0.0,0.5127,0.5194,0.5348,0.5352,0.5201,0.4927,0.4454,0.0,0.0,0.0,0.0,0.0,0.0,0.0,0.0,0.0,0.0,0.0,0.0,0.0,0.0,0.0,0.0,0.0,0.0,0.0,0.0,0.0,0.0,0.0,0.0,0.0,0.0,0.0,0.0,0.0,0.0,0.0,0.0,0.0,0.0,0.0,0.0,0.0,0.0,0.0,0.0,0.0,0.0,0.0,0.0,0.0,0.0,0.0,0.0,0.6055,0.0,0.0,0.0,0.0,0.0,0.0,0.0,0.0,0.0,0.0,0.0,0.0,0.0,0.0,0.0,0.0,0.0,0.0,0.0,0.0,0.0,0.0,0.0,0.0,0.0,0.0,0.0,0.0,0.0,0.0,0.0,0.0,0.0,0.0,0.0,0.0,0.0,0.0,0.0,0.0,0.0,0.0,0.0,0.0,0.0,0.0,0.0,0.0,0.0,0.0,0.0,0.0,0.0,0.0,0.0,0.0,0.0,0.0,0.0,0.5428,0.5096,0.5145,0.5145,0.5093,0.4961,0.4705,0.0,0.0,0.0,0.0,0.0,0.0,0.0,0.0,0.0,0.0,0.0,0.0,0.0,0.0,0.0,0.0,0.0,0.0,0.0,0.0,0.0,0.0,0.0,0.0,0.0,0.0,0.0,0.0,0.0,0.0,0.0,0.0,0.0,0.0,0.0,0.0,0.0,0.0,0.0,0.0,0.0,0.0,0.0,0.0,0.0,0.0,0.0,0.0,0.0,0.0,0.0,0.0,0.0,0.0,0.0,0.0,0.0,0.0,0.0,0.0,0.0,0.0,0.0,0.0,0.0,0.0,0.0,0.0,0.0,0.0,0.0,0.0,0.0,0.0,0.0,0.0,0.0,0.0,0.0,0.0,0.0,0.0,0.0,0.0,0.0,0.0,0.0,0.0,0.0,0.0,0.0,0.0,0.0,0.0,0.0,0.0,0.0,0.0,0.0,0.0,0.0,0.0,0.0,0.0,0.0,0.0,0.0,0.5928,0.5868,0.5241,0.4999,0.4975,0.5059,0.4928,0.4867,0.4884,0.0,0.0,0.0,0.0,0.0,0.0,0.0,0.0,0.0,0.0,0.0,0.0,0.0,0.0,0.0,0.0,0.0,0.0,0.0,0.0,0.0,0.0,0.0,0.0,0.0,0.0,0.0,0.0,0.0,0.0,0.0,0.0,0.0,0.0,0.0,0.0,0.0,0.0,0.8931,0.9164,0.0,0.0,0.0,0.0,0.0,0.0,0.0,0.0,0.819,0.0,0.0,0.0,0.0,0.0,0.0,0.0,0.0,0.0,0.0,0.0,0.0,0.0,0.0,0.0,0.0,0.0,0.0,0.0,0.0,0.0,0.0,0.0,0.0,0.0,0.0,0.0,0.0,0.0,0.0,0.0,0.0,0.0,0.0,0.0,0.0,0.0,0.0,0.0,0.0,0.0,0.0,0.0,0.0,0.0,0.0,0.0,0.0,0.0,0.0,0.0,0.0,0.0,0.0,0.0,0.0,0.7787,0.6644,0.5934,0.5693,0.516,0.4897,0.4921,0.4809,0.4789,0.4874,0.0,0.0,0.0,0.0,0.0,0.0,0.0,0.0,0.0,0.0,0.0,0.0,0.0,0.0,0.0,0.0,0.0,0.0,0.0,0.0,0.0,0.0,0.0,0.0,0.0,0.0,0.0,0.0,0.0,0.0,0.0,0.0,0.0,0.0,0.0,0.0,0.0,0.0,0.0,0.9786,0.9943,0.0,0.0,0.0,0.0,0.0,0.0,0.0,0.0,0.8259,0.0,0.0,0.0,0.0,0.0,0.0,0.0,0.0,0.0,0.0,0.0,0.0,0.0,0.0,0.0,0.0,0.0,0.0,0.0,0.0,0.0,0.0,0.0,0.0,0.0,0.0,0.0,0.0,0.0,0.0,0.0,0.0,0.0,0.0,0.0,0.0,0.0,0.0,0.0,0.0,0.0,0.0,0.0,0.0,0.0,0.0,0.0,0.0,0.0,0.0,0.0,0.0,0.0,0.0,0.0,0.7609,0.7302,0.687,0.6373,0.5968,0.5885,0.6126,0.5956,0.5773,0.0,0.0,0.0,0.0,0.0,0.0,0.0,0.0,0.0,0.0,0.0,0.0,0.0,0.0,0.0,0.0,0.0,0.0,0.0,0.0,0.0,0.0,0.0,0.0,0.0,0.0,0.0,0.0,0.0,0.0,0.0,0.0,0.0,0.0,0.0,0.0,0.0,0.0,0.0,0.0,1.0616,1.0873,1.0977,0.0,0.0,0.0,0.0,0.0,0.0,0.9362,0.928,0.0,0.0,0.0,0.0,0.0,0.0,0.0,0.0,0.0,0.0,0.0,0.0,0.0,0.0,0.0,0.0,0.0,0.0,0.0,0.0,0.0,0.0,0.0,0.0,0.0,0.0,0.0,0.0,0.0,0.0,0.0,0.0,0.0,0.0,0.0,0.0,0.0,0.0,0.0,0.0,0.0,0.0,0.0,0.0,0.0,0.0,0.0,0.0,0.0,0.0,0.0,0.0,0.0,0.0,0.0,0.7321,0.7834,0.7773,0.7086,0.6756,0.6802,0.7203,0.6954,0.6687,0.0,0.0,0.0,0.0,0.0,0.0,0.0,0.0,0.0,0.0,0.0,0.0,0.0,0.0,0.0,0.0,0.0,0.0,0.0,0.0,0.0,0.0,0.0,0.0,0.0,0.0,0.0,0.0,0.0,0.0,0.0,0.0,0.0,0.0,0.0,0.0,0.0,0.0,0.0,0.0,0.0,1.1867,1.2027,1.1836,0.0,0.0,0.0,0.0,1.0904,1.0906,0.0,0.0,0.0,0.0,0.0,0.0,0.0,0.0,0.0,0.0,0.0,0.0,0.0,0.0,0.0,0.0,0.0,0.0,0.0,0.0,0.0,0.0,0.0,0.0,0.0,0.0,0.0,0.0,0.0,0.0,0.0,0.0,0.0,0.0,0.0,0.0,0.0,0.0,0.0,0.0,0.0,0.0,0.0,0.0,0.0,0.0,0.0,0.0,0.0,0.0,0.0,0.0,0.0,0.0,0.0,0.0,0.8559,0.8039,0.7716,0.7597,0.6955,0.6731,0.6929,0.6734,0.6696,0.0,0.0,0.0,0.0,0.0,0.0,0.0,0.0,0.0,0.0,0.0,0.0,0.0,0.0,0.0,0.0,0.0,0.0,0.0,0.0,0.0,0.0,0.0,0.0,0.0,0.0,0.0,0.0,0.0,0.0,0.0,0.0,0.0,0.0,0.0,0.0,0.0,0.0,0.0,0.0,0.0,1.2766,1.2846,1.2531,1.2544,0.0,0.0,1.2258,1.3599,1.3556,0.0,0.0,0.0,0.0,0.0,0.0,0.0,0.0,0.0,0.0,0.0,0.0,0.0,0.0,0.0,0.0,0.0,0.0,0.0,0.0,0.0,0.0,0.0,0.0,0.0,0.0,0.0,0.0,0.0,0.0,0.0,0.0,0.0,0.0,0.0,0.0,0.0,0.0,0.0,0.0,0.0,0.0,0.0,0.0,0.0,0.0,0.0,0.0,0.0,0.0,0.0,0.0,0.0,0.0,0.0,0.9361,0.9361,0.9436,0.9455,0.9448,0.8777,0.855,0.882,0.8199,0.7792,0.0,0.0,0.0,0.0,0.0,0.0,0.0,0.0,0.0,0.0,0.0,0.0,0.0,0.0,0.0,0.0,0.0,0.0,0.0,0.0,0.0,0.0,0.0,0.0,0.0,0.0,0.0,0.0,0.0,0.0,0.0,0.0,0.0,0.0,0.0,0.0,0.0,0.0,0.0,0.0,0.0,0.0,1.4259,1.4084,0.0,0.0,0.0,1.3566,1.4196,0.0,0.0,0.0,0.0,0.0,0.0,0.0,0.0,0.0,0.0,0.0,0.0,0.0,0.0,0.0,0.0,0.0,0.0,0.0,0.0,0.0,0.0,0.0,0.0,0.0,0.0,0.0,0.0,0.0,0.0,0.0,0.0,0.0,0.0,0.0,0.0,0.0,0.0,0.0,0.0,0.0,0.0,0.0,0.0,0.0,0.0,0.0,0.0,0.0,0.0,0.0,0.0,0.0,0.0,0.0,0.0,0.0,1.0038,1.0542,1.0813,1.0788,1.0312,1.0168,1.0405,0.9686,0.0,0.0,0.0,0.0,0.0,0.0,0.0,0.0,0.0,0.0,0.0,0.0,0.0,0.0,0.0,0.0,0.0,0.0,0.0,0.0,0.0,0.0,0.0,0.0,0.0,0.0,0.0,1.1049,0.0,0.0,0.0,0.0,0.0,0.0,0.0,0.0,0.0,0.0,0.0,0.0,0.0,0.0,1.4793,1.556,1.5487,1.5373,0.0,0.0,1.4844,1.5179,1.523,1.4836,0.0,0.0,0.0,0.0,0.0,0.0,0.0,0.0,0.0,0.0,0.0,0.0,0.0,0.0,0.0,0.0,0.0,0.0,0.0,0.0,0.0,0.0,0.0,0.0,0.0,0.0,0.0,0.0,0.0,0.0,0.0,0.0,0.0,0.0,0.0,0.0,0.0,0.0,0.0,0.0,0.0,0.0,0.0,0.0,0.0,0.0,0.0,0.0,0.0,0.0,0.0,0.0,0.0,0.0,0.0,1.0737,1.0788,1.0813,1.0813,1.0762,1.0745,1.077,1.0677,1.0346,0.0,0.0,0.0,0.0,0.0,0.0,0.0,0.0,0.0,0.0,0.0,0.0,0.0,0.0,0.0,0.0,0.0,0.0,0.0,0.0,0.0,0.0,0.0,0.0,0.0,0.0,0.0,0.0,0.0,0.0,0.0,0.0,0.0,0.0,0.0,0.0,0.0,0.0,0.0,0.0,0.0,1.5309,1.6439,1.6281,1.6422,0.0,0.0,1.6398,1.7571,1.7731,1.7315,1.6049,0.0,0.0,0.0,0.0,0.0,0.0,0.0,0.0,0.0,0.0,0.0,0.0,0.0,0.0,0.0,0.0,0.0,0.0,0.0,0.0,0.0,0.0,0.0,0.0,0.0,0.0,0.0,0.0,0.0,0.0,0.0,0.0,0.0,0.0,0.0,0.0,0.0,0.0,0.0,0.0,0.0,0.0,0.0,0.0,0.0,0.0,0.0,0.0,0.0,0.0,0.0,0.0,0.0,1.1416,1.1416,1.1866,1.2073,1.2073,1.1658,1.1408,1.1441,1.1007,1.0661,0.0,0.0,0.0,0.0,0.0,0.0,0.0,0.0,0.0,0.0,0.0,0.0,0.0,0.0,0.0,0.0,0.0,0.0,0.0,0.0,0.0,0.0,0.0,0.0,0.0,0.0,0.0,0.0,1.2947,1.3189,1.2935,0.0,0.0,0.0,0.0,0.0,0.0,0.0,0.0,0.0,0.0,1.5999,1.6999,1.6994,0.0,0.0,1.7581,1.7456,1.791,1.7793,1.7266,1.6261,1.5654,0.0,0.0,0.0,0.0,0.0,0.0,0.0,0.0,0.0,0.0,0.0,0.0,0.0,0.0,0.0,0.0,0.0,0.0,0.0,0.0,0.0,0.0,0.0,0.0,0.0,0.0,0.0,0.0,0.0,0.0,0.0,0.0,0.0,0.0,0.0,0.0,0.0,0.0,0.0,0.0,0.0,0.0,0.0,0.0,0.0,0.0,0.0,0.0,0.0,0.0,0.0,0.0,1.2129,1.2129,1.2642,1.2915,1.2915,1.2403,1.2129,1.2113,1.1683,1.1325,0.0,0.0,0.0,0.0,0.0,0.0,0.0,0.0,0.0,0.0,0.0,0.0,0.0,0.0,0.0,0.0,0.0,0.0,0.0,0.0,0.0,0.0,0.0,0.0,0.0,0.0,0.0,0.0,1.3169,1.3203,1.2935,0.0,0.0,0.0,0.0,0.0,0.0,0.0,0.0,0.0,0.0,1.7349,1.8228,1.8132,1.8065,1.8365,1.8168,1.8008,1.8008,1.7754,1.7412,1.6927,0.0,0.0,0.0,0.0,0.0,0.0,0.0,0.0,0.0,0.0,0.0,0.0,0.0,0.0,0.0,0.0,0.0,0.0,0.0,0.0,0.0,0.0,0.0,0.0,0.0,0.0,0.0,1.3755,0.0,0.0,1.3708,0.0,0.0,0.0,0.0,0.0,0.0,0.0,0.0,0.0,0.0,0.0,0.0,0.0,0.0,0.0,0.0,0.0,0.0,0.0,0.0,0.0,0.0,1.2881,1.2881,1.2939,1.2939,1.2929,1.2881,1.2881,1.2881,1.2856,1.2501,1.1814,0.0,0.0,0.0,0.0,0.0,0.0,0.0,0.0,0.0,0.0,0.0,0.0,0.0,0.0,0.0,0.0,0.0,0.0,0.0,0.0,0.0,0.0,0.0,0.0,0.0,0.0,1.3013,1.2915,1.2959,0.0,0.0,0.0,0.0,0.0,0.0,0.0,0.0,0.0,0.0,1.8886,1.9561,2.0359,1.9792,1.9245,1.9266,1.8596,1.8052,1.8095,1.8032,1.8111,0.0,0.0,0.0,0.0,0.0,0.0,0.0,0.0,0.0,0.0,0.0,0.0,0.0,0.0,0.0,0.0,0.0,0.0,0.0,0.0,0.0,0.0,0.0,0.0,0.0,0.0,0.0,1.6234,1.6006,0.0,0.0,0.0,0.0,0.0,0.0,0.0,0.0,0.0,0.0,0.0,1.8424,1.872,0.0,0.0,0.0,0.0,0.0,0.0,0.0,0.0,0.0,0.0,0.0,0.0,1.3851,1.3559,1.4251,1.4443,1.4106,1.3718,1.3481,1.3515,1.3104,1.2798,1.255,0.0,0.0,0.0,0.0,0.0,0.0,0.0,0.0,0.0,0.0,0.0,0.0,0.0,0.0,0.0,0.0,0.0,0.0,0.0,0.0,0.0,0.0,0.0,0.0,0.0,1.42,0.0,0.0,0.0,0.0,0.0,0.0,0.0,0.0,0.0,0.0,0.0,1.8086,1.8915,1.9422,1.9902,2.0533,2.0376,2.0171,0.0,0.0,0.0,0.0,0.0,0.0,0.0,0.0,0.0,0.0,0.0,0.0,0.0,0.0,2.1962,1.9622,1.896,1.8907,1.9327,0.0,0.0,0.0,0.0,0.0,0.0,0.0,0.0,0.0,0.0,0.0,0.0,0.0,0.0,1.8164,0.0,1.7191,0.0,0.0,0.0,0.0,0.0,0.0,0.0,0.0,2.0118,2.0447,2.0163,2.0458,2.01,0.0,1.8925,1.7604,0.0,0.0,0.0,0.0,0.0,0.0,0.0,0.0,1.4666,1.4174,1.5014,1.5249,1.4709,1.4306,1.412,1.412,1.3899,1.3728,1.3607,1.4012,1.4035,0.0,0.0,0.0,0.0,0.0,0.0,0.0,0.0,0.0,0.0,0.0,0.0,0.0,0.0,0.0,0.0,0.0,0.0,0.0,0.0,0.0,0.0,0.0,1.502,0.0,0.0,0.0,0.0,0.0,0.0,0.0,0.0,0.0,1.8139,1.8909,1.9762,2.0535,2.0857,2.1136,2.1444,0.0,0.0,0.0,0.0,0.0,0.0,0.0,2.1514,2.2153,2.1881,2.1635,2.1818,2.2879,2.3476,2.2843,0.0,0.0,2.2019,2.13,2.1223,2.1689,2.1683,2.1646,2.1831,2.2056,2.2246,0.0,0.0,0.0,0.0,0.0,0.0,0.0,0.0,1.9721,1.9434,0.0,1.8422,0.0,0.0,0.0,0.0,0.0,1.98,0.0,0.0,2.2436,2.3095,2.304,2.304,2.2448,2.1332,2.1648,2.0746,1.8691,1.725,0.0,0.0,0.0,0.0,0.0,0.0,1.5295,1.4811,1.532,1.532,1.4812,1.4755,1.4721,1.4686,1.5181,1.525,1.4971,1.5833,1.5924,1.4994,1.5298,0.0,0.0,0.0,0.0,0.0,0.0,0.0,0.0,0.0,0.0,0.0,0.0,0.0,0.0,0.0,0.0,0.0,0.0,0.0,0.0,1.5161,0.0,0.0,0.0,0.0,0.0,0.0,0.0,0.0,0.0,0.0,2.0032,2.066,2.174,2.2925,0.0,0.0,0.0,0.0,2.2118,2.2607,2.201,2.1687,2.2185,2.2253,2.2559,2.3378,0.0,0.0,2.3782,2.5213,2.5775,2.4117,2.5228,2.6186,2.5109,2.4234,2.4135,2.5199,2.4157,2.351,2.4514,2.4621,2.4536,2.4932,0.0,0.0,0.0,0.0,2.3538,2.3782,2.4674,2.2839,2.2019,2.1832,2.0911,0.0,0.0,0.0,0.0,0.0,0.0,2.1886,2.2001,2.2742,2.3095,2.3095,2.3095,2.29,2.2558,2.2293,2.1864,2.1203,2.0054,1.8241,1.5959,0.0,0.0,0.0,0.0,1.6491,1.5986,1.6533,1.6581,1.5988,1.5577,1.5141,1.4732,1.4867,1.5058,1.5308,1.602,1.6265,1.5982,1.6078,0.0,0.0,0.0,0.0,0.0,0.0,0.0,0.0,0.0,0.0,0.0,0.0,0.0,0.0,0.0,0.0,0.0,0.0,0.0,1.5798,1.5594,1.6104,0.0,0.0,0.0,0.0,0.0,0.0,0.0,0.0,0.0,2.276,2.2637,2.2859,0.0,0.0,2.3095,2.3095,2.2884,2.2824,2.296,2.3131,0.0,2.3457,2.3481,2.3692,2.4344,2.4562,2.4612,2.4496,2.524,2.5703,2.512,2.5849,2.6271,2.562,2.5599,2.5784,2.6104,2.5802,2.5573,2.5891,2.5674,2.5209,2.8415,2.6722,2.6453,2.651,2.6745,2.5881,2.597,2.6606,2.4998,2.4227,2.3979,2.3343,2.2533,2.1668,2.2049,0.0,0.0,0.0,2.3524,2.3524,2.3554,2.3573,2.3531,2.3245,2.3095,2.3083,2.2543,2.2322,2.2255,2.1232,1.971,1.7798,0.0,0.0,1.6262,1.7183,1.7373,1.6849,1.7204,1.7112,1.6513,1.6151,1.5788,1.5433,1.5633,1.5926,1.6256,1.7014,1.734,1.7119,1.7328,1.7074,0.0,0.0,0.0,0.0,0.0,0.0,0.0,0.0,0.0,0.0,0.0,1.5481,0.0,0.0,0.0,0.0,1.5775,1.6502,1.7654,1.7564,0.0,0.0,0.0,0.0,0.0,0.0,0.0,2.3339,2.3477,2.3659,2.423,2.3609,2.3321,2.3916,2.3471,2.3095,2.3095,0.0,2.3195,2.3409,2.3766,2.4067,2.428,2.433,2.4443,2.477,2.48,2.48,2.48,2.5096,2.5285,2.5335,2.5586,2.5699,2.5347,2.5586,2.5845,2.5812,2.5812,2.5845,2.5799,2.5523,2.5134,3.1058,3.0156,2.8317,2.7575,2.7559,2.7369,2.7006,2.655,2.6294,2.5921,2.5467,2.5425,2.5107,2.4581,2.4581,0.0,2.4595,2.5177,2.5356,2.5384,2.4709,2.4339,2.4284,2.3542,2.3187,2.3136,2.2618,2.2378,2.2356,2.1359,2.0561,2.0016,1.9484,1.861,1.7545,1.7955,1.7978,1.7526,1.7388,1.7049,1.6513,1.6513,1.6513,1.6513,1.7036,1.7325,1.7423,1.8331,1.8682,1.8304,1.8682,1.8494,1.7589,0.0,0.0,0.0,0.0,0.0,0.0,0.0,0.0,0.0,0.0,0.0,0.0,0.0,0.0,0.0,1.7603,0.0,1.9772,2.0377,0.0,0.0,0.0,2.1119,2.1694,2.272,2.3556,2.4085,0.0,0.0,2.4842,2.3995,2.3515,2.4039,2.3525,2.3095,2.3095,2.3095,2.3296,2.3791,2.3916,2.4092,2.4412,2.4544,2.4544,2.455,2.4662,2.46,2.46,2.47,2.4713,2.4745,2.4763,2.482,2.475,2.475,2.4713,2.4675,2.475,2.4825,2.4895,2.48,2.4607,3.1111,3.0419,2.9937,2.9734,2.9647,2.8512,2.7968,2.7741,2.6676,2.6127,2.5975,2.5577,2.5315,2.519,2.5204,2.5204,2.5191,2.5343,2.5398,2.5398,2.5203,2.4873,2.4382,2.4177,2.381,2.3339,2.3218,2.3151,2.3097,2.2475,2.2082,2.1907,2.135,2.0219,1.8647,1.8333,1.8331,1.8631,1.7353,1.666,1.6513,1.6513,1.6513,1.6513,1.6626,1.6936,1.7385,1.7649,1.8103,1.8757,1.8544,1.8444,1.8618,1.784,0.0,0.0,0.0,0.0,0.0,0.0,0.0,0.0,0.0,1.7872,1.7221,0.0,1.8216,0.0,1.8983,1.9707,2.0413,2.0616,0.0,0.0,2.2518,2.2907,2.3916,2.481,2.5406,2.5431,2.6028,2.6313,2.5926,2.5616,2.5362,2.5108,2.3933,2.3095,2.3095,2.3095,2.3145,2.3314,2.3394,2.3358,2.354,2.3496,2.3552,2.3496,2.3552,2.3509,2.3509,2.3873,2.4205,2.423,2.4556,2.4632,2.4299,2.4192,2.4017,2.3684,2.4173,2.48,2.4788,2.4462,2.4155,3.1083,3.049,3.016,2.9894,2.9612,2.8748,2.8437,2.8351,2.7288,2.681,2.6782,2.6519,2.6375,2.6375,2.6375,2.6375,2.6375,2.6375,2.6375,2.6375,2.6027,2.5527,2.4882,2.4565,2.4048,2.3393,2.3144,2.3045,2.3004,2.2476,2.2211,2.2197,2.1876,2.1189,2.0221,1.9682,1.9423,1.9423,1.8558,1.809,1.809,1.7819,1.7547,1.7291,1.7008,1.7012,1.7367,1.759,1.8026,1.8593,1.858,1.8706,1.9012,1.847,1.828,0.0,0.0,0.0,0.0,0.0,0.0,0.0,0.0,0.0,0.0,0.0,2.0545,2.1108,2.1664,2.2339,2.32,2.3505,2.3991,2.4883,2.5225,2.5511,2.5857,2.6498,2.6785,2.6442,2.659,2.6624,2.6251,2.5975,2.5756,2.5411,2.4654,2.4134,2.4121,2.4134,2.4121,2.4121,2.3842,2.3632,2.3619,2.3632,2.3767,2.4034,2.4134,2.4018,2.3708,2.3919,2.415,2.4145,2.4101,2.4215,2.4519,2.4348,2.4111,2.4256,2.4603,2.4762,2.4179,2.3797,2.3676,3.104,3.0431,2.9866,2.9264,2.8701,2.8701,2.8613,2.8442,2.7869,2.7585,2.7585,2.7585,2.7585,2.7585,2.7585,2.7585,2.7585,2.7585,2.7585,2.7534,2.6842,2.6139,2.5477,2.4775,2.4074,2.3425,2.2947,2.2735,2.2693,2.2211,2.1932,2.1969,2.1932,2.1922,2.1801,2.1429,2.085,2.003,2.0146,2.0156,2.0094,1.9531,1.8982,1.8401,1.7849,1.7494,1.7428,1.7986,1.8357,1.8428,1.8936,1.929,1.9421,1.9368,1.9597,0.0,2.0206,0.0,0.0,0.0,0.0,0.0,0.0,0.0,0.0,2.2213,2.2846,2.4007,2.4668,2.5451,2.651,2.7079,2.7424,2.7438,2.7864,2.7944,2.7414,2.7748,2.7776,2.711,2.6715,2.6482,2.6399,2.5967,2.5701,2.5783,2.5741,2.5701,2.5646,2.5453,2.5287,2.5398,2.4866,2.4436,2.4436,2.4436,2.4652,2.5231,2.5273,2.5189,2.4551,2.445,2.445,2.4392,2.3995,2.3953,2.5175,2.4865,2.4679,2.5189,2.5314,2.4975,2.3933,2.3607,2.3594,3.1023,3.0402,3.0275,2.9847,2.9248,2.9248,2.8682,2.7779,2.766,2.7585,2.7585,2.7585,2.7585,2.7585,2.7585,2.7585,2.7585,2.7585,2.7585,2.7585,2.6882,2.6213,2.5575,2.4885,2.4187,2.3592,2.3452,2.3408,2.3408,2.329,2.3238,2.3238,2.3216,2.2995,2.2566,0.0,0.0,0.0,2.0526,2.0529,2.0122,1.9975,1.9613,1.8976,1.8831,0.0,1.8008,1.8563,1.9133,1.957,2.0187,0.0,0.0,0.0,0.0,0.0,0.0,0.0,0.0,0.0,0.0,0.0,2.3111,2.2833,2.2752,2.3991,2.4938,2.5201,2.6175,2.6898,2.7148,2.7702,2.8047,2.8016,2.8022,2.7988,2.7878,2.8085,2.7983,2.7342,2.775,2.7918,2.7365,2.7222,2.7163,2.7097,2.7188,2.7188,2.7137,2.6176,2.5453,2.537,2.5245,2.5203,2.5203,2.5189,2.519,2.537,2.5398,2.537,2.5245,2.5217,2.5203,2.5148,2.5077,2.4965,2.5356,2.5259,2.5149,2.5356,2.5398,2.5315,2.5035,2.4965,2.4844,3.0925,0.0,3.0356,2.9974,0.0,2.9406,2.9065,2.8496,2.8496,2.8496,2.8472,2.8174,2.8042,2.8042,2.7735,2.7585,2.7585,2.7585,2.7585,2.7555,2.6926,2.6243,2.5585,2.4903,2.4246,2.361,2.3595,2.3595,2.3595,2.3595,2.3595,2.3595,2.3595,2.3443,2.3165,2.3443,2.3008,2.1852,2.2076,2.209,2.1838,2.1527,2.1104,2.0507,2.0167,0.0,0.0,0.0,0.0,0.0,0.0,0.0,0.0,0.0,0.0,2.3144,2.3293,2.3316,2.3331,2.3644,2.4203,2.5109,2.5471,2.5394,2.4766,2.6139,2.7167,2.7512,2.8352,2.903,2.9363,2.9651,2.9693,2.9391,2.9275,2.9,2.8426,2.8389,2.8199,2.7609,2.7821,2.7974,2.7645,2.7585,2.7585,2.7585,2.7585,2.7585,2.7534,2.6982,2.6275,2.559,2.5454,2.5454,2.5454,2.5454,2.574,2.6248,2.6481,2.6336,2.6014,2.5946,2.5834,2.5511,2.5172,2.4994,2.5412,2.5237,2.5081,2.5392,2.5509,2.5494,2.5457,2.5175,2.4816,3.0915,3.0456,3.0456,3.0166,2.9717,2.9717,2.9717,2.9695,0.0,0.0,0.0,2.8873,2.8662,2.863,2.8018,2.776,2.775,2.7635,2.7585,2.7555,2.6791,2.6138,2.5585,2.4784,2.4126,2.361,2.3595,2.3595,2.3595,2.3595,2.3595,2.3595,2.3595,2.3595,2.3595,2.3595,2.3595,2.3595,2.3595,2.3595,2.358,2.3122,2.2604,2.2053,2.1501,2.1146,2.1044,2.1146,2.1218,2.1239,2.1443,2.2025,2.3104,2.3301,2.4025,2.5463,2.5719,2.5779,2.5779,2.5884,2.6183,2.6746,2.7285,2.736,2.6821,2.7993,2.9022,2.9562,3.0238,3.0838,3.1286,3.1316,3.1047,3.0417,3.0238,2.9687,2.8745,2.8472,2.8177,2.7705,2.759,2.76,2.76,2.7585,2.7585,2.7585,2.7585,2.7525,2.745,2.7285,2.6806,2.5781,2.5524,2.551,2.551,2.551,2.5994,2.6832,2.7091,2.7015,2.6542,2.6335,2.6104,2.5611,2.5012,2.4991,2.5411,2.5184,2.4927,2.5497,2.56,2.5546,2.5401,2.4885,2.4515,3.1151,3.1075,3.1075,3.1035,3.0938,3.0955,3.0938,3.0858,2.9865,2.9406,2.9384,2.9316,2.9271,2.9248,2.8654,2.8383,2.8359,2.7835,2.7585,2.7525,2.6303,2.5681,2.5555,2.4328,2.3684,2.361,2.3595,2.3595,2.3595,2.3595,2.3595,2.3595,2.3595,2.3595,2.3595,2.3595,2.3595,2.3595,2.3595,2.3595,2.3595,2.352,2.3184,2.2614,2.2509,2.2181,2.1625,2.2152,2.245,2.248,2.3486,2.4164,2.4365,2.4901,2.535,2.5591,2.6138,2.6452,2.6467,2.7001,2.736,2.745,2.7555,2.7555,2.751,2.8693,2.9517,2.9651,3.0672,3.1152,3.0746,3.0672,3.0432,2.9774,2.9205,2.8771,2.8562,2.8083,2.775,2.7615,2.7585,2.7585,2.7585,2.7585,2.7585,2.7585,2.7525,2.736,2.6797,2.6722,2.6428,2.5795,2.5592,2.5569,2.5521,2.5569,2.5682,2.5807,2.5959,2.5986,2.5857,2.5794,2.572,2.5598,2.5363,2.5384,2.554,2.5529,2.5325,2.545,2.5435,2.5322,2.4844,2.4591,2.4536,3.119,3.119,3.119,3.119,3.119,3.119,3.119,3.1151,3.0617,3.0356,3.0351,3.0021,2.9908,2.9827,2.9248,2.8989,2.8989,2.8693,2.8591,2.8466,2.7176,2.6377,2.5985,2.4673,2.39,2.3616,2.3595,2.3595,2.3595,2.3595,2.3595,2.3595,2.3595,2.3595,2.3595,2.3595,2.3595,2.3595,2.3595,2.3595,2.3595,2.3595,2.3475,2.3197,2.3197,2.3041,2.2757,2.3032,2.3355,2.3729,2.4276,2.4933,2.5644,2.5974,2.6318,2.6671,2.6986,2.7151,2.7151,2.742,2.7585,2.7585,2.7585,2.7764,2.8113,2.9011,2.9756,3.0073,3.0957,3.1212,3.0582,3.0492,3.0118,2.9146,2.8771,2.8457,2.8083,2.7824,2.76,2.7585,2.7585,2.7585,2.7585,2.7585,2.7585,2.757,2.733,2.6701,2.5719,2.5525,2.5435,2.5128,2.5053,2.5053,2.5053,2.5053,2.5202,2.554,2.56,2.56,2.56,2.56,2.545,2.5128,2.5076,2.4889,2.4657,2.4507,2.4507,2.4507,2.4522,2.4358,2.4133,2.4051,2.4051,3.119,3.119,3.119,3.119,3.119,3.119,3.119,3.119,3.119,3.119,3.1131,3.0699,3.0497,3.0435,2.9886,2.9607,2.9585,2.9451,2.9384,2.9262,2.795,2.7084,2.6563,2.5217,2.4384,2.3991,2.3948,2.397,2.3948,2.3948,2.3885,2.3794,2.3773,2.3724,2.3595,2.3709,2.3773,2.3773,2.39,2.3837,2.3595,2.3595,2.3595,2.3595,2.3595,2.3659,2.3773,2.3773,2.4079,2.4696,2.4903,2.5485,2.6464,2.672,2.7076,2.7525,2.7585,2.7585,2.7585,2.7585,2.7585,2.7585,2.7585,2.7899,2.8532,2.9056,2.9711,3.0417,3.0928,3.0972,3.0402,3.0283,2.9774,2.8562,2.8382,2.8184,2.7705,2.7585,2.7585,2.7585,2.7585,2.7585,2.7585,2.7585,2.751,2.73,2.6782,2.5899,2.4874,2.45,2.438,2.438,2.438,2.4365,2.438,2.4365,2.4575,2.5106,2.5106,2.5031,2.5046,2.5106,2.4963,2.447,2.4365,2.4201,2.3729,2.364,2.3684,2.3744,2.3759,2.3625,2.3445,2.34,2.349,3.119,3.119,3.119,3.119,3.119,3.119,3.119,3.119,3.119,3.119,3.1171,3.1151,3.1095,3.1035,3.0477,3.0208,3.0187,2.9651,2.9429,2.9291,2.795,2.7273,2.7141,2.5795,2.5105,2.5028,2.5008,2.4953,2.4969,2.5008,2.4792,2.4389,2.4328,2.4095,2.373,2.4095,2.4328,2.4328,2.4812,2.4592,2.3659,2.3595,2.3595,2.3595,2.3616,2.3837,2.4307,2.4328,2.4567,2.5124,2.5856,2.6279,2.6503,2.7113,2.755,2.761,2.761,2.7585,2.761,2.7585,2.7635,2.7585,2.769,2.7991,2.8625,2.8719,2.922,3.025,3.0595,3.0328,2.9786,2.9669,2.9157,2.7974,2.7764,2.766,2.7615,2.7585,2.7585,2.7585,2.7585,2.7585,2.7585,2.754,2.73,2.6746,2.6108,2.542,2.4634,2.4081,2.3804,2.3744,2.3714,2.3744,2.3759,2.3699,2.3849,2.3894,2.3834,2.3939,2.4014,2.3969,2.3759,2.3984,2.3774,2.3714,2.367,2.3595,2.3595,2.3595,2.3565,2.3445,2.2972,2.2853,2.3032,3.119,3.119,3.119,3.119,3.119,3.119,3.119,3.119,3.119,3.119,3.119,3.119,3.119,3.1188,3.0955,3.0838,3.0818,3.0576,3.0456,3.0357,2.9417,2.8547,2.7764,2.683,2.5962,2.5237,2.5202,2.5202,2.5202,2.5202,2.5086,2.4894,2.4891,2.4772,2.4572,2.4772,2.4875,2.4875,2.5086,2.4989,2.4612,2.4552,2.4536,2.4552,2.4552,2.4617,2.4851,2.4855,2.5159,2.5779,2.6535,2.7103,2.7529,2.8232,2.8685,2.867,2.867,2.8685,2.867,2.867,2.867,2.8646,2.9068,2.9607,3.0183,2.9933,3.0126,3.0857,3.0437,2.9834,2.9606,2.925,2.8648,2.7794,2.7585,2.7585,2.7585,2.7585,2.7585,2.7585,2.7585,2.7585,2.7525,2.7255,2.6737,2.6093,2.5427,2.4799,2.4111,2.3759,2.364,2.3595,2.3595,2.3595,2.3595,2.3595,2.3595,2.3595,2.3595,2.3595,2.3595,2.3595,2.361,2.3595,2.3595,2.3595,2.361,2.3595,2.3595,2.3595,2.3595,2.3505,2.3266,2.2957,2.3017,3.119,3.119,3.119,3.119,3.119,3.119,3.119,3.119,3.119,3.119,3.119,3.119,3.119,3.119,3.119,3.119,3.119,3.119,3.119,3.1106,3.0446,2.9515,2.8424,2.762,2.6706,2.577,2.5619,2.5633,2.5617,2.5601,2.5542,2.5449,2.5411,2.5335,2.5221,2.5316,2.5411,2.543,2.5542,2.5601,2.5601,2.5617,2.5486,2.524,2.5202,2.5259,2.5411,2.5411,2.571,2.6302,2.7098,2.7727,2.8238,2.8976,2.9406,2.9406,2.9406,2.9406,2.9406,2.9406,2.9406,2.9438,2.9909,3.0493,3.0918,3.0464,3.0495,3.1337,3.0065,2.9056,2.925,2.8876,2.8323,2.7705,2.7585,2.7585,2.7585,2.7585,2.7585,2.7585,2.7585,2.7585,2.751,2.7061,2.6393,2.5734,2.5038,2.435,2.3774,2.361,2.3595,2.3595,2.3595,2.3595,2.3595,2.3595,2.3595,2.3595,2.3595,2.3595,2.3595,2.3595,2.3595,2.3595,2.3595,2.3595,2.3595,2.3595,2.3595,2.3595,2.3595,2.352,2.3221,2.2942,2.2927,3.119,3.119,3.119,3.119,3.119,3.119,3.119,3.119,3.119,3.119,3.119,3.119,3.119,3.119,3.119,3.119,3.119,3.119,3.119,3.1123,3.0497,2.9719,2.8958,2.8144,2.74,2.674,2.6706,2.6656,2.664,2.6623,2.6401,2.5979,2.5961,2.5726,2.5411,2.5744,2.5977,2.5997,2.6332,2.659,2.659,2.6607,2.6139,2.5441,2.524,2.5486,2.5888,2.5977,2.6189,2.6674,2.7564,2.8089,2.8197,2.8973,2.9473,2.9473,2.9451,2.9429,2.9473,2.9496,2.9496,2.9489,2.9756,2.9874,3.067,2.9965,3.0082,3.1441,2.9547,2.8354,2.8733,2.864,2.8274,2.769,2.7585,2.7585,2.7585,2.7585,2.7585,2.7585,2.7585,2.7585,2.757,2.7031,2.6348,2.5689,2.5008,2.435,2.3767,2.3595,2.3595,2.3595,2.3595,2.3595,2.3595,2.3595,2.3595,2.3595,2.3595,2.3595,2.3595,2.3595,2.3595,2.3595,2.3595,2.3595,2.3595,2.3595,2.3595,2.3595,2.3595,2.3475,2.3251,2.2897,2.2868,3.143,3.119,3.119,3.119,3.119,3.119,3.119,3.119,3.119,3.119,3.119,3.119,3.119,3.119,3.119,3.119,3.119,3.119,3.119,3.1157,3.092,3.0412,2.9736,2.9379,2.889,2.8265,2.8163,2.7892,2.7435,2.7401,2.7062,2.6521,2.6453,2.6349,2.6228,2.6349,2.6436,2.647,2.6641,2.6708,2.6742,2.6708,2.6706,2.6824,2.6407,2.6229,2.6436,2.6436,2.6522,2.6708,2.7967,2.8663,2.8798,2.9859,3.0555,3.0555,3.0539,3.0539,3.0539,3.0539,3.0539,3.0626,3.1456,3.1745,3.1822,3.2029,3.2335,3.1932,3.0963,3.0092,2.956,2.8742,2.7884,2.766,2.7585,2.761,2.7585,2.7585,2.7585,2.7585,2.7585,2.7585,2.748,2.7016,2.6348,2.5689,2.5023,2.4388,2.3804,2.361,2.3661,2.361,2.3595,2.3595,2.3595,2.3595,2.3595,2.3595,2.3595,2.3595,2.3595,2.3595,2.3595,2.3595,2.3595,2.3595,2.3595,2.3595,2.3595,2.3595,2.3595,2.352,2.331,2.3062,2.3047,3.177,3.143,3.1408,3.1312,3.119,3.119,3.119,3.119,3.119,3.119,3.119,3.119,3.119,3.119,3.119,3.119,3.119,3.119,3.119,3.119,3.119,3.0801,3.0192,3.0089,2.9719,2.9077,2.8993,2.8705,2.8213,2.7925,2.7536,2.7097,2.7046,2.7046,2.7063,2.7063,2.7148,2.7351,2.7199,2.7165,2.7402,2.7435,2.7655,2.8027,2.7689,2.7453,2.7453,2.7436,2.7453,2.7605,2.867,2.9448,2.9788,3.0632,3.119,3.119,3.119,3.119,3.119,3.119,3.1292,3.1546,3.2408,3.2916,3.2983,3.3544,3.3506,3.3026,3.2062,3.1252,3.0685,2.9451,2.8452,2.821,2.8018,2.7993,2.8134,2.8183,2.81,2.7944,2.771,2.7625,2.7535,2.7191,2.6758,2.6258,2.562,2.4961,2.462,2.4297,2.4297,2.4463,2.4461,2.4535,2.4534,2.4474,2.3848,2.3699,2.3595,2.3595,2.3595,2.3595,2.3595,2.3595,2.3595,2.3595,2.3595,2.3595,2.3616,2.3616,2.3595,2.355,2.34,2.3302,2.3302,3.223,3.1843,3.1807,3.1584,3.1329,3.123,3.119,3.1232,3.121,3.119,3.119,3.119,3.119,3.119,3.119,3.119,3.119,3.119,3.119,3.119,3.119,3.0852,3.0226,3.0226,2.9905,2.9264,2.9094,2.9061,2.8976,2.8365,2.7959,2.7841,2.7807,2.7824,2.7824,2.7824,2.818,2.8518,2.8129,2.8145,2.8874,2.8807,2.8857,2.8993,2.8942,2.8942,2.8976,2.8908,2.879,2.8925,2.96,3.0412,3.0903,3.1157,3.119,3.119,3.119,3.119,3.119,3.119,3.1495,3.2073,3.2344,3.3,3.3748,3.3472,3.3398,3.3895,3.2912,3.1741,3.1628,3.0917,3.0073,2.946,2.8787,2.8732,2.9134,2.9323,2.9157,2.8567,2.814,2.77,2.7665,2.7708,2.7573,2.7299,2.6812,2.6298,2.6174,2.5749,2.5768,2.6081,2.5896,2.5645,2.5594,2.546,2.4527,2.3804,2.367,2.3595,2.3595,2.3595,2.3595,2.3595,2.3815,2.3815,2.39,2.3921,2.3879,2.3879,2.3752,2.3659,2.3505,2.343,2.3475,3.2713,3.2265,3.1915,3.1933,3.1986,3.1466,3.1351,3.1582,3.1332,3.119,3.119,3.119,3.119,3.119,3.119,3.119,3.119,3.119,3.119,3.119,3.119,3.1089,3.0886,3.0835,3.0734,3.0567,3.0516,3.0226,2.9786,2.948,2.9142,2.8721,2.8619,2.8619,2.8619,2.8636,2.8789,2.8925,2.8773,2.8772,2.8976,2.901,2.9247,2.9702,2.977,2.9973,3.0429,2.9551,2.9027,2.9044,2.9702,3.0446,3.1038,3.119,3.119,3.119,3.119,3.119,3.119,3.1207,3.1512,3.2226,3.2747,3.3203,3.3795,3.4314,3.4488,3.4622,3.3918,3.3578,3.3395,3.2533,3.1271,2.9579,2.9225,2.9212,2.9451,2.9429,2.93,2.918,2.895,2.8857,2.8818,2.8788,2.8602,2.8233,2.7902,2.7662,2.7222,2.7015,2.6788,2.7037,2.6824,2.658,2.6252,2.5709,2.4822,2.4048,2.3744,2.361,2.3595,2.3595,2.3595,2.373,2.3927,2.4116,2.4184,2.4266,2.4302,2.4241,2.422,2.3991,2.3702,2.3702,2.3858,3.3166,3.2745,3.245,3.2366,3.2451,3.1896,3.1806,3.1986,3.1603,3.143,3.1428,3.1252,3.119,3.119,3.119,3.119,3.119,3.119,3.119,3.119,3.119,3.119,3.119,3.119,3.119,3.119,3.119,3.097,3.0514,3.0207,2.9854,2.9465,2.9416,2.9397,2.9416,2.9397,2.9499,2.9738,2.9567,2.9551,2.9771,2.9822,3.004,3.0429,3.0497,3.0734,3.1089,3.0279,2.9822,2.989,3.0277,3.0751,3.1157,3.119,3.119,3.119,3.119,3.119,3.119,3.119,3.1664,3.2564,3.3136,3.3711,3.418,3.5211,3.5318,3.503,3.489,3.4793,3.4406,3.38,3.252,3.1095,3.0461,3.0163,3.0055,2.987,2.9739,2.9695,2.9502,2.9413,2.9406,2.9635,2.9577,2.9189,2.9044,2.899,2.8498,2.8269,2.822,2.8105,2.7913,2.7471,2.6766,2.5997,2.5084,2.4409,2.3819,2.3684,2.3595,2.3595,2.3616,2.3964,2.4199,2.4471,2.4592,2.4831,2.493,2.4812,2.4712,2.4592,2.441,2.4369,2.443,3.3564,3.3243,3.3199,3.2934,3.2632,3.2484,3.2451,3.2467,3.1986,3.1752,3.1696,3.137,3.119,3.119,3.119,3.119,3.119,3.119,3.119,3.119,3.119,3.119,3.119,3.119,3.119,3.119,3.119,3.1173,3.1021,3.0548,3.0159,3.0176,3.0176,3.0176,3.0159,3.0159,3.0446,3.0818,3.0446,3.048,3.1021,3.1072,3.1106,3.1123,3.1123,3.114,3.114,3.1021,3.1055,3.1157,3.1072,3.1106,3.119,3.119,3.119,3.119,3.119,3.1275,3.1258,3.1376,3.1968,3.3271,3.3575,3.4027,3.5194,3.5464,3.5566,3.5481,3.5498,3.525,3.4675,3.4361,3.3895,3.3254,3.1941,3.1332,3.122,3.0725,3.0393,3.0267,2.987,2.954,2.9695,3.0102,3.0276,3.0286,3.0152,3.0082,3.0021,2.9733,2.9696,2.9387,2.8911,2.8098,2.732,2.6598,2.5694,2.4828,2.4212,2.387,2.3592,2.3534,2.37,2.4045,2.4545,2.4784,2.5105,2.5373,2.543,2.5297,2.524,2.524,2.5105,2.4934,2.4835,3.3734,3.3606,3.3317,3.3302,3.3328,3.2809,3.2713,3.2872,3.2144,3.1844,3.1716,3.137,3.121,3.119,3.119,3.119,3.119,3.119,3.119,3.119,3.119,3.119,3.119,3.119,3.119,3.119,3.119,3.119,3.1173,3.0954,3.0869,3.0903,3.0852,3.0869,3.0903,3.0869,3.0987,3.1157,3.1038,3.0954,3.1123,3.119,3.119,3.119,3.119,3.119,3.119,3.119,3.119,3.119,3.119,3.119,3.119,3.119,3.119,3.119,3.1207,3.1481,3.1887,3.1989,3.2682,3.3981,3.4134,3.4624,3.5481,3.5616,3.5616,3.5616,3.56,3.5301,3.4658,3.4455,3.3918,3.2814,3.2244,3.1974,3.1807,3.1395,3.0958,3.0935,3.076,3.0658,3.0658,3.074,3.0898,3.0905,3.0884,3.0847,3.0747,3.0724,3.0483,3.0076,2.956,2.8658,2.7849,2.7166,2.6322,2.5353,2.4685,2.4182,2.3763,2.3376,2.3661,2.4023,2.4814,2.5222,2.5664,2.6052,2.5944,2.5699,2.5781,2.5744,2.5373,2.5128,2.5131,3.3807,3.3775,3.355,3.3578,3.3734,3.3255,3.3211,3.327,3.2711,3.2264,3.2057,3.1657,3.1351,3.121,3.119,3.119,3.119,3.119,3.119,3.119,3.119,3.119,3.119,3.119,3.119,3.119,3.119,3.119,3.119,3.119,3.119,3.1157,3.119,3.119,3.1157,3.119,3.119,3.119,3.119,3.119,3.119,3.119,3.119,3.119,3.119,3.119,3.119,3.119,3.119,3.119,3.119,3.119,3.119,3.119,3.119,3.119,3.119,3.1532,3.2124,3.2293,3.3004,3.4134,3.4489,3.4895,3.5414,3.5616,3.5616,3.5616,3.5329,3.4945,3.4573,3.4252,3.3677,3.2966,3.2476,3.2192,3.1904,3.1427,3.1224,3.119,3.119,3.119,3.119,3.119,3.119,3.1171,3.1134,3.114,3.1134,3.114,3.0903,3.0294,2.9597,2.8609,2.7647,2.6916,2.6433,2.5556,2.5123,2.4582,2.4188,2.367,2.4024,2.4533,2.5154,2.5703,2.6113,2.6352,2.6117,2.6031,2.618,2.6176,2.5824,2.5175,2.5224,3.3807,3.3807,3.3807,3.3807,3.3807,3.3807,3.3721,3.3707,3.3284,3.2874,3.2434,3.1986,3.1545,3.119,3.119,3.119,3.119,3.119,3.119,3.119,3.119,3.119,3.119,3.119,3.119,3.119,3.119,3.119,3.119,3.119,3.119,3.119,3.119,3.119,3.119,3.119,3.119,3.119,3.119,3.119,3.119,3.119,3.119,3.119,3.119,3.119,3.119,3.119,3.119,3.119,3.119,3.119,3.119,3.119,3.119,3.119,3.1241,3.1565,3.2293,3.2564,3.3085,3.4353,3.459,3.4742,3.525,3.5385,3.5318,3.5092,3.481,3.4472,3.3981,3.3558,3.3085,3.2713,3.2391,3.1887,3.1376,3.119,3.119,3.119,3.119,3.119,3.119,3.119,3.119,3.119,3.119,3.119,3.1072,3.0903,3.0514,2.9905,2.9173,2.8373,2.7451,2.6568,2.6171,2.5674,2.5401,2.5029,2.4778,2.4525,2.4783,2.5181,2.5659,2.6049,2.6438,2.6472,2.6269,2.6218,2.6269,2.6404,2.6354,2.543,2.5063,3.3807,3.3807,3.3807,3.3807,3.3807,3.3807,3.3807,3.378,3.3394,3.2968,3.2484,3.2004,3.1584,3.119,3.119,3.119,3.119,3.119,3.119,3.119,3.119,3.119,3.119,3.119,3.119,3.119,3.119,3.119,3.119,3.119,3.119,3.119,3.119,3.119,3.119,3.119,3.119,3.119,3.119,3.119,3.119,3.119,3.119,3.119,3.119,3.119,3.119,3.119,3.119,3.119,3.119,3.119,3.119,3.119,3.119,3.119,3.1224,3.1765,3.2814,3.3119,3.3744,3.4839,3.4675,3.4539,3.4658,3.4726,3.4455,3.415,3.4184,3.3901,3.297,3.2121,3.1884,3.1816,3.1647,3.1427,3.1241,3.119,3.119,3.119,3.119,3.119,3.119,3.119,3.119,3.119,3.1157,3.1173,3.0937,3.0632,2.9989,2.933,2.8752,2.7988,2.7295,2.6601,2.6378,2.6087,2.584,2.5642,2.5374,2.519,2.5341,2.5663,2.6051,2.6404,2.6573,2.6539,2.6336,2.6353,2.6234,2.6048,2.5761,2.5169,2.4898,3.3807,3.3807,3.3807,3.3807,3.3807,3.3807,3.3807,3.378,3.3578,3.3121,3.255,3.2213,3.177,3.123,3.119,3.119,3.119,3.119,3.119,3.119,3.119,3.119,3.119,3.119,3.119,3.119,3.119,3.119,3.119,3.119,3.119,3.119,3.119,3.119,3.119,3.119,3.119,3.119,3.119,3.119,3.119,3.119,3.119,3.119,3.119,3.119,3.119,3.119,3.119,3.119,3.119,3.119,3.119,3.119,3.119,3.119,3.1207,3.1681,3.2577,3.2933,3.3322,3.4467,3.4201,3.4066,3.3981,3.3981,3.3829,3.3508,3.3355,3.297,3.1938,3.1529,3.1224,3.119,3.119,3.119,3.119,3.119,3.119,3.119,3.119,3.119,3.119,3.1106,3.1106,3.1055,3.0565,3.0548,3.0378,3.0006,2.9262,2.8636,2.8196,2.7637,2.7046,2.6691,2.6674,2.6505,2.642,2.6269,2.6135,2.595,2.5799,2.6017,2.6167,2.6302,2.6454,2.642,2.6268,2.6048,2.5795,2.5473,2.5067,2.4575,2.4474,3.3807,3.3807,3.3807,3.3807,3.3807,3.3807,3.3807,3.3807,3.3716,3.3196,3.2565,3.2451,3.1842,3.1329,3.119,3.119,3.119,3.119,3.119,3.119,3.119,3.119,3.119,3.119,3.119,3.119,3.119,3.119,3.119,3.119,3.119,3.119,3.119,3.119,3.119,3.119,3.119,3.119,3.119,3.119,3.119,3.119,3.119,3.119,3.119,3.119,3.119,3.119,3.119,3.119,3.119,3.119,3.119,3.119,3.119,3.119,3.119,3.1613,3.2209,3.2429,3.2699,3.3305,3.3254,3.3237,3.3237,3.3203,3.3068,3.2814,3.2493,3.2005,3.1292,3.1207,3.1207,3.119,3.119,3.119,3.119,3.119,3.119,3.119,3.1157,3.114,3.0987,3.0852,3.0903,3.0801,3.0277,2.9888,2.9719,2.9347,2.8602,2.8095,2.7689,2.7401,2.686,2.6708,2.6708,2.6708,2.6708,2.6657,2.6623,2.6455,2.6185,2.6016,2.6116,2.6319,2.6319,2.6133,2.5947,2.5676,2.5372,2.5067,2.4575,2.3983,2.4152,3.3807,3.3807,3.3807,3.3807,3.3807,3.3807,3.3807,3.3753,3.3494,3.2996,3.2534,3.2109,3.1751,3.1332,3.121,3.119,3.121,3.119,3.119,3.1207,3.1241,3.1275,3.1207,3.1309,3.1258,3.119,3.1241,3.1275,3.119,3.119,3.1258,3.1207,3.1241,3.1258,3.1207,3.119,3.119,3.119,3.119,3.119,3.119,3.119,3.119,3.1207,3.1258,3.1292,3.1241,3.1207,3.119,3.119,3.119,3.119,3.119,3.119,3.119,3.119,3.119,3.1495,3.2039,3.2242,3.2666,3.3051,3.2814,3.2513,3.2496,3.2462,3.2273,3.185,3.1613,3.1343,3.1224,3.119,3.119,3.119,3.119,3.119,3.119,3.119,3.119,3.119,3.114,3.0886,3.0531,3.0243,3.0142,2.9922,2.9465,2.9194,2.9076,2.8636,2.7993,2.757,2.7249,2.7012,2.6708,2.6708,2.6708,2.6708,2.6708,2.6708,2.6674,2.6674,2.6539,2.6336,2.6319,2.6522,2.637,2.6065,2.5812,2.566,2.5203,2.4728,2.444,2.4186,2.4254,3.3807,3.3807,3.3807,3.3807,3.3807,3.3807,3.3807,3.3762,3.3597,3.3255,3.2903,3.2598,3.2264,3.1896,3.1582,3.1428,3.1249,3.119,3.119,3.1241,3.1565,3.1512,3.1343,3.1549,3.1752,3.1765,3.1749,3.1512,3.1295,3.1633,3.1546,3.1345,3.1532,3.1599,3.1275,3.119,3.1224,3.1224,3.1207,3.119,3.119,3.119,3.119,3.1258,3.1582,3.1752,3.1769,3.1769,3.1765,3.1698,3.141,3.1241,3.119,3.119,3.119,3.119,3.1207,3.1309,3.1667,3.1752,3.1884,3.2104,3.1901,3.1749,3.1732,3.1698,3.1579,3.1326,3.119,3.119,3.119,3.119,3.119,3.119,3.119,3.119,3.119,3.119,3.1157,3.1089,3.0784,3.0345,2.9685,2.9448,2.933,2.9044,2.8654,2.8467,2.8383,2.7943,2.7384,2.7215,2.6979,2.6877,2.6708,2.6708,2.6708,2.6708,2.6708,2.6708,2.6708,2.6708,2.6708,2.6607,2.6691,2.6708,2.6623,2.637,2.6031,2.5677,2.5406,2.5067,2.4694,2.4491,2.466,3.3807,3.3807,3.3807,3.3807,3.3807,3.3807,3.3807,3.3793,3.3694,3.3465,3.3229,3.3063,3.2777,3.2451,3.1986,3.1584,3.123,3.119,3.119,3.1343,3.1887,3.1884,3.1562,3.187,3.2226,3.2141,3.1921,3.1955,3.1985,3.2273,3.2121,3.207,3.2344,3.2293,3.1867,3.1647,3.1512,3.1546,3.1258,3.119,3.119,3.119,3.119,3.1258,3.1904,3.2192,3.1921,3.2124,3.2039,3.1836,3.1515,3.119,3.119,3.119,3.119,3.119,3.119,3.119,3.1207,3.1241,3.1343,3.1444,3.1258,3.1224,3.1241,3.1309,3.1224,3.119,3.119,3.119,3.119,3.119,3.119,3.119,3.119,3.119,3.119,3.114,3.1021,3.0801,3.0395,3.0057,2.9668,2.9094,2.9061,2.8399,2.801,2.7689,2.7571,2.73,2.6928,2.686,2.6759,2.6759,2.6708,2.6708,2.6708,2.6708,2.6708,2.6708,2.6708,2.6708,2.6708,2.6708,2.6708,2.6691,2.6674,2.6522,2.6015,2.5677,2.5626,2.5456,2.5101,2.5185,2.5439,3.3807,3.3807,3.3807,3.3807,3.3807,3.3807,3.3807,3.3762,3.348,3.3258,3.3229,3.2825,3.2648,3.2451,3.2074,3.1603,3.1363,3.119,3.1241,3.1447,3.1989,3.1921,3.1393,3.1972,3.2242,3.2226,3.1752,3.2138,3.2662,3.3068,3.3169,3.3034,3.3068,3.3152,3.2848,3.2276,3.253,3.273,3.1816,3.119,3.119,3.119,3.119,3.1376,3.1836,3.209,3.1752,3.2005,3.2073,3.1512,3.1309,3.119,3.119,3.119,3.119,3.119,3.119,3.119,3.119,3.119,3.119,3.119,3.119,3.119,3.119,3.119,3.119,3.119,3.119,3.119,3.119,3.119,3.119,3.119,3.119,3.119,3.119,3.119,3.1038,3.0818,3.0514,3.0345,3.0074,2.9381,2.8756,2.801,2.7418,2.7165,2.6894,2.6776,2.6708,2.6708,2.6708,2.6708,2.6708,2.6708,2.6708,2.6708,2.6708,2.6708,2.6708,2.6708,2.6708,2.6708,2.6708,2.6691,2.6674,2.6404,2.5896,2.5795,2.5896,2.5778,2.5558,2.5795,2.6099,3.3807,3.3807,3.3807,3.3807,3.3807,3.3807,3.3807,3.378,3.362,3.3536,3.3508,3.3343,3.3136,3.2793,3.24,3.2247,3.2046,3.1497,3.1461,3.1735,3.2056,3.1904,3.1532,3.1904,3.2276,3.2209,3.2107,3.2442,3.3136,3.3389,3.3389,3.3491,3.3778,3.3744,3.3474,3.2682,3.253,3.2378,3.1782,3.1224,3.119,3.119,3.119,3.1224,3.1938,3.2022,3.1955,3.2039,3.2175,3.1752,3.1515,3.119,3.119,3.119,3.119,3.119,3.119,3.119,3.119,3.119,3.119,3.119,3.119,3.119,3.119,3.119,3.119,3.119,3.119,3.119,3.119,3.119,3.119,3.119,3.119,3.119,3.119,3.119,3.1106,3.0869,3.0683,3.0615,3.0412,2.977,2.9042,2.8315,2.7739,2.7401,2.7063,2.6742,2.6708,2.6708,2.6708,2.6708,2.6708,2.6708,2.6708,2.6708,2.6708,2.6708,2.6708,2.6708,2.6708,2.6691,2.6674,2.6691,2.6674,2.6539,2.6268,2.6234,2.6234,2.6133,2.6065,2.6201,2.6454,3.3807,3.3807,3.3807,3.3807,3.3807,3.3807,3.3807,3.3807,3.3793,3.3807,3.3807,3.3748,3.349,3.3027,3.2617,3.2389,3.2397,3.1587,3.1602,3.1904,3.2107,3.187,3.1633,3.1904,3.2293,3.2259,3.1938,3.2459,3.3051,3.3254,3.322,3.3677,3.4455,3.432,3.3677,3.3,3.2577,3.1952,3.1985,3.1664,3.1292,3.119,3.119,3.141,3.1836,3.2209,3.2073,3.2242,3.2276,3.1836,3.1498,3.119,3.119,3.119,3.119,3.119,3.119,3.119,3.119,3.119,3.119,3.119,3.119,3.119,3.119,3.119,3.119,3.119,3.119,3.119,3.119,3.119,3.119,3.119,3.119,3.119,3.119,3.119,3.119,3.1072,3.097,3.1038,3.0734,3.0125,2.9431,2.8635,2.8111,2.7722,2.7334,2.6962,2.6759,2.6759,2.6708,2.6708,2.6708,2.6708,2.6708,2.6674,2.6674,2.6708,2.6708,2.6708,2.6708,2.6691,2.6607,2.647,2.635,2.6522,2.6691,2.6556,2.6471,2.6573,2.6623,2.6657,2.6674,3.3807,3.3807,3.3807,3.3807,3.3807,3.3807,3.3807,3.3807,3.3807,3.3807,3.3807,3.378,3.3357,3.2777,3.2568,3.2179,3.1482,3.1263,3.1379,3.1633,3.1853,3.1735,3.1616,3.1802,3.2175,3.209,3.1769,3.2188,3.2899,3.2696,3.3288,3.4286,3.459,3.4742,3.4286,3.3372,3.2374,3.1918,3.2104,3.2087,3.1495,3.119,3.119,3.1343,3.1802,3.2005,3.1396,3.1853,3.1972,3.1444,3.1292,3.1207,3.119,3.119,3.119,3.119,3.1343,3.136,3.1376,3.1258,3.119,3.119,3.119,3.119,3.119,3.119,3.119,3.119,3.119,3.119,3.119,3.119,3.119,3.119,3.119,3.119,3.119,3.119,3.119,3.119,3.119,3.119,3.119,3.0615,3.0108,2.9345,2.8704,2.8298,2.7807,2.7402,2.6996,2.6826,2.6725,2.6708,2.6708,2.6708,2.6708,2.6624,2.659,2.6641,2.6708,2.6674,2.635,2.6436,2.6298,2.6157,2.605,2.6157,2.6298,2.659,2.6624,2.6367,2.6315,2.6264,2.6402,3.3807,3.3807,3.3807,3.3807,3.3807,3.3807,3.3807,3.3807,3.3807,3.3807,3.3807,3.3793,3.362,3.3225,3.2716,3.2615,3.247,3.1523,3.1577,3.1633,3.1735,3.1481,3.1379,3.1464,3.1596,3.1579,3.1326,3.1309,3.1867,3.2141,3.253,3.3237,3.3947,3.4353,3.4032,3.3322,3.2222,3.1647,3.1715,3.1647,3.1461,3.119,3.119,3.1241,3.1343,3.1515,3.1292,3.1464,3.1393,3.1275,3.1207,3.119,3.119,3.119,3.1224,3.1309,3.1599,3.1819,3.1765,3.1512,3.119,3.119,3.119,3.1224,3.1309,3.1224,3.1207,3.119,3.1275,3.1393,3.1241,3.1207,3.119,3.119,3.119,3.119,3.119,3.119,3.119,3.119,3.119,3.119,3.119,3.1123,3.0649,3.0108,2.9484,2.8874,2.8434,2.7909,2.7503,2.7131,2.7012,2.6759,2.6725,2.6708,2.6708,2.6573,2.6453,2.6436,2.6401,2.5873,2.5672,2.5819,2.5908,2.5652,2.5559,2.5672,2.5801,2.5962,2.5908,2.5726,2.5728,2.5873,2.6017,3.3807,3.3807,3.3807,3.3807,3.3807,3.3807,3.3807,3.3807,3.3807,3.3807,3.3807,3.3807,3.362,3.3284,3.2858,3.2458,3.2348,3.1741,3.1644,3.1582,3.1444,3.1207,3.119,3.1224,3.1292,3.119,3.119,3.1258,3.136,3.1749,3.2124,3.2412,3.2577,3.3085,3.3389,3.2919,3.1938,3.1396,3.1447,3.1326,3.1275,3.119,3.119,3.119,3.1241,3.1241,3.1207,3.1275,3.1258,3.1207,3.119,3.119,3.119,3.1224,3.1328,3.1633,3.1989,3.2378,3.2408,3.2222,3.1867,3.2053,3.2002,3.1867,3.1633,3.1664,3.2002,3.163,3.1715,3.1816,3.1765,3.1816,3.1681,3.1718,3.1258,3.119,3.119,3.119,3.119,3.119,3.119,3.119,3.119,3.119,3.1021,3.0531,2.9989,2.9551,2.9262,2.8704,2.806,2.7689,2.7367,2.7063,2.6759,2.6725,2.6623,2.6332,2.6192,2.607,2.5873,2.5357,2.5186,2.5451,2.5395,2.5086,2.493,2.4894,2.5051,2.524,2.5221,2.5259,2.5392,2.5524,2.5542,3.3807,3.3807,3.3807,3.3807,3.3807,3.3807,3.3807,3.3807,3.3807,3.3807,3.3807,3.3762,3.3361,3.2793,3.2533,3.2179,3.172,3.1378,3.1275,3.1275,3.1292,3.119,3.119,3.119,3.119,3.119,3.119,3.119,3.119,3.1343,3.1681,3.187,3.187,3.1867,3.2344,3.2344,3.1904,3.1413,3.1853,3.165,3.1343,3.119,3.119,3.119,3.119,3.119,3.119,3.119,3.119,3.119,3.1343,3.1393,3.1396,3.1478,3.1749,3.2276,3.2395,3.2801,3.3305,3.3339,3.3288,3.3068,3.2831,3.2763,3.2544,3.2713,3.2882,3.2341,3.2679,3.3068,3.3,3.2733,3.2429,3.2192,3.1765,3.163,3.1681,3.1444,3.1495,3.1427,3.1275,3.119,3.119,3.119,3.119,3.0886,3.0446,3.0142,2.9973,2.9499,2.8821,2.8394,2.8005,2.731,2.699,2.674,2.6536,2.6207,2.5872,2.5654,2.5414,2.5031,2.4992,2.5144,2.4855,2.4471,2.4241,2.4032,2.4328,2.4632,2.4891,2.4989,2.5105,2.5086,2.5028,3.3807,3.3807,3.3807,3.3807,3.3807,3.3807,3.3807,3.3807,3.3807,3.3807,3.3734,3.355,3.3302,3.2872,3.2298,3.1861,3.1585,3.1252,3.119,3.119,3.119,3.119,3.119,3.119,3.119,3.119,3.119,3.119,3.119,3.119,3.1258,3.1413,3.141,3.1379,3.1532,3.1565,3.136,3.1278,3.1447,3.141,3.1224,3.119,3.119,3.119,3.119,3.119,3.119,3.119,3.119,3.1275,3.1498,3.1836,3.1972,3.2121,3.2696,3.3136,3.3355,3.41,3.4658,3.4788,3.4332,3.3863,3.3508,3.344,3.3119,3.322,3.3186,3.3152,3.3372,3.3558,3.3237,3.3186,3.3034,3.3034,3.2831,3.2797,3.273,3.2222,3.1989,3.1819,3.1667,3.1286,3.1148,3.0995,3.0938,3.0898,3.0456,3.0673,3.063,3.0173,2.9616,2.9213,2.8697,2.7829,2.7205,2.6781,2.6334,2.5932,2.5452,2.5012,2.4776,2.4806,2.4719,2.4864,2.4358,2.3858,2.4027,2.4111,2.3891,2.4012,2.4333,2.442,2.4328,2.4307,2.4261,3.3807,3.3807,3.3807,3.3807,3.3807,3.3807,3.3807,3.378,3.3666,3.3592,3.3508,3.3151,3.2807,3.2549,3.2144,3.1677,3.1584,3.1351,3.119,3.119,3.119,3.119,3.119,3.119,3.119,3.119,3.119,3.119,3.119,3.119,3.1224,3.1241,3.119,3.1224,3.1241,3.1241,3.1241,3.1207,3.1275,3.1258,3.119,3.119,3.119,3.119,3.119,3.119,3.119,3.119,3.1207,3.1447,3.1853,3.2293,3.2547,3.2933,3.3508,3.3863,3.4472,3.5064,3.538,3.5498,3.4957,3.4438,3.4163,3.4032,3.3964,3.4134,3.4032,3.3981,3.3998,3.41,3.4117,3.4044,3.3778,3.3795,3.3575,3.3541,3.3258,3.2773,3.2394,3.2229,3.185,3.1473,3.0932,3.0818,3.0642,3.058,3.0485,3.0781,3.1015,3.0519,2.9953,2.9512,2.8976,2.8052,2.7237,2.6633,2.617,2.5674,2.5277,2.4901,2.501,2.5153,2.4865,2.4691,2.4684,2.4626,2.441,2.4312,2.4221,2.4033,2.3917,2.3851,2.3625,2.3681,2.3794,3.3807,3.3807,3.3807,3.3807,3.3807,3.3766,3.3766,3.3721,3.3346,3.3184,3.3136,3.2681,3.2315,3.1933,3.1771,3.1565,3.1329,3.123,3.119,3.119,3.119,3.119,3.119,3.119,3.119,3.119,3.119,3.119,3.119,3.119,3.119,3.119,3.119,3.119,3.119,3.119,3.119,3.119,3.119,3.119,3.119,3.119,3.119,3.119,3.119,3.1292,3.1343,3.1393,3.1427,3.1681,3.2141,3.2361,3.2682,3.3119,3.3795,3.4406,3.5088,3.5171,3.5283,3.527,3.526,3.4806,3.5132,3.5009,3.4895,3.4928,3.4822,3.4788,3.4839,3.5177,3.5397,3.4962,3.4539,3.432,3.4015,3.3816,3.3599,3.3237,3.2874,3.2513,3.2047,3.1471,3.0504,3.0213,3.0166,3.0043,3.0,3.0208,3.0393,3.0351,2.9823,2.9358,2.8788,2.8116,2.7381,2.6725,2.6203,2.5772,2.5574,2.5286,2.5432,2.5476,2.5274,2.5213,2.543,2.5375,2.5031,2.4799,2.4702,2.447,2.4343,2.3864,2.3804,2.364,2.3659,3.3807,3.3807,3.3807,3.3807,3.3766,3.3494,3.3379,3.3317,3.2903,3.2697,3.2665,3.2213,3.1915,3.1789,3.1507,3.1312,3.1232,3.119,3.119,3.119,3.119,3.119,3.119,3.119,3.119,3.119,3.119,3.119,3.119,3.119,3.119,3.119,3.119,3.119,3.119,3.119,3.1207,3.1224,3.1241,3.1241,3.1224,3.1224,3.1258,3.1343,3.1326,3.1512,3.1867,3.1989,3.2138,3.273,3.3423,3.3833,3.3935,3.4518,3.5054,3.4489,3.4421,3.4178,3.4235,3.464,3.4759,3.4544,3.464,3.5134,3.5222,3.5251,3.5296,3.5228,3.5104,3.5163,3.5224,3.4962,3.4751,3.4544,3.432,3.4163,3.3922,3.352,3.3137,3.2488,3.2026,3.0969,3.0014,2.9651,2.9585,2.9451,2.9451,2.9585,2.9717,2.9689,2.9609,2.9144,2.8647,2.7981,2.7511,2.6895,2.6359,2.5894,2.5765,2.5713,2.5778,2.5796,2.5683,2.5749,2.5974,2.5839,2.5525,2.539,2.5307,2.5292,2.5151,2.4507,2.3984,2.3879,2.3684,3.3807,3.3807,3.3807,3.3556,3.3071,3.2468,3.2216,3.2206,3.2191,3.2213,3.2179,3.1734,3.1565,3.1526,3.1312,3.121,3.121,3.119,3.119,3.119,3.119,3.119,3.119,3.119,3.119,3.119,3.119,3.119,3.119,3.119,3.119,3.119,3.119,3.119,3.119,3.1224,3.143,3.1464,3.1444,3.141,3.1444,3.1444,3.1495,3.187,3.1799,3.2073,3.2577,3.2716,3.3017,3.3474,3.41,3.4455,3.4508,3.4897,3.4821,3.4284,3.4268,3.3962,3.3937,3.4309,3.4112,3.3887,3.3937,3.4284,3.4528,3.4543,3.4807,3.4955,3.483,3.4752,3.4776,3.4776,3.4759,3.4703,3.4631,3.4535,3.4177,3.3754,3.3137,3.2449,3.1518,3.0425,2.9696,2.9326,2.8919,2.8614,2.8472,2.8528,2.8764,2.8943,2.9012,2.8854,2.8396,2.788,2.7452,2.7131,2.6784,2.6423,2.6264,2.6234,2.6228,2.6393,2.6542,2.6551,2.6537,2.6417,2.6318,2.6093,2.6004,2.5989,2.5815,2.5217,2.4664,2.435,2.4096,3.3807,3.3788,3.3707,3.2994,3.1989,3.119,3.0803,3.075,3.1459,3.1752,3.1695,3.1389,3.1249,3.1271,3.121,3.119,3.119,3.119,3.119,3.119,3.119,3.119,3.119,3.119,3.119,3.119,3.119,3.119,3.119,3.119,3.119,3.119,3.119,3.119,3.119,3.119,3.1461,3.1938,3.1819,3.1718,3.2073,3.1985,3.1918,3.2797,3.278,3.2679,3.3203,3.344,3.3525,3.3829,3.415,3.4624,3.4572,3.4251,3.3965,3.3719,3.3684,3.3453,3.3349,3.371,3.3684,3.3531,3.3495,3.3572,3.37,3.3962,3.4276,3.4399,3.426,3.4161,3.4153,3.4178,3.4153,3.4137,3.4087,3.3903,3.3553,3.3105,3.2515,3.1857,3.1191,3.017,2.9611,2.9249,2.8799,2.8137,2.781,2.7835,2.7968,2.8247,2.8367,2.8487,2.8134,2.7775,2.7595,2.7319,2.724,2.7016,2.6811,2.6856,2.6956,2.721,2.7525,2.73,2.7031,2.7255,2.724,2.6901,2.6647,2.6593,2.6344,2.5857,2.5401,2.4982,2.4709,3.3807,3.3725,3.2871,3.2126,3.1524,3.0955,3.0505,3.0313,3.1045,3.1353,3.1312,3.1252,3.119,3.119,3.119,3.119,3.119,3.119,3.119,3.119,3.119,3.119,3.119,3.119,3.119,3.119,3.119,3.119,3.119,3.119,3.119,3.119,3.119,3.119,3.1207,3.1224,3.1667,3.2361,3.2412,3.2547,3.3068,3.3,3.3,3.3034,3.2801,3.3203,3.3677,3.4015,3.4506,3.5047,3.5194,3.507,3.4638,3.3671,3.3103,3.2841,3.2637,3.2516,3.2528,3.2826,3.2879,3.2598,3.2504,3.2734,3.2986,3.3365,3.3582,3.3684,3.3659,3.3556,3.3479,3.3479,3.3453,3.3479,3.3453,3.3172,3.2868,3.2362,3.1809,3.1311,3.0765,3.0213,2.9667,2.9124,2.8658,2.8231,2.7815,2.7675,2.7685,2.7845,2.7894,2.7968,2.787,2.7605,2.7525,2.7495,2.7405,2.7405,2.727,2.7405,2.757,2.7585,2.76,2.76,2.7525,2.7458,2.7408,2.7445,2.725,2.6981,2.6712,2.6173,2.5953,2.558,2.5396,3.3536,3.3338,3.2046,3.1137,3.0582,3.0128,2.9808,2.9773,3.0395,3.0903,3.1157,3.119,3.119,3.119,3.119,3.119,3.119,3.119,3.119,3.119,3.119,3.119,3.119,3.119,3.119,3.119,3.119,3.119,3.119,3.119,3.119,3.119,3.119,3.119,3.1241,3.1498,3.2022,3.2763,3.3004,3.3575,3.4083,3.3795,3.3829,3.3643,3.3829,3.41,3.4433,3.481,3.5092,3.5352,3.5249,3.4439,3.3813,3.305,3.2504,3.2244,3.2064,3.1868,3.1824,3.1951,3.2188,3.1966,3.1768,3.2132,3.2104,3.2446,3.2745,3.281,3.2555,3.2434,3.2407,3.2407,3.2407,3.2407,3.2407,3.2256,3.2104,3.1875,3.1587,3.1436,3.091,3.0458,2.9835,2.9113,2.8689,2.8419,2.8004,2.7645,2.7615,2.7585,2.7585,2.7585,2.7585,2.7585,2.757,2.7555,2.754,2.757,2.756,2.7534,2.7469,2.7549,2.7575,2.7265,2.706,2.7034,2.706,2.7111,2.7111,2.6784,2.664,2.6466,2.6237,2.6006,2.5897,3.3051,3.2729,3.123,3.0144,2.9487,2.9158,2.9045,2.9179,2.9905,3.0632,3.114,3.119,3.119,3.119,3.119,3.119,3.119,3.119,3.119,3.119,3.119,3.119,3.119,3.119,3.119,3.119,3.119,3.119,3.119,3.119,3.119,3.119,3.119,3.119,3.143,3.1921,3.2564,3.3254,3.3829,3.4709,3.4709,3.4382,3.4556,3.4827,3.5047,3.4996,3.5295,3.5549,3.5549,3.5075,3.464,3.3802,3.3119,3.2504,3.212,3.1824,3.1979,3.1824,3.1768,3.1966,3.191,3.1726,3.1553,3.1524,3.1553,3.171,3.202,3.1964,3.171,3.1625,3.164,3.1611,3.164,3.1625,3.1596,3.1596,3.1553,3.1524,3.1466,3.1436,3.1107,3.0672,3.0178,2.943,2.8951,2.8652,2.8263,2.7899,2.763,2.76,2.7585,2.7585,2.7585,2.7585,2.7585,2.7534,2.7509,2.7458,2.7433,2.7393,2.7265,2.6916,2.6654,2.6496,2.6349,2.6349,2.6349,2.6349,2.6363,2.6363,2.5932,2.5713,2.5915,2.5799,2.6152,3.2275,3.1618,3.0344,2.9381,2.8812,2.8919,2.8993,2.9213,3.0378,3.1089,3.1157,3.119,3.119,3.119,3.119,3.119,3.119,3.119,3.119,3.119,3.119,3.119,3.119,3.119,3.119,3.119,3.119,3.119,3.119,3.119,3.119,3.119,3.119,3.1241,3.1379,3.2005,3.2784,3.3541,3.4252,3.4962,3.538,3.516,3.4945,3.5059,3.516,3.4979,3.503,3.5312,3.5153,3.4616,3.3735,3.3039,3.2516,3.2076,3.1739,3.164,3.1796,3.171,3.1682,3.1739,3.1611,3.1611,3.1496,3.1496,3.1524,3.1524,3.171,3.171,3.1553,3.1553,3.1553,3.1553,3.1553,3.1553,3.1524,3.1524,3.1524,3.1496,3.1481,3.1481,3.1376,3.1167,3.1077,3.0402,2.9789,2.9385,2.8816,2.8438,2.8004,2.7824,2.7705,2.7764,2.7824,2.7585,2.7585,2.7458,2.7408,2.7357,2.7111,2.6745,2.6349,2.5864,2.5646,2.5618,2.5618,2.5591,2.5591,2.5618,2.5618,2.5508,2.4964,2.4738,2.5119,2.5384,2.555]}]]